<?xml version="1.0" encoding="UTF-8" standalone="no" ?>
<gpx xmlns="http://www.topografix.com/GPX/1/1" xmlns:xsi="http://www.w3.org/2001/XMLSchema-instance" xsi:schemaLocation="http://www.topografix.com/GPX/1/1 http://www.topografix.com/GPX/1/1/gpx.xsd" version="1.1" creator="VisuGPX - https://www.visugpx.com">
  <metadata>
    <name>21 km THOMERY-MORET SUR LOING</name>
    <desc><![CDATA[Rando départ de la gare de THOMERY puis MORET SUR LOING]]></desc>
  </metadata>
  <trk>
    <name><![CDATA[23-NOV-14 15:46:56]]></name>
    <trkseg>
      <trkpt lat="48.39487" lon="2.76446">
        <ele>56.86</ele>
        <time>2014-11-23T08:02:35Z</time>
      </trkpt>
      <trkpt lat="48.39486" lon="2.76446">
        <ele>61.18</ele>
        <time>2014-11-23T08:02:37Z</time>
      </trkpt>
      <trkpt lat="48.39486" lon="2.76446">
        <ele>65.51</ele>
        <time>2014-11-23T08:02:39Z</time>
      </trkpt>
      <trkpt lat="48.39488" lon="2.76446">
        <ele>69.83</ele>
        <time>2014-11-23T08:02:41Z</time>
      </trkpt>
      <trkpt lat="48.39489" lon="2.76447">
        <ele>73.68</ele>
        <time>2014-11-23T08:02:43Z</time>
      </trkpt>
      <trkpt lat="48.39489" lon="2.76447">
        <ele>77.04</ele>
        <time>2014-11-23T08:02:45Z</time>
      </trkpt>
      <trkpt lat="48.39488" lon="2.76448">
        <ele>80.41</ele>
        <time>2014-11-23T08:02:47Z</time>
      </trkpt>
      <trkpt lat="48.39487" lon="2.76449">
        <ele>83.77</ele>
        <time>2014-11-23T08:02:49Z</time>
      </trkpt>
      <trkpt lat="48.39485" lon="2.76451">
        <ele>87.62</ele>
        <time>2014-11-23T08:02:52Z</time>
      </trkpt>
      <trkpt lat="48.39483" lon="2.76452">
        <ele>90.98</ele>
        <time>2014-11-23T08:02:55Z</time>
      </trkpt>
      <trkpt lat="48.39478" lon="2.76453">
        <ele>95.31</ele>
        <time>2014-11-23T08:02:59Z</time>
      </trkpt>
      <trkpt lat="48.39471" lon="2.76452">
        <ele>98.19</ele>
        <time>2014-11-23T08:03:03Z</time>
      </trkpt>
      <trkpt lat="48.39459" lon="2.76453">
        <ele>101.56</ele>
        <time>2014-11-23T08:03:10Z</time>
      </trkpt>
      <trkpt lat="48.39449" lon="2.76451">
        <ele>102.52</ele>
        <time>2014-11-23T08:03:25Z</time>
      </trkpt>
      <trkpt lat="48.39445" lon="2.76452">
        <ele>102.04</ele>
        <time>2014-11-23T08:03:39Z</time>
      </trkpt>
      <trkpt lat="48.39445" lon="2.76444">
        <ele>102.52</ele>
        <time>2014-11-23T08:03:56Z</time>
      </trkpt>
      <trkpt lat="48.39448" lon="2.76445">
        <ele>102.52</ele>
        <time>2014-11-23T08:04:15Z</time>
      </trkpt>
      <trkpt lat="48.39447" lon="2.76445">
        <ele>102.52</ele>
        <time>2014-11-23T08:04:34Z</time>
      </trkpt>
      <trkpt lat="48.39445" lon="2.76446">
        <ele>102.52</ele>
        <time>2014-11-23T08:04:58Z</time>
      </trkpt>
      <trkpt lat="48.39445" lon="2.76447">
        <ele>102.52</ele>
        <time>2014-11-23T08:05:12Z</time>
      </trkpt>
      <trkpt lat="48.39445" lon="2.7645">
        <ele>102.52</ele>
        <time>2014-11-23T08:05:31Z</time>
      </trkpt>
      <trkpt lat="48.39446" lon="2.76452">
        <ele>102.52</ele>
        <time>2014-11-23T08:05:49Z</time>
      </trkpt>
      <trkpt lat="48.39446" lon="2.76453">
        <ele>102.52</ele>
        <time>2014-11-23T08:06:12Z</time>
      </trkpt>
      <trkpt lat="48.39447" lon="2.76456">
        <ele>102.52</ele>
        <time>2014-11-23T08:06:32Z</time>
      </trkpt>
      <trkpt lat="48.39446" lon="2.76456">
        <ele>102.52</ele>
        <time>2014-11-23T08:06:48Z</time>
      </trkpt>
      <trkpt lat="48.39446" lon="2.76456">
        <ele>102.52</ele>
        <time>2014-11-23T08:07:03Z</time>
      </trkpt>
      <trkpt lat="48.39445" lon="2.76456">
        <ele>102.52</ele>
        <time>2014-11-23T08:07:23Z</time>
      </trkpt>
      <trkpt lat="48.39445" lon="2.76456">
        <ele>102.52</ele>
        <time>2014-11-23T08:07:42Z</time>
      </trkpt>
      <trkpt lat="48.39446" lon="2.76456">
        <ele>102.04</ele>
        <time>2014-11-23T08:08:00Z</time>
      </trkpt>
      <trkpt lat="48.39446" lon="2.76456">
        <ele>102.04</ele>
        <time>2014-11-23T08:08:17Z</time>
      </trkpt>
      <trkpt lat="48.39446" lon="2.76456">
        <ele>102.04</ele>
        <time>2014-11-23T08:08:38Z</time>
      </trkpt>
      <trkpt lat="48.39446" lon="2.76457">
        <ele>101.56</ele>
        <time>2014-11-23T08:08:55Z</time>
      </trkpt>
      <trkpt lat="48.39447" lon="2.76457">
        <ele>101.56</ele>
        <time>2014-11-23T08:09:20Z</time>
      </trkpt>
      <trkpt lat="48.39446" lon="2.76457">
        <ele>101.56</ele>
        <time>2014-11-23T08:09:42Z</time>
      </trkpt>
      <trkpt lat="48.39446" lon="2.76453">
        <ele>101.08</ele>
        <time>2014-11-23T08:09:56Z</time>
      </trkpt>
      <trkpt lat="48.39447" lon="2.76441">
        <ele>101.08</ele>
        <time>2014-11-23T08:10:09Z</time>
      </trkpt>
      <trkpt lat="48.39452" lon="2.76428">
        <ele>100.6</ele>
        <time>2014-11-23T08:10:24Z</time>
      </trkpt>
      <trkpt lat="48.39454" lon="2.76412">
        <ele>100.6</ele>
        <time>2014-11-23T08:10:37Z</time>
      </trkpt>
      <trkpt lat="48.39459" lon="2.76405">
        <ele>100.11</ele>
        <time>2014-11-23T08:10:52Z</time>
      </trkpt>
      <trkpt lat="48.3947" lon="2.76403">
        <ele>100.11</ele>
        <time>2014-11-23T08:11:06Z</time>
      </trkpt>
      <trkpt lat="48.39481" lon="2.76402">
        <ele>100.11</ele>
        <time>2014-11-23T08:11:20Z</time>
      </trkpt>
      <trkpt lat="48.39491" lon="2.76404">
        <ele>99.63</ele>
        <time>2014-11-23T08:11:34Z</time>
      </trkpt>
      <trkpt lat="48.39506" lon="2.76404">
        <ele>99.63</ele>
        <time>2014-11-23T08:11:52Z</time>
      </trkpt>
      <trkpt lat="48.39534" lon="2.76403">
        <ele>99.15</ele>
        <time>2014-11-23T08:12:09Z</time>
      </trkpt>
      <trkpt lat="48.39546" lon="2.76403">
        <ele>99.63</ele>
        <time>2014-11-23T08:12:26Z</time>
      </trkpt>
      <trkpt lat="48.39571" lon="2.76402">
        <ele>99.15</ele>
        <time>2014-11-23T08:12:42Z</time>
      </trkpt>
      <trkpt lat="48.39589" lon="2.764">
        <ele>99.15</ele>
        <time>2014-11-23T08:12:57Z</time>
      </trkpt>
      <trkpt lat="48.39607" lon="2.76401">
        <ele>98.67</ele>
        <time>2014-11-23T08:13:12Z</time>
      </trkpt>
      <trkpt lat="48.39613" lon="2.764">
        <ele>98.67</ele>
        <time>2014-11-23T08:13:18Z</time>
      </trkpt>
      <trkpt lat="48.39631" lon="2.76399">
        <ele>98.67</ele>
        <time>2014-11-23T08:13:33Z</time>
      </trkpt>
      <trkpt lat="48.39638" lon="2.76399">
        <ele>98.67</ele>
        <time>2014-11-23T08:13:39Z</time>
      </trkpt>
      <trkpt lat="48.39654" lon="2.76398">
        <ele>98.67</ele>
        <time>2014-11-23T08:13:54Z</time>
      </trkpt>
      <trkpt lat="48.39667" lon="2.76397">
        <ele>98.67</ele>
        <time>2014-11-23T08:14:07Z</time>
      </trkpt>
      <trkpt lat="48.39685" lon="2.76393">
        <ele>98.67</ele>
        <time>2014-11-23T08:14:23Z</time>
      </trkpt>
      <trkpt lat="48.39693" lon="2.7639">
        <ele>99.15</ele>
        <time>2014-11-23T08:14:31Z</time>
      </trkpt>
      <trkpt lat="48.39697" lon="2.76394">
        <ele>98.67</ele>
        <time>2014-11-23T08:14:34Z</time>
      </trkpt>
      <trkpt lat="48.397" lon="2.764">
        <ele>99.15</ele>
        <time>2014-11-23T08:14:37Z</time>
      </trkpt>
      <trkpt lat="48.39706" lon="2.76419">
        <ele>99.15</ele>
        <time>2014-11-23T08:14:52Z</time>
      </trkpt>
      <trkpt lat="48.39707" lon="2.7642">
        <ele>99.15</ele>
        <time>2014-11-23T08:14:53Z</time>
      </trkpt>
      <trkpt lat="48.3971" lon="2.76423">
        <ele>98.67</ele>
        <time>2014-11-23T08:14:56Z</time>
      </trkpt>
      <trkpt lat="48.39715" lon="2.76425">
        <ele>98.67</ele>
        <time>2014-11-23T08:15:00Z</time>
      </trkpt>
      <trkpt lat="48.39728" lon="2.76427">
        <ele>98.19</ele>
        <time>2014-11-23T08:15:06Z</time>
      </trkpt>
      <trkpt lat="48.3974" lon="2.76421">
        <ele>98.67</ele>
        <time>2014-11-23T08:15:18Z</time>
      </trkpt>
      <trkpt lat="48.39747" lon="2.76408">
        <ele>98.67</ele>
        <time>2014-11-23T08:15:30Z</time>
      </trkpt>
      <trkpt lat="48.39752" lon="2.76399">
        <ele>98.19</ele>
        <time>2014-11-23T08:15:43Z</time>
      </trkpt>
      <trkpt lat="48.39759" lon="2.76396">
        <ele>98.19</ele>
        <time>2014-11-23T08:15:57Z</time>
      </trkpt>
      <trkpt lat="48.39781" lon="2.764">
        <ele>98.19</ele>
        <time>2014-11-23T08:16:12Z</time>
      </trkpt>
      <trkpt lat="48.39796" lon="2.76404">
        <ele>98.19</ele>
        <time>2014-11-23T08:16:25Z</time>
      </trkpt>
      <trkpt lat="48.39812" lon="2.76404">
        <ele>98.19</ele>
        <time>2014-11-23T08:16:41Z</time>
      </trkpt>
      <trkpt lat="48.39826" lon="2.76406">
        <ele>98.67</ele>
        <time>2014-11-23T08:16:57Z</time>
      </trkpt>
      <trkpt lat="48.39843" lon="2.76399">
        <ele>98.67</ele>
        <time>2014-11-23T08:17:11Z</time>
      </trkpt>
      <trkpt lat="48.39859" lon="2.76398">
        <ele>98.67</ele>
        <time>2014-11-23T08:17:26Z</time>
      </trkpt>
      <trkpt lat="48.39875" lon="2.76397">
        <ele>99.15</ele>
        <time>2014-11-23T08:17:42Z</time>
      </trkpt>
      <trkpt lat="48.39892" lon="2.76398">
        <ele>99.15</ele>
        <time>2014-11-23T08:17:59Z</time>
      </trkpt>
      <trkpt lat="48.39904" lon="2.76399">
        <ele>99.63</ele>
        <time>2014-11-23T08:18:14Z</time>
      </trkpt>
      <trkpt lat="48.39921" lon="2.76402">
        <ele>100.11</ele>
        <time>2014-11-23T08:18:31Z</time>
      </trkpt>
      <trkpt lat="48.39945" lon="2.76405">
        <ele>100.11</ele>
        <time>2014-11-23T08:18:46Z</time>
      </trkpt>
      <trkpt lat="48.39963" lon="2.76406">
        <ele>100.6</ele>
        <time>2014-11-23T08:19:03Z</time>
      </trkpt>
      <trkpt lat="48.39967" lon="2.76407">
        <ele>100.6</ele>
        <time>2014-11-23T08:19:07Z</time>
      </trkpt>
      <trkpt lat="48.39975" lon="2.76406">
        <ele>101.08</ele>
        <time>2014-11-23T08:19:21Z</time>
      </trkpt>
      <trkpt lat="48.39992" lon="2.7641">
        <ele>101.08</ele>
        <time>2014-11-23T08:19:35Z</time>
      </trkpt>
      <trkpt lat="48.39997" lon="2.7641">
        <ele>100.6</ele>
        <time>2014-11-23T08:19:38Z</time>
      </trkpt>
      <trkpt lat="48.4001" lon="2.76415">
        <ele>101.08</ele>
        <time>2014-11-23T08:19:54Z</time>
      </trkpt>
      <trkpt lat="48.40015" lon="2.76414">
        <ele>101.56</ele>
        <time>2014-11-23T08:19:58Z</time>
      </trkpt>
      <trkpt lat="48.40037" lon="2.76416">
        <ele>101.56</ele>
        <time>2014-11-23T08:20:13Z</time>
      </trkpt>
      <trkpt lat="48.40051" lon="2.76416">
        <ele>102.04</ele>
        <time>2014-11-23T08:20:29Z</time>
      </trkpt>
      <trkpt lat="48.40059" lon="2.76415">
        <ele>102.04</ele>
        <time>2014-11-23T08:20:45Z</time>
      </trkpt>
      <trkpt lat="48.40069" lon="2.76416">
        <ele>102.52</ele>
        <time>2014-11-23T08:21:02Z</time>
      </trkpt>
      <trkpt lat="48.40076" lon="2.76416">
        <ele>102.04</ele>
        <time>2014-11-23T08:21:07Z</time>
      </trkpt>
      <trkpt lat="48.40119" lon="2.76416">
        <ele>102.52</ele>
        <time>2014-11-23T08:21:23Z</time>
      </trkpt>
      <trkpt lat="48.40133" lon="2.7641">
        <ele>102.52</ele>
        <time>2014-11-23T08:21:39Z</time>
      </trkpt>
      <trkpt lat="48.40135" lon="2.7641">
        <ele>102.52</ele>
        <time>2014-11-23T08:21:43Z</time>
      </trkpt>
      <trkpt lat="48.40147" lon="2.76406">
        <ele>103</ele>
        <time>2014-11-23T08:21:55Z</time>
      </trkpt>
      <trkpt lat="48.4017" lon="2.76411">
        <ele>103</ele>
        <time>2014-11-23T08:22:13Z</time>
      </trkpt>
      <trkpt lat="48.4019" lon="2.76413">
        <ele>103.48</ele>
        <time>2014-11-23T08:22:30Z</time>
      </trkpt>
      <trkpt lat="48.40209" lon="2.76412">
        <ele>103.48</ele>
        <time>2014-11-23T08:22:45Z</time>
      </trkpt>
      <trkpt lat="48.40221" lon="2.76414">
        <ele>103.48</ele>
        <time>2014-11-23T08:23:00Z</time>
      </trkpt>
      <trkpt lat="48.40221" lon="2.76414">
        <ele>103.48</ele>
        <time>2014-11-23T08:23:17Z</time>
      </trkpt>
      <trkpt lat="48.40222" lon="2.76412">
        <ele>103.48</ele>
        <time>2014-11-23T08:23:22Z</time>
      </trkpt>
      <trkpt lat="48.40246" lon="2.7641">
        <ele>103.48</ele>
        <time>2014-11-23T08:23:38Z</time>
      </trkpt>
      <trkpt lat="48.40247" lon="2.76411">
        <ele>103.48</ele>
        <time>2014-11-23T08:23:40Z</time>
      </trkpt>
      <trkpt lat="48.40273" lon="2.76412">
        <ele>103.48</ele>
        <time>2014-11-23T08:23:56Z</time>
      </trkpt>
      <trkpt lat="48.40303" lon="2.76414">
        <ele>103.48</ele>
        <time>2014-11-23T08:24:12Z</time>
      </trkpt>
      <trkpt lat="48.4031" lon="2.76412">
        <ele>103.48</ele>
        <time>2014-11-23T08:24:23Z</time>
      </trkpt>
      <trkpt lat="48.40313" lon="2.76412">
        <ele>103.48</ele>
        <time>2014-11-23T08:24:37Z</time>
      </trkpt>
      <trkpt lat="48.40321" lon="2.76407">
        <ele>103.48</ele>
        <time>2014-11-23T08:24:49Z</time>
      </trkpt>
      <trkpt lat="48.40337" lon="2.76405">
        <ele>103</ele>
        <time>2014-11-23T08:25:04Z</time>
      </trkpt>
      <trkpt lat="48.40353" lon="2.76406">
        <ele>103</ele>
        <time>2014-11-23T08:25:18Z</time>
      </trkpt>
      <trkpt lat="48.40364" lon="2.76405">
        <ele>103</ele>
        <time>2014-11-23T08:25:32Z</time>
      </trkpt>
      <trkpt lat="48.40372" lon="2.76405">
        <ele>102.52</ele>
        <time>2014-11-23T08:25:36Z</time>
      </trkpt>
      <trkpt lat="48.40416" lon="2.76409">
        <ele>102.52</ele>
        <time>2014-11-23T08:25:50Z</time>
      </trkpt>
      <trkpt lat="48.40432" lon="2.76412">
        <ele>102.52</ele>
        <time>2014-11-23T08:26:04Z</time>
      </trkpt>
      <trkpt lat="48.40455" lon="2.76405">
        <ele>102.52</ele>
        <time>2014-11-23T08:26:23Z</time>
      </trkpt>
      <trkpt lat="48.40481" lon="2.76411">
        <ele>102.04</ele>
        <time>2014-11-23T08:26:39Z</time>
      </trkpt>
      <trkpt lat="48.40496" lon="2.76422">
        <ele>102.04</ele>
        <time>2014-11-23T08:26:55Z</time>
      </trkpt>
      <trkpt lat="48.40501" lon="2.76436">
        <ele>102.04</ele>
        <time>2014-11-23T08:27:12Z</time>
      </trkpt>
      <trkpt lat="48.40529" lon="2.76455">
        <ele>101.56</ele>
        <time>2014-11-23T08:27:32Z</time>
      </trkpt>
      <trkpt lat="48.40552" lon="2.76472">
        <ele>101.08</ele>
        <time>2014-11-23T08:27:52Z</time>
      </trkpt>
      <trkpt lat="48.40563" lon="2.76484">
        <ele>100.11</ele>
        <time>2014-11-23T08:28:09Z</time>
      </trkpt>
      <trkpt lat="48.40589" lon="2.76499">
        <ele>100.11</ele>
        <time>2014-11-23T08:28:30Z</time>
      </trkpt>
      <trkpt lat="48.40613" lon="2.76518">
        <ele>99.15</ele>
        <time>2014-11-23T08:28:51Z</time>
      </trkpt>
      <trkpt lat="48.4063" lon="2.76532">
        <ele>98.67</ele>
        <time>2014-11-23T08:29:08Z</time>
      </trkpt>
      <trkpt lat="48.40652" lon="2.76546">
        <ele>98.19</ele>
        <time>2014-11-23T08:29:26Z</time>
      </trkpt>
      <trkpt lat="48.40669" lon="2.76562">
        <ele>97.23</ele>
        <time>2014-11-23T08:29:45Z</time>
      </trkpt>
      <trkpt lat="48.40688" lon="2.76576">
        <ele>96.75</ele>
        <time>2014-11-23T08:30:03Z</time>
      </trkpt>
      <trkpt lat="48.40703" lon="2.76591">
        <ele>95.31</ele>
        <time>2014-11-23T08:30:23Z</time>
      </trkpt>
      <trkpt lat="48.40721" lon="2.76604">
        <ele>93.87</ele>
        <time>2014-11-23T08:30:42Z</time>
      </trkpt>
      <trkpt lat="48.40739" lon="2.76622">
        <ele>92.9</ele>
        <time>2014-11-23T08:31:00Z</time>
      </trkpt>
      <trkpt lat="48.40764" lon="2.76641">
        <ele>91.46</ele>
        <time>2014-11-23T08:31:20Z</time>
      </trkpt>
      <trkpt lat="48.40784" lon="2.76653">
        <ele>90.02</ele>
        <time>2014-11-23T08:31:37Z</time>
      </trkpt>
      <trkpt lat="48.40785" lon="2.76665">
        <ele>88.1</ele>
        <time>2014-11-23T08:31:56Z</time>
      </trkpt>
      <trkpt lat="48.40812" lon="2.76685">
        <ele>87.14</ele>
        <time>2014-11-23T08:32:14Z</time>
      </trkpt>
      <trkpt lat="48.40828" lon="2.76706">
        <ele>85.21</ele>
        <time>2014-11-23T08:32:35Z</time>
      </trkpt>
      <trkpt lat="48.40855" lon="2.76718">
        <ele>83.29</ele>
        <time>2014-11-23T08:32:55Z</time>
      </trkpt>
      <trkpt lat="48.40873" lon="2.76727">
        <ele>81.37</ele>
        <time>2014-11-23T08:33:12Z</time>
      </trkpt>
      <trkpt lat="48.40888" lon="2.76737">
        <ele>79.45</ele>
        <time>2014-11-23T08:33:29Z</time>
      </trkpt>
      <trkpt lat="48.40908" lon="2.76756">
        <ele>77.04</ele>
        <time>2014-11-23T08:33:50Z</time>
      </trkpt>
      <trkpt lat="48.40919" lon="2.76768">
        <ele>74.16</ele>
        <time>2014-11-23T08:34:11Z</time>
      </trkpt>
      <trkpt lat="48.40937" lon="2.76788">
        <ele>72.24</ele>
        <time>2014-11-23T08:34:28Z</time>
      </trkpt>
      <trkpt lat="48.40953" lon="2.76806">
        <ele>69.35</ele>
        <time>2014-11-23T08:34:48Z</time>
      </trkpt>
      <trkpt lat="48.40962" lon="2.76835">
        <ele>66.47</ele>
        <time>2014-11-23T08:35:10Z</time>
      </trkpt>
      <trkpt lat="48.40967" lon="2.7684">
        <ele>65.99</ele>
        <time>2014-11-23T08:35:18Z</time>
      </trkpt>
      <trkpt lat="48.40975" lon="2.7685">
        <ele>63.58</ele>
        <time>2014-11-23T08:35:40Z</time>
      </trkpt>
      <trkpt lat="48.41001" lon="2.76856">
        <ele>61.18</ele>
        <time>2014-11-23T08:36:00Z</time>
      </trkpt>
      <trkpt lat="48.41007" lon="2.76857">
        <ele>60.7</ele>
        <time>2014-11-23T08:36:02Z</time>
      </trkpt>
      <trkpt lat="48.41027" lon="2.7686">
        <ele>58.78</ele>
        <time>2014-11-23T08:36:20Z</time>
      </trkpt>
      <trkpt lat="48.41042" lon="2.76864">
        <ele>57.34</ele>
        <time>2014-11-23T08:36:38Z</time>
      </trkpt>
      <trkpt lat="48.41058" lon="2.76863">
        <ele>55.89</ele>
        <time>2014-11-23T08:36:53Z</time>
      </trkpt>
      <trkpt lat="48.41082" lon="2.76874">
        <ele>54.45</ele>
        <time>2014-11-23T08:37:10Z</time>
      </trkpt>
      <trkpt lat="48.41084" lon="2.76883">
        <ele>53.97</ele>
        <time>2014-11-23T08:37:26Z</time>
      </trkpt>
      <trkpt lat="48.41088" lon="2.76899">
        <ele>53.97</ele>
        <time>2014-11-23T08:37:44Z</time>
      </trkpt>
      <trkpt lat="48.41093" lon="2.76927">
        <ele>52.53</ele>
        <time>2014-11-23T08:38:03Z</time>
      </trkpt>
      <trkpt lat="48.41096" lon="2.76962">
        <ele>52.53</ele>
        <time>2014-11-23T08:38:23Z</time>
      </trkpt>
      <trkpt lat="48.41103" lon="2.76987">
        <ele>52.53</ele>
        <time>2014-11-23T08:38:40Z</time>
      </trkpt>
      <trkpt lat="48.41105" lon="2.77014">
        <ele>52.05</ele>
        <time>2014-11-23T08:38:55Z</time>
      </trkpt>
      <trkpt lat="48.41102" lon="2.77046">
        <ele>51.57</ele>
        <time>2014-11-23T08:39:13Z</time>
      </trkpt>
      <trkpt lat="48.41105" lon="2.77073">
        <ele>51.57</ele>
        <time>2014-11-23T08:39:27Z</time>
      </trkpt>
      <trkpt lat="48.41106" lon="2.77077">
        <ele>51.57</ele>
        <time>2014-11-23T08:39:29Z</time>
      </trkpt>
      <trkpt lat="48.41109" lon="2.77104">
        <ele>51.09</ele>
        <time>2014-11-23T08:39:47Z</time>
      </trkpt>
      <trkpt lat="48.41119" lon="2.77142">
        <ele>51.09</ele>
        <time>2014-11-23T08:40:08Z</time>
      </trkpt>
      <trkpt lat="48.41123" lon="2.77171">
        <ele>50.61</ele>
        <time>2014-11-23T08:40:24Z</time>
      </trkpt>
      <trkpt lat="48.41127" lon="2.77203">
        <ele>51.09</ele>
        <time>2014-11-23T08:40:43Z</time>
      </trkpt>
      <trkpt lat="48.41128" lon="2.77206">
        <ele>51.09</ele>
        <time>2014-11-23T08:40:45Z</time>
      </trkpt>
      <trkpt lat="48.41126" lon="2.77225">
        <ele>51.09</ele>
        <time>2014-11-23T08:40:52Z</time>
      </trkpt>
      <trkpt lat="48.41127" lon="2.77256">
        <ele>51.09</ele>
        <time>2014-11-23T08:41:10Z</time>
      </trkpt>
      <trkpt lat="48.41136" lon="2.77277">
        <ele>51.09</ele>
        <time>2014-11-23T08:41:23Z</time>
      </trkpt>
      <trkpt lat="48.4114" lon="2.77305">
        <ele>51.09</ele>
        <time>2014-11-23T08:41:41Z</time>
      </trkpt>
      <trkpt lat="48.41144" lon="2.77323">
        <ele>51.57</ele>
        <time>2014-11-23T08:41:52Z</time>
      </trkpt>
      <trkpt lat="48.41147" lon="2.77338">
        <ele>51.57</ele>
        <time>2014-11-23T08:42:00Z</time>
      </trkpt>
      <trkpt lat="48.4115" lon="2.77345">
        <ele>51.09</ele>
        <time>2014-11-23T08:42:04Z</time>
      </trkpt>
      <trkpt lat="48.41151" lon="2.77353">
        <ele>51.57</ele>
        <time>2014-11-23T08:42:08Z</time>
      </trkpt>
      <trkpt lat="48.41155" lon="2.77392">
        <ele>51.09</ele>
        <time>2014-11-23T08:42:28Z</time>
      </trkpt>
      <trkpt lat="48.41156" lon="2.77397">
        <ele>50.61</ele>
        <time>2014-11-23T08:42:31Z</time>
      </trkpt>
      <trkpt lat="48.41158" lon="2.77416">
        <ele>50.61</ele>
        <time>2014-11-23T08:42:42Z</time>
      </trkpt>
      <trkpt lat="48.41155" lon="2.7744">
        <ele>50.61</ele>
        <time>2014-11-23T08:42:57Z</time>
      </trkpt>
      <trkpt lat="48.41159" lon="2.77466">
        <ele>49.65</ele>
        <time>2014-11-23T08:43:13Z</time>
      </trkpt>
      <trkpt lat="48.41159" lon="2.77479">
        <ele>49.65</ele>
        <time>2014-11-23T08:43:20Z</time>
      </trkpt>
      <trkpt lat="48.41164" lon="2.77505">
        <ele>48.68</ele>
        <time>2014-11-23T08:43:35Z</time>
      </trkpt>
      <trkpt lat="48.41172" lon="2.77539">
        <ele>48.2</ele>
        <time>2014-11-23T08:43:55Z</time>
      </trkpt>
      <trkpt lat="48.41173" lon="2.77542">
        <ele>47.72</ele>
        <time>2014-11-23T08:44:04Z</time>
      </trkpt>
      <trkpt lat="48.41177" lon="2.77556">
        <ele>47.72</ele>
        <time>2014-11-23T08:44:16Z</time>
      </trkpt>
      <trkpt lat="48.41182" lon="2.77595">
        <ele>47.24</ele>
        <time>2014-11-23T08:44:37Z</time>
      </trkpt>
      <trkpt lat="48.41183" lon="2.77604">
        <ele>47.24</ele>
        <time>2014-11-23T08:44:43Z</time>
      </trkpt>
      <trkpt lat="48.41193" lon="2.77635">
        <ele>48.2</ele>
        <time>2014-11-23T08:45:02Z</time>
      </trkpt>
      <trkpt lat="48.41195" lon="2.77652">
        <ele>48.2</ele>
        <time>2014-11-23T08:45:14Z</time>
      </trkpt>
      <trkpt lat="48.41201" lon="2.77662">
        <ele>48.2</ele>
        <time>2014-11-23T08:45:23Z</time>
      </trkpt>
      <trkpt lat="48.41206" lon="2.77666">
        <ele>48.2</ele>
        <time>2014-11-23T08:45:27Z</time>
      </trkpt>
      <trkpt lat="48.41208" lon="2.7767">
        <ele>48.2</ele>
        <time>2014-11-23T08:45:29Z</time>
      </trkpt>
      <trkpt lat="48.41209" lon="2.77683">
        <ele>48.68</ele>
        <time>2014-11-23T08:45:34Z</time>
      </trkpt>
      <trkpt lat="48.41209" lon="2.7769">
        <ele>48.2</ele>
        <time>2014-11-23T08:45:38Z</time>
      </trkpt>
      <trkpt lat="48.41211" lon="2.77693">
        <ele>48.2</ele>
        <time>2014-11-23T08:45:40Z</time>
      </trkpt>
      <trkpt lat="48.41214" lon="2.77696">
        <ele>48.2</ele>
        <time>2014-11-23T08:45:42Z</time>
      </trkpt>
      <trkpt lat="48.41216" lon="2.77702">
        <ele>48.2</ele>
        <time>2014-11-23T08:45:45Z</time>
      </trkpt>
      <trkpt lat="48.41221" lon="2.77717">
        <ele>48.2</ele>
        <time>2014-11-23T08:45:54Z</time>
      </trkpt>
      <trkpt lat="48.41225" lon="2.7774">
        <ele>47.72</ele>
        <time>2014-11-23T08:46:07Z</time>
      </trkpt>
      <trkpt lat="48.41227" lon="2.77755">
        <ele>47.72</ele>
        <time>2014-11-23T08:46:16Z</time>
      </trkpt>
      <trkpt lat="48.41232" lon="2.77776">
        <ele>47.24</ele>
        <time>2014-11-23T08:46:29Z</time>
      </trkpt>
      <trkpt lat="48.41235" lon="2.77782">
        <ele>46.76</ele>
        <time>2014-11-23T08:46:33Z</time>
      </trkpt>
      <trkpt lat="48.41236" lon="2.77787">
        <ele>46.76</ele>
        <time>2014-11-23T08:46:36Z</time>
      </trkpt>
      <trkpt lat="48.41238" lon="2.778">
        <ele>47.24</ele>
        <time>2014-11-23T08:46:42Z</time>
      </trkpt>
      <trkpt lat="48.41239" lon="2.77804">
        <ele>46.76</ele>
        <time>2014-11-23T08:46:44Z</time>
      </trkpt>
      <trkpt lat="48.41241" lon="2.77807">
        <ele>46.76</ele>
        <time>2014-11-23T08:46:46Z</time>
      </trkpt>
      <trkpt lat="48.41244" lon="2.7782">
        <ele>46.76</ele>
        <time>2014-11-23T08:46:55Z</time>
      </trkpt>
      <trkpt lat="48.41245" lon="2.77824">
        <ele>46.28</ele>
        <time>2014-11-23T08:46:57Z</time>
      </trkpt>
      <trkpt lat="48.41246" lon="2.77828">
        <ele>46.28</ele>
        <time>2014-11-23T08:47:00Z</time>
      </trkpt>
      <trkpt lat="48.41251" lon="2.77853">
        <ele>45.8</ele>
        <time>2014-11-23T08:47:13Z</time>
      </trkpt>
      <trkpt lat="48.41253" lon="2.77863">
        <ele>45.8</ele>
        <time>2014-11-23T08:47:19Z</time>
      </trkpt>
      <trkpt lat="48.41259" lon="2.77888">
        <ele>45.8</ele>
        <time>2014-11-23T08:47:33Z</time>
      </trkpt>
      <trkpt lat="48.41259" lon="2.77897">
        <ele>45.32</ele>
        <time>2014-11-23T08:47:38Z</time>
      </trkpt>
      <trkpt lat="48.4126" lon="2.77902">
        <ele>45.32</ele>
        <time>2014-11-23T08:47:41Z</time>
      </trkpt>
      <trkpt lat="48.4126" lon="2.77905">
        <ele>45.32</ele>
        <time>2014-11-23T08:47:43Z</time>
      </trkpt>
      <trkpt lat="48.41261" lon="2.77916">
        <ele>45.32</ele>
        <time>2014-11-23T08:47:50Z</time>
      </trkpt>
      <trkpt lat="48.41264" lon="2.77921">
        <ele>45.32</ele>
        <time>2014-11-23T08:47:53Z</time>
      </trkpt>
      <trkpt lat="48.41263" lon="2.77929">
        <ele>45.32</ele>
        <time>2014-11-23T08:47:57Z</time>
      </trkpt>
      <trkpt lat="48.41266" lon="2.77955">
        <ele>44.84</ele>
        <time>2014-11-23T08:48:11Z</time>
      </trkpt>
      <trkpt lat="48.41264" lon="2.77965">
        <ele>44.84</ele>
        <time>2014-11-23T08:48:16Z</time>
      </trkpt>
      <trkpt lat="48.41267" lon="2.77992">
        <ele>45.32</ele>
        <time>2014-11-23T08:48:28Z</time>
      </trkpt>
      <trkpt lat="48.41269" lon="2.7802">
        <ele>44.84</ele>
        <time>2014-11-23T08:48:43Z</time>
      </trkpt>
      <trkpt lat="48.41267" lon="2.78041">
        <ele>45.32</ele>
        <time>2014-11-23T08:48:55Z</time>
      </trkpt>
      <trkpt lat="48.41267" lon="2.78047">
        <ele>45.32</ele>
        <time>2014-11-23T08:48:58Z</time>
      </trkpt>
      <trkpt lat="48.41262" lon="2.78072">
        <ele>45.8</ele>
        <time>2014-11-23T08:49:11Z</time>
      </trkpt>
      <trkpt lat="48.4126" lon="2.78081">
        <ele>45.32</ele>
        <time>2014-11-23T08:49:16Z</time>
      </trkpt>
      <trkpt lat="48.4126" lon="2.78085">
        <ele>45.32</ele>
        <time>2014-11-23T08:49:19Z</time>
      </trkpt>
      <trkpt lat="48.41261" lon="2.78091">
        <ele>45.32</ele>
        <time>2014-11-23T08:49:22Z</time>
      </trkpt>
      <trkpt lat="48.41259" lon="2.78102">
        <ele>45.32</ele>
        <time>2014-11-23T08:49:27Z</time>
      </trkpt>
      <trkpt lat="48.41254" lon="2.78112">
        <ele>45.8</ele>
        <time>2014-11-23T08:49:34Z</time>
      </trkpt>
      <trkpt lat="48.41249" lon="2.78133">
        <ele>45.32</ele>
        <time>2014-11-23T08:49:47Z</time>
      </trkpt>
      <trkpt lat="48.4125" lon="2.78146">
        <ele>45.8</ele>
        <time>2014-11-23T08:49:55Z</time>
      </trkpt>
      <trkpt lat="48.41248" lon="2.78157">
        <ele>45.8</ele>
        <time>2014-11-23T08:50:00Z</time>
      </trkpt>
      <trkpt lat="48.41246" lon="2.78181">
        <ele>46.28</ele>
        <time>2014-11-23T08:50:13Z</time>
      </trkpt>
      <trkpt lat="48.41243" lon="2.7821">
        <ele>45.8</ele>
        <time>2014-11-23T08:50:28Z</time>
      </trkpt>
      <trkpt lat="48.41242" lon="2.78213">
        <ele>45.8</ele>
        <time>2014-11-23T08:50:30Z</time>
      </trkpt>
      <trkpt lat="48.41238" lon="2.78222">
        <ele>45.8</ele>
        <time>2014-11-23T08:50:36Z</time>
      </trkpt>
      <trkpt lat="48.41235" lon="2.78239">
        <ele>45.8</ele>
        <time>2014-11-23T08:50:46Z</time>
      </trkpt>
      <trkpt lat="48.41233" lon="2.78244">
        <ele>45.8</ele>
        <time>2014-11-23T08:50:49Z</time>
      </trkpt>
      <trkpt lat="48.4123" lon="2.78266">
        <ele>45.8</ele>
        <time>2014-11-23T08:51:01Z</time>
      </trkpt>
      <trkpt lat="48.41228" lon="2.78287">
        <ele>45.8</ele>
        <time>2014-11-23T08:51:14Z</time>
      </trkpt>
      <trkpt lat="48.41223" lon="2.78313">
        <ele>45.8</ele>
        <time>2014-11-23T08:51:27Z</time>
      </trkpt>
      <trkpt lat="48.41219" lon="2.78334">
        <ele>45.8</ele>
        <time>2014-11-23T08:51:38Z</time>
      </trkpt>
      <trkpt lat="48.41217" lon="2.78353">
        <ele>45.8</ele>
        <time>2014-11-23T08:51:49Z</time>
      </trkpt>
      <trkpt lat="48.41212" lon="2.78369">
        <ele>45.8</ele>
        <time>2014-11-23T08:51:57Z</time>
      </trkpt>
      <trkpt lat="48.41212" lon="2.78378">
        <ele>45.8</ele>
        <time>2014-11-23T08:52:01Z</time>
      </trkpt>
      <trkpt lat="48.41212" lon="2.78388">
        <ele>45.8</ele>
        <time>2014-11-23T08:52:07Z</time>
      </trkpt>
      <trkpt lat="48.41211" lon="2.78393">
        <ele>45.8</ele>
        <time>2014-11-23T08:52:10Z</time>
      </trkpt>
      <trkpt lat="48.4121" lon="2.78397">
        <ele>45.8</ele>
        <time>2014-11-23T08:52:13Z</time>
      </trkpt>
      <trkpt lat="48.41201" lon="2.78422">
        <ele>45.8</ele>
        <time>2014-11-23T08:52:26Z</time>
      </trkpt>
      <trkpt lat="48.41191" lon="2.78447">
        <ele>45.8</ele>
        <time>2014-11-23T08:52:40Z</time>
      </trkpt>
      <trkpt lat="48.41178" lon="2.78472">
        <ele>45.8</ele>
        <time>2014-11-23T08:52:56Z</time>
      </trkpt>
      <trkpt lat="48.41177" lon="2.78473">
        <ele>45.8</ele>
        <time>2014-11-23T08:52:57Z</time>
      </trkpt>
      <trkpt lat="48.41174" lon="2.78477">
        <ele>45.32</ele>
        <time>2014-11-23T08:53:00Z</time>
      </trkpt>
      <trkpt lat="48.41159" lon="2.78492">
        <ele>45.8</ele>
        <time>2014-11-23T08:53:14Z</time>
      </trkpt>
      <trkpt lat="48.41149" lon="2.78503">
        <ele>45.8</ele>
        <time>2014-11-23T08:53:26Z</time>
      </trkpt>
      <trkpt lat="48.41138" lon="2.7852">
        <ele>45.8</ele>
        <time>2014-11-23T08:53:39Z</time>
      </trkpt>
      <trkpt lat="48.41128" lon="2.78535">
        <ele>45.8</ele>
        <time>2014-11-23T08:53:50Z</time>
      </trkpt>
      <trkpt lat="48.4112" lon="2.78545">
        <ele>45.8</ele>
        <time>2014-11-23T08:53:59Z</time>
      </trkpt>
      <trkpt lat="48.41112" lon="2.78553">
        <ele>45.8</ele>
        <time>2014-11-23T08:54:07Z</time>
      </trkpt>
      <trkpt lat="48.41108" lon="2.78559">
        <ele>45.8</ele>
        <time>2014-11-23T08:54:11Z</time>
      </trkpt>
      <trkpt lat="48.41106" lon="2.78563">
        <ele>45.8</ele>
        <time>2014-11-23T08:54:15Z</time>
      </trkpt>
      <trkpt lat="48.41101" lon="2.78568">
        <ele>45.8</ele>
        <time>2014-11-23T08:54:19Z</time>
      </trkpt>
      <trkpt lat="48.41096" lon="2.78574">
        <ele>45.32</ele>
        <time>2014-11-23T08:54:24Z</time>
      </trkpt>
      <trkpt lat="48.41087" lon="2.78587">
        <ele>45.8</ele>
        <time>2014-11-23T08:54:33Z</time>
      </trkpt>
      <trkpt lat="48.41084" lon="2.78592">
        <ele>45.8</ele>
        <time>2014-11-23T08:54:36Z</time>
      </trkpt>
      <trkpt lat="48.41082" lon="2.78604">
        <ele>45.8</ele>
        <time>2014-11-23T08:54:47Z</time>
      </trkpt>
      <trkpt lat="48.41082" lon="2.7861">
        <ele>45.8</ele>
        <time>2014-11-23T08:54:59Z</time>
      </trkpt>
      <trkpt lat="48.41081" lon="2.7861">
        <ele>45.8</ele>
        <time>2014-11-23T08:55:14Z</time>
      </trkpt>
      <trkpt lat="48.4108" lon="2.78609">
        <ele>45.8</ele>
        <time>2014-11-23T08:55:34Z</time>
      </trkpt>
      <trkpt lat="48.41078" lon="2.78608">
        <ele>45.8</ele>
        <time>2014-11-23T08:55:50Z</time>
      </trkpt>
      <trkpt lat="48.41077" lon="2.78609">
        <ele>45.8</ele>
        <time>2014-11-23T08:56:03Z</time>
      </trkpt>
      <trkpt lat="48.41076" lon="2.78621">
        <ele>45.8</ele>
        <time>2014-11-23T08:56:16Z</time>
      </trkpt>
      <trkpt lat="48.41071" lon="2.78639">
        <ele>45.8</ele>
        <time>2014-11-23T08:56:32Z</time>
      </trkpt>
      <trkpt lat="48.41066" lon="2.78646">
        <ele>45.8</ele>
        <time>2014-11-23T08:56:39Z</time>
      </trkpt>
      <trkpt lat="48.41059" lon="2.7865">
        <ele>45.8</ele>
        <time>2014-11-23T08:56:45Z</time>
      </trkpt>
      <trkpt lat="48.41052" lon="2.78649">
        <ele>45.8</ele>
        <time>2014-11-23T08:56:53Z</time>
      </trkpt>
      <trkpt lat="48.41043" lon="2.78646">
        <ele>45.8</ele>
        <time>2014-11-23T08:57:04Z</time>
      </trkpt>
      <trkpt lat="48.41041" lon="2.78643">
        <ele>45.8</ele>
        <time>2014-11-23T08:57:07Z</time>
      </trkpt>
      <trkpt lat="48.41023" lon="2.78619">
        <ele>46.28</ele>
        <time>2014-11-23T08:57:23Z</time>
      </trkpt>
      <trkpt lat="48.41013" lon="2.78617">
        <ele>45.8</ele>
        <time>2014-11-23T08:57:32Z</time>
      </trkpt>
      <trkpt lat="48.41007" lon="2.78618">
        <ele>46.28</ele>
        <time>2014-11-23T08:57:37Z</time>
      </trkpt>
      <trkpt lat="48.41003" lon="2.78618">
        <ele>46.28</ele>
        <time>2014-11-23T08:57:41Z</time>
      </trkpt>
      <trkpt lat="48.40997" lon="2.78616">
        <ele>47.24</ele>
        <time>2014-11-23T08:57:47Z</time>
      </trkpt>
      <trkpt lat="48.40993" lon="2.78612">
        <ele>46.76</ele>
        <time>2014-11-23T08:57:58Z</time>
      </trkpt>
      <trkpt lat="48.40993" lon="2.78612">
        <ele>46.76</ele>
        <time>2014-11-23T08:58:03Z</time>
      </trkpt>
      <trkpt lat="48.40985" lon="2.78601">
        <ele>47.24</ele>
        <time>2014-11-23T08:58:17Z</time>
      </trkpt>
      <trkpt lat="48.40983" lon="2.78596">
        <ele>47.24</ele>
        <time>2014-11-23T08:58:30Z</time>
      </trkpt>
      <trkpt lat="48.40982" lon="2.78592">
        <ele>47.24</ele>
        <time>2014-11-23T08:58:38Z</time>
      </trkpt>
      <trkpt lat="48.40982" lon="2.78592">
        <ele>47.24</ele>
        <time>2014-11-23T08:58:42Z</time>
      </trkpt>
      <trkpt lat="48.40978" lon="2.78581">
        <ele>47.24</ele>
        <time>2014-11-23T08:58:51Z</time>
      </trkpt>
      <trkpt lat="48.40976" lon="2.78573">
        <ele>47.72</ele>
        <time>2014-11-23T08:58:57Z</time>
      </trkpt>
      <trkpt lat="48.40972" lon="2.78559">
        <ele>48.2</ele>
        <time>2014-11-23T08:59:06Z</time>
      </trkpt>
      <trkpt lat="48.40967" lon="2.78546">
        <ele>48.2</ele>
        <time>2014-11-23T08:59:14Z</time>
      </trkpt>
      <trkpt lat="48.40966" lon="2.7854">
        <ele>48.68</ele>
        <time>2014-11-23T08:59:17Z</time>
      </trkpt>
      <trkpt lat="48.40963" lon="2.78527">
        <ele>48.68</ele>
        <time>2014-11-23T08:59:24Z</time>
      </trkpt>
      <trkpt lat="48.40956" lon="2.78509">
        <ele>49.65</ele>
        <time>2014-11-23T08:59:35Z</time>
      </trkpt>
      <trkpt lat="48.4095" lon="2.78498">
        <ele>50.13</ele>
        <time>2014-11-23T08:59:42Z</time>
      </trkpt>
      <trkpt lat="48.40943" lon="2.78488">
        <ele>49.65</ele>
        <time>2014-11-23T08:59:48Z</time>
      </trkpt>
      <trkpt lat="48.40938" lon="2.78482">
        <ele>50.13</ele>
        <time>2014-11-23T08:59:54Z</time>
      </trkpt>
      <trkpt lat="48.40933" lon="2.7848">
        <ele>50.13</ele>
        <time>2014-11-23T08:59:58Z</time>
      </trkpt>
      <trkpt lat="48.40925" lon="2.78471">
        <ele>50.61</ele>
        <time>2014-11-23T09:00:06Z</time>
      </trkpt>
      <trkpt lat="48.4092" lon="2.78456">
        <ele>51.09</ele>
        <time>2014-11-23T09:00:17Z</time>
      </trkpt>
      <trkpt lat="48.40918" lon="2.78447">
        <ele>51.57</ele>
        <time>2014-11-23T09:00:30Z</time>
      </trkpt>
      <trkpt lat="48.40913" lon="2.78437">
        <ele>52.05</ele>
        <time>2014-11-23T09:00:38Z</time>
      </trkpt>
      <trkpt lat="48.40911" lon="2.78433">
        <ele>52.05</ele>
        <time>2014-11-23T09:00:41Z</time>
      </trkpt>
      <trkpt lat="48.40906" lon="2.78423">
        <ele>52.53</ele>
        <time>2014-11-23T09:00:49Z</time>
      </trkpt>
      <trkpt lat="48.40898" lon="2.78413">
        <ele>52.53</ele>
        <time>2014-11-23T09:00:58Z</time>
      </trkpt>
      <trkpt lat="48.40891" lon="2.78409">
        <ele>53.01</ele>
        <time>2014-11-23T09:01:03Z</time>
      </trkpt>
      <trkpt lat="48.40881" lon="2.78388">
        <ele>53.49</ele>
        <time>2014-11-23T09:01:17Z</time>
      </trkpt>
      <trkpt lat="48.40879" lon="2.78385">
        <ele>53.97</ele>
        <time>2014-11-23T09:01:19Z</time>
      </trkpt>
      <trkpt lat="48.40878" lon="2.78382">
        <ele>53.97</ele>
        <time>2014-11-23T09:01:21Z</time>
      </trkpt>
      <trkpt lat="48.40867" lon="2.78365">
        <ele>54.45</ele>
        <time>2014-11-23T09:01:34Z</time>
      </trkpt>
      <trkpt lat="48.40858" lon="2.78347">
        <ele>55.41</ele>
        <time>2014-11-23T09:01:47Z</time>
      </trkpt>
      <trkpt lat="48.4085" lon="2.78327">
        <ele>56.37</ele>
        <time>2014-11-23T09:01:59Z</time>
      </trkpt>
      <trkpt lat="48.40845" lon="2.78324">
        <ele>56.37</ele>
        <time>2014-11-23T09:02:03Z</time>
      </trkpt>
      <trkpt lat="48.40839" lon="2.78312">
        <ele>56.86</ele>
        <time>2014-11-23T09:02:09Z</time>
      </trkpt>
      <trkpt lat="48.40836" lon="2.78306">
        <ele>56.86</ele>
        <time>2014-11-23T09:02:13Z</time>
      </trkpt>
      <trkpt lat="48.40827" lon="2.78297">
        <ele>57.82</ele>
        <time>2014-11-23T09:02:27Z</time>
      </trkpt>
      <trkpt lat="48.40827" lon="2.78301">
        <ele>57.82</ele>
        <time>2014-11-23T09:02:42Z</time>
      </trkpt>
      <trkpt lat="48.40827" lon="2.78301">
        <ele>57.82</ele>
        <time>2014-11-23T09:03:03Z</time>
      </trkpt>
      <trkpt lat="48.40827" lon="2.78302">
        <ele>57.82</ele>
        <time>2014-11-23T09:03:25Z</time>
      </trkpt>
      <trkpt lat="48.40826" lon="2.78301">
        <ele>57.82</ele>
        <time>2014-11-23T09:03:46Z</time>
      </trkpt>
      <trkpt lat="48.40827" lon="2.78301">
        <ele>57.82</ele>
        <time>2014-11-23T09:04:08Z</time>
      </trkpt>
      <trkpt lat="48.40826" lon="2.78302">
        <ele>57.82</ele>
        <time>2014-11-23T09:04:24Z</time>
      </trkpt>
      <trkpt lat="48.40826" lon="2.78302">
        <ele>57.82</ele>
        <time>2014-11-23T09:04:33Z</time>
      </trkpt>
      <trkpt lat="48.40824" lon="2.78304">
        <ele>58.3</ele>
        <time>2014-11-23T09:04:36Z</time>
      </trkpt>
      <trkpt lat="48.40816" lon="2.78318">
        <ele>58.3</ele>
        <time>2014-11-23T09:04:48Z</time>
      </trkpt>
      <trkpt lat="48.40807" lon="2.78331">
        <ele>58.78</ele>
        <time>2014-11-23T09:05:01Z</time>
      </trkpt>
      <trkpt lat="48.40805" lon="2.78336">
        <ele>58.78</ele>
        <time>2014-11-23T09:05:06Z</time>
      </trkpt>
      <trkpt lat="48.40802" lon="2.78341">
        <ele>58.78</ele>
        <time>2014-11-23T09:05:10Z</time>
      </trkpt>
      <trkpt lat="48.40794" lon="2.78349">
        <ele>58.78</ele>
        <time>2014-11-23T09:05:17Z</time>
      </trkpt>
      <trkpt lat="48.40792" lon="2.78351">
        <ele>59.26</ele>
        <time>2014-11-23T09:05:19Z</time>
      </trkpt>
      <trkpt lat="48.40788" lon="2.7836">
        <ele>59.26</ele>
        <time>2014-11-23T09:05:24Z</time>
      </trkpt>
      <trkpt lat="48.40774" lon="2.78377">
        <ele>60.22</ele>
        <time>2014-11-23T09:05:42Z</time>
      </trkpt>
      <trkpt lat="48.40766" lon="2.7839">
        <ele>59.74</ele>
        <time>2014-11-23T09:05:58Z</time>
      </trkpt>
      <trkpt lat="48.4076" lon="2.78396">
        <ele>59.74</ele>
        <time>2014-11-23T09:06:18Z</time>
      </trkpt>
      <trkpt lat="48.40759" lon="2.78399">
        <ele>59.74</ele>
        <time>2014-11-23T09:06:20Z</time>
      </trkpt>
      <trkpt lat="48.40756" lon="2.78405">
        <ele>60.22</ele>
        <time>2014-11-23T09:06:26Z</time>
      </trkpt>
      <trkpt lat="48.40749" lon="2.78423">
        <ele>60.22</ele>
        <time>2014-11-23T09:06:37Z</time>
      </trkpt>
      <trkpt lat="48.40747" lon="2.78437">
        <ele>59.74</ele>
        <time>2014-11-23T09:06:44Z</time>
      </trkpt>
      <trkpt lat="48.40748" lon="2.7844">
        <ele>59.74</ele>
        <time>2014-11-23T09:06:46Z</time>
      </trkpt>
      <trkpt lat="48.40742" lon="2.78455">
        <ele>60.22</ele>
        <time>2014-11-23T09:07:00Z</time>
      </trkpt>
      <trkpt lat="48.4074" lon="2.78458">
        <ele>59.74</ele>
        <time>2014-11-23T09:07:24Z</time>
      </trkpt>
      <trkpt lat="48.4073" lon="2.78469">
        <ele>60.22</ele>
        <time>2014-11-23T09:07:36Z</time>
      </trkpt>
      <trkpt lat="48.40728" lon="2.78472">
        <ele>60.22</ele>
        <time>2014-11-23T09:07:39Z</time>
      </trkpt>
      <trkpt lat="48.40725" lon="2.78478">
        <ele>60.7</ele>
        <time>2014-11-23T09:07:44Z</time>
      </trkpt>
      <trkpt lat="48.40713" lon="2.78498">
        <ele>61.18</ele>
        <time>2014-11-23T09:07:57Z</time>
      </trkpt>
      <trkpt lat="48.40706" lon="2.78505">
        <ele>61.66</ele>
        <time>2014-11-23T09:08:03Z</time>
      </trkpt>
      <trkpt lat="48.40696" lon="2.78522">
        <ele>62.14</ele>
        <time>2014-11-23T09:08:15Z</time>
      </trkpt>
      <trkpt lat="48.40695" lon="2.78523">
        <ele>62.62</ele>
        <time>2014-11-23T09:08:16Z</time>
      </trkpt>
      <trkpt lat="48.40685" lon="2.78539">
        <ele>63.1</ele>
        <time>2014-11-23T09:08:28Z</time>
      </trkpt>
      <trkpt lat="48.40673" lon="2.78546">
        <ele>63.58</ele>
        <time>2014-11-23T09:08:40Z</time>
      </trkpt>
      <trkpt lat="48.40671" lon="2.78548">
        <ele>63.58</ele>
        <time>2014-11-23T09:08:42Z</time>
      </trkpt>
      <trkpt lat="48.40662" lon="2.78557">
        <ele>64.07</ele>
        <time>2014-11-23T09:08:50Z</time>
      </trkpt>
      <trkpt lat="48.40654" lon="2.78543">
        <ele>64.07</ele>
        <time>2014-11-23T09:08:58Z</time>
      </trkpt>
      <trkpt lat="48.40651" lon="2.78537">
        <ele>64.07</ele>
        <time>2014-11-23T09:09:02Z</time>
      </trkpt>
      <trkpt lat="48.40644" lon="2.78525">
        <ele>64.55</ele>
        <time>2014-11-23T09:09:10Z</time>
      </trkpt>
      <trkpt lat="48.40642" lon="2.7852">
        <ele>64.55</ele>
        <time>2014-11-23T09:09:14Z</time>
      </trkpt>
      <trkpt lat="48.40639" lon="2.78512">
        <ele>64.55</ele>
        <time>2014-11-23T09:09:19Z</time>
      </trkpt>
      <trkpt lat="48.40635" lon="2.78506">
        <ele>65.03</ele>
        <time>2014-11-23T09:09:24Z</time>
      </trkpt>
      <trkpt lat="48.40629" lon="2.78493">
        <ele>65.03</ele>
        <time>2014-11-23T09:09:32Z</time>
      </trkpt>
      <trkpt lat="48.40621" lon="2.78485">
        <ele>65.51</ele>
        <time>2014-11-23T09:09:40Z</time>
      </trkpt>
      <trkpt lat="48.40617" lon="2.78485">
        <ele>65.51</ele>
        <time>2014-11-23T09:09:44Z</time>
      </trkpt>
      <trkpt lat="48.40604" lon="2.78499">
        <ele>66.47</ele>
        <time>2014-11-23T09:09:59Z</time>
      </trkpt>
      <trkpt lat="48.40593" lon="2.78511">
        <ele>66.47</ele>
        <time>2014-11-23T09:10:12Z</time>
      </trkpt>
      <trkpt lat="48.40578" lon="2.78517">
        <ele>66.47</ele>
        <time>2014-11-23T09:10:25Z</time>
      </trkpt>
      <trkpt lat="48.40565" lon="2.78531">
        <ele>66.95</ele>
        <time>2014-11-23T09:10:38Z</time>
      </trkpt>
      <trkpt lat="48.40556" lon="2.78539">
        <ele>66.95</ele>
        <time>2014-11-23T09:10:49Z</time>
      </trkpt>
      <trkpt lat="48.40552" lon="2.78541">
        <ele>66.95</ele>
        <time>2014-11-23T09:10:56Z</time>
      </trkpt>
      <trkpt lat="48.40548" lon="2.78544">
        <ele>66.95</ele>
        <time>2014-11-23T09:11:00Z</time>
      </trkpt>
      <trkpt lat="48.40542" lon="2.78547">
        <ele>67.43</ele>
        <time>2014-11-23T09:11:07Z</time>
      </trkpt>
      <trkpt lat="48.40535" lon="2.7855">
        <ele>66.95</ele>
        <time>2014-11-23T09:11:12Z</time>
      </trkpt>
      <trkpt lat="48.40533" lon="2.78552">
        <ele>67.43</ele>
        <time>2014-11-23T09:11:14Z</time>
      </trkpt>
      <trkpt lat="48.40528" lon="2.78554">
        <ele>67.43</ele>
        <time>2014-11-23T09:11:18Z</time>
      </trkpt>
      <trkpt lat="48.40523" lon="2.7856">
        <ele>67.43</ele>
        <time>2014-11-23T09:11:23Z</time>
      </trkpt>
      <trkpt lat="48.40511" lon="2.78571">
        <ele>67.91</ele>
        <time>2014-11-23T09:11:35Z</time>
      </trkpt>
      <trkpt lat="48.40504" lon="2.78577">
        <ele>67.91</ele>
        <time>2014-11-23T09:11:42Z</time>
      </trkpt>
      <trkpt lat="48.40491" lon="2.78583">
        <ele>68.39</ele>
        <time>2014-11-23T09:11:55Z</time>
      </trkpt>
      <trkpt lat="48.40488" lon="2.78584">
        <ele>68.39</ele>
        <time>2014-11-23T09:12:05Z</time>
      </trkpt>
      <trkpt lat="48.40481" lon="2.78587">
        <ele>68.39</ele>
        <time>2014-11-23T09:12:21Z</time>
      </trkpt>
      <trkpt lat="48.40479" lon="2.78593">
        <ele>68.39</ele>
        <time>2014-11-23T09:12:25Z</time>
      </trkpt>
      <trkpt lat="48.40467" lon="2.78604">
        <ele>68.87</ele>
        <time>2014-11-23T09:12:35Z</time>
      </trkpt>
      <trkpt lat="48.40455" lon="2.78607">
        <ele>68.87</ele>
        <time>2014-11-23T09:12:45Z</time>
      </trkpt>
      <trkpt lat="48.4044" lon="2.78613">
        <ele>68.87</ele>
        <time>2014-11-23T09:12:57Z</time>
      </trkpt>
      <trkpt lat="48.40429" lon="2.7862">
        <ele>69.35</ele>
        <time>2014-11-23T09:13:07Z</time>
      </trkpt>
      <trkpt lat="48.40413" lon="2.7863">
        <ele>69.35</ele>
        <time>2014-11-23T09:13:20Z</time>
      </trkpt>
      <trkpt lat="48.40406" lon="2.78633">
        <ele>69.35</ele>
        <time>2014-11-23T09:13:26Z</time>
      </trkpt>
      <trkpt lat="48.40402" lon="2.78637">
        <ele>69.35</ele>
        <time>2014-11-23T09:13:30Z</time>
      </trkpt>
      <trkpt lat="48.40398" lon="2.7864">
        <ele>69.35</ele>
        <time>2014-11-23T09:13:33Z</time>
      </trkpt>
      <trkpt lat="48.40391" lon="2.78641">
        <ele>69.35</ele>
        <time>2014-11-23T09:13:38Z</time>
      </trkpt>
      <trkpt lat="48.40385" lon="2.7864">
        <ele>69.35</ele>
        <time>2014-11-23T09:13:42Z</time>
      </trkpt>
      <trkpt lat="48.40378" lon="2.78624">
        <ele>69.83</ele>
        <time>2014-11-23T09:13:54Z</time>
      </trkpt>
      <trkpt lat="48.40377" lon="2.78618">
        <ele>70.79</ele>
        <time>2014-11-23T09:14:06Z</time>
      </trkpt>
      <trkpt lat="48.40377" lon="2.78618">
        <ele>61.18</ele>
        <time>2014-11-23T09:14:18Z</time>
      </trkpt>
      <trkpt lat="48.40377" lon="2.78618">
        <ele>84.73</ele>
        <time>2014-11-23T09:14:19Z</time>
      </trkpt>
      <trkpt lat="48.40377" lon="2.78618">
        <ele>71.76</ele>
        <time>2014-11-23T09:14:20Z</time>
      </trkpt>
      <trkpt lat="48.40377" lon="2.78618">
        <ele>70.79</ele>
        <time>2014-11-23T09:14:22Z</time>
      </trkpt>
      <trkpt lat="48.40377" lon="2.78618">
        <ele>70.31</ele>
        <time>2014-11-23T09:14:38Z</time>
      </trkpt>
      <trkpt lat="48.40377" lon="2.78617">
        <ele>70.31</ele>
        <time>2014-11-23T09:15:02Z</time>
      </trkpt>
      <trkpt lat="48.40376" lon="2.78619">
        <ele>70.79</ele>
        <time>2014-11-23T09:15:17Z</time>
      </trkpt>
      <trkpt lat="48.40377" lon="2.78618">
        <ele>70.79</ele>
        <time>2014-11-23T09:15:29Z</time>
      </trkpt>
      <trkpt lat="48.40377" lon="2.78618">
        <ele>70.79</ele>
        <time>2014-11-23T09:15:42Z</time>
      </trkpt>
      <trkpt lat="48.40376" lon="2.78618">
        <ele>70.79</ele>
        <time>2014-11-23T09:16:07Z</time>
      </trkpt>
      <trkpt lat="48.40377" lon="2.78618">
        <ele>70.79</ele>
        <time>2014-11-23T09:16:22Z</time>
      </trkpt>
      <trkpt lat="48.40377" lon="2.78618">
        <ele>70.79</ele>
        <time>2014-11-23T09:16:45Z</time>
      </trkpt>
      <trkpt lat="48.40377" lon="2.78619">
        <ele>70.79</ele>
        <time>2014-11-23T09:17:07Z</time>
      </trkpt>
      <trkpt lat="48.40377" lon="2.78617">
        <ele>70.31</ele>
        <time>2014-11-23T09:17:23Z</time>
      </trkpt>
      <trkpt lat="48.40377" lon="2.78612">
        <ele>70.79</ele>
        <time>2014-11-23T09:17:34Z</time>
      </trkpt>
      <trkpt lat="48.40376" lon="2.78611">
        <ele>70.79</ele>
        <time>2014-11-23T09:17:48Z</time>
      </trkpt>
      <trkpt lat="48.40375" lon="2.78611">
        <ele>70.79</ele>
        <time>2014-11-23T09:18:07Z</time>
      </trkpt>
      <trkpt lat="48.40374" lon="2.786">
        <ele>70.79</ele>
        <time>2014-11-23T09:18:20Z</time>
      </trkpt>
      <trkpt lat="48.40373" lon="2.78599">
        <ele>70.79</ele>
        <time>2014-11-23T09:18:33Z</time>
      </trkpt>
      <trkpt lat="48.40373" lon="2.78598">
        <ele>70.79</ele>
        <time>2014-11-23T09:18:36Z</time>
      </trkpt>
      <trkpt lat="48.40371" lon="2.78596">
        <ele>70.79</ele>
        <time>2014-11-23T09:18:39Z</time>
      </trkpt>
      <trkpt lat="48.4037" lon="2.78593">
        <ele>71.27</ele>
        <time>2014-11-23T09:18:42Z</time>
      </trkpt>
      <trkpt lat="48.40371" lon="2.78588">
        <ele>70.79</ele>
        <time>2014-11-23T09:18:45Z</time>
      </trkpt>
      <trkpt lat="48.40368" lon="2.78568">
        <ele>71.76</ele>
        <time>2014-11-23T09:18:59Z</time>
      </trkpt>
      <trkpt lat="48.40366" lon="2.78563">
        <ele>71.76</ele>
        <time>2014-11-23T09:19:02Z</time>
      </trkpt>
      <trkpt lat="48.40358" lon="2.78537">
        <ele>72.24</ele>
        <time>2014-11-23T09:19:16Z</time>
      </trkpt>
      <trkpt lat="48.40356" lon="2.78525">
        <ele>73.2</ele>
        <time>2014-11-23T09:19:25Z</time>
      </trkpt>
      <trkpt lat="48.40356" lon="2.78523">
        <ele>73.2</ele>
        <time>2014-11-23T09:19:27Z</time>
      </trkpt>
      <trkpt lat="48.40355" lon="2.78517">
        <ele>73.68</ele>
        <time>2014-11-23T09:19:31Z</time>
      </trkpt>
      <trkpt lat="48.4035" lon="2.78499">
        <ele>75.12</ele>
        <time>2014-11-23T09:19:42Z</time>
      </trkpt>
      <trkpt lat="48.40348" lon="2.78497">
        <ele>75.6</ele>
        <time>2014-11-23T09:19:56Z</time>
      </trkpt>
      <trkpt lat="48.40348" lon="2.78497">
        <ele>76.08</ele>
        <time>2014-11-23T09:20:07Z</time>
      </trkpt>
      <trkpt lat="48.40348" lon="2.78498">
        <ele>76.08</ele>
        <time>2014-11-23T09:20:24Z</time>
      </trkpt>
      <trkpt lat="48.40347" lon="2.78498">
        <ele>76.08</ele>
        <time>2014-11-23T09:20:38Z</time>
      </trkpt>
      <trkpt lat="48.40347" lon="2.78498">
        <ele>76.08</ele>
        <time>2014-11-23T09:20:53Z</time>
      </trkpt>
      <trkpt lat="48.40347" lon="2.78498">
        <ele>76.08</ele>
        <time>2014-11-23T09:20:56Z</time>
      </trkpt>
      <trkpt lat="48.40343" lon="2.785">
        <ele>76.08</ele>
        <time>2014-11-23T09:21:00Z</time>
      </trkpt>
      <trkpt lat="48.40339" lon="2.78501">
        <ele>76.08</ele>
        <time>2014-11-23T09:21:09Z</time>
      </trkpt>
      <trkpt lat="48.40333" lon="2.78504">
        <ele>76.08</ele>
        <time>2014-11-23T09:21:15Z</time>
      </trkpt>
      <trkpt lat="48.40325" lon="2.78506">
        <ele>76.08</ele>
        <time>2014-11-23T09:21:22Z</time>
      </trkpt>
      <trkpt lat="48.40323" lon="2.78505">
        <ele>76.56</ele>
        <time>2014-11-23T09:21:24Z</time>
      </trkpt>
      <trkpt lat="48.40318" lon="2.78507">
        <ele>76.56</ele>
        <time>2014-11-23T09:21:28Z</time>
      </trkpt>
      <trkpt lat="48.40312" lon="2.78508">
        <ele>76.56</ele>
        <time>2014-11-23T09:21:33Z</time>
      </trkpt>
      <trkpt lat="48.4031" lon="2.78508">
        <ele>77.04</ele>
        <time>2014-11-23T09:21:35Z</time>
      </trkpt>
      <trkpt lat="48.40295" lon="2.78515">
        <ele>77.04</ele>
        <time>2014-11-23T09:21:49Z</time>
      </trkpt>
      <trkpt lat="48.40278" lon="2.78517">
        <ele>77.52</ele>
        <time>2014-11-23T09:22:03Z</time>
      </trkpt>
      <trkpt lat="48.40264" lon="2.78517">
        <ele>78</ele>
        <time>2014-11-23T09:22:16Z</time>
      </trkpt>
      <trkpt lat="48.40256" lon="2.78517">
        <ele>78.48</ele>
        <time>2014-11-23T09:22:23Z</time>
      </trkpt>
      <trkpt lat="48.40239" lon="2.78516">
        <ele>78.97</ele>
        <time>2014-11-23T09:22:39Z</time>
      </trkpt>
      <trkpt lat="48.40221" lon="2.78515">
        <ele>79.93</ele>
        <time>2014-11-23T09:22:53Z</time>
      </trkpt>
      <trkpt lat="48.40201" lon="2.78513">
        <ele>80.41</ele>
        <time>2014-11-23T09:23:09Z</time>
      </trkpt>
      <trkpt lat="48.40184" lon="2.78512">
        <ele>80.41</ele>
        <time>2014-11-23T09:23:23Z</time>
      </trkpt>
      <trkpt lat="48.40179" lon="2.78511">
        <ele>80.89</ele>
        <time>2014-11-23T09:23:27Z</time>
      </trkpt>
      <trkpt lat="48.40158" lon="2.78508">
        <ele>81.37</ele>
        <time>2014-11-23T09:23:42Z</time>
      </trkpt>
      <trkpt lat="48.40144" lon="2.78505">
        <ele>81.85</ele>
        <time>2014-11-23T09:23:54Z</time>
      </trkpt>
      <trkpt lat="48.40129" lon="2.78502">
        <ele>82.33</ele>
        <time>2014-11-23T09:24:07Z</time>
      </trkpt>
      <trkpt lat="48.40125" lon="2.78501">
        <ele>82.33</ele>
        <time>2014-11-23T09:24:10Z</time>
      </trkpt>
      <trkpt lat="48.40103" lon="2.78493">
        <ele>82.81</ele>
        <time>2014-11-23T09:24:25Z</time>
      </trkpt>
      <trkpt lat="48.40084" lon="2.78488">
        <ele>83.29</ele>
        <time>2014-11-23T09:24:41Z</time>
      </trkpt>
      <trkpt lat="48.4007" lon="2.78486">
        <ele>83.29</ele>
        <time>2014-11-23T09:24:54Z</time>
      </trkpt>
      <trkpt lat="48.40052" lon="2.78482">
        <ele>83.77</ele>
        <time>2014-11-23T09:25:10Z</time>
      </trkpt>
      <trkpt lat="48.40034" lon="2.78477">
        <ele>83.77</ele>
        <time>2014-11-23T09:25:25Z</time>
      </trkpt>
      <trkpt lat="48.40032" lon="2.78469">
        <ele>83.77</ele>
        <time>2014-11-23T09:25:33Z</time>
      </trkpt>
      <trkpt lat="48.40031" lon="2.78463">
        <ele>84.25</ele>
        <time>2014-11-23T09:25:37Z</time>
      </trkpt>
      <trkpt lat="48.40029" lon="2.78459">
        <ele>84.25</ele>
        <time>2014-11-23T09:25:40Z</time>
      </trkpt>
      <trkpt lat="48.4001" lon="2.78457">
        <ele>84.73</ele>
        <time>2014-11-23T09:25:56Z</time>
      </trkpt>
      <trkpt lat="48.39997" lon="2.78453">
        <ele>84.73</ele>
        <time>2014-11-23T09:26:08Z</time>
      </trkpt>
      <trkpt lat="48.39987" lon="2.78455">
        <ele>84.73</ele>
        <time>2014-11-23T09:26:16Z</time>
      </trkpt>
      <trkpt lat="48.39986" lon="2.78458">
        <ele>84.73</ele>
        <time>2014-11-23T09:26:19Z</time>
      </trkpt>
      <trkpt lat="48.39983" lon="2.78464">
        <ele>84.25</ele>
        <time>2014-11-23T09:26:24Z</time>
      </trkpt>
      <trkpt lat="48.3998" lon="2.78469">
        <ele>84.25</ele>
        <time>2014-11-23T09:26:29Z</time>
      </trkpt>
      <trkpt lat="48.39977" lon="2.78469">
        <ele>84.25</ele>
        <time>2014-11-23T09:26:32Z</time>
      </trkpt>
      <trkpt lat="48.39971" lon="2.78473">
        <ele>84.25</ele>
        <time>2014-11-23T09:26:37Z</time>
      </trkpt>
      <trkpt lat="48.3995" lon="2.78479">
        <ele>84.25</ele>
        <time>2014-11-23T09:26:52Z</time>
      </trkpt>
      <trkpt lat="48.39937" lon="2.7848">
        <ele>84.25</ele>
        <time>2014-11-23T09:27:02Z</time>
      </trkpt>
      <trkpt lat="48.39919" lon="2.78483">
        <ele>84.73</ele>
        <time>2014-11-23T09:27:16Z</time>
      </trkpt>
      <trkpt lat="48.399" lon="2.78489">
        <ele>84.73</ele>
        <time>2014-11-23T09:27:32Z</time>
      </trkpt>
      <trkpt lat="48.39881" lon="2.78494">
        <ele>84.73</ele>
        <time>2014-11-23T09:27:47Z</time>
      </trkpt>
      <trkpt lat="48.3988" lon="2.78494">
        <ele>84.73</ele>
        <time>2014-11-23T09:27:48Z</time>
      </trkpt>
      <trkpt lat="48.39862" lon="2.78498">
        <ele>84.73</ele>
        <time>2014-11-23T09:28:03Z</time>
      </trkpt>
      <trkpt lat="48.39843" lon="2.78503">
        <ele>84.73</ele>
        <time>2014-11-23T09:28:17Z</time>
      </trkpt>
      <trkpt lat="48.39841" lon="2.78504">
        <ele>84.73</ele>
        <time>2014-11-23T09:28:19Z</time>
      </trkpt>
      <trkpt lat="48.39835" lon="2.78505">
        <ele>84.25</ele>
        <time>2014-11-23T09:28:24Z</time>
      </trkpt>
      <trkpt lat="48.39813" lon="2.78513">
        <ele>84.25</ele>
        <time>2014-11-23T09:28:41Z</time>
      </trkpt>
      <trkpt lat="48.39789" lon="2.78518">
        <ele>84.25</ele>
        <time>2014-11-23T09:28:59Z</time>
      </trkpt>
      <trkpt lat="48.39774" lon="2.78524">
        <ele>83.77</ele>
        <time>2014-11-23T09:29:12Z</time>
      </trkpt>
      <trkpt lat="48.39768" lon="2.78543">
        <ele>83.29</ele>
        <time>2014-11-23T09:29:23Z</time>
      </trkpt>
      <trkpt lat="48.39765" lon="2.78546">
        <ele>82.81</ele>
        <time>2014-11-23T09:29:34Z</time>
      </trkpt>
      <trkpt lat="48.3975" lon="2.78549">
        <ele>83.29</ele>
        <time>2014-11-23T09:29:45Z</time>
      </trkpt>
      <trkpt lat="48.39734" lon="2.78552">
        <ele>83.29</ele>
        <time>2014-11-23T09:29:58Z</time>
      </trkpt>
      <trkpt lat="48.39713" lon="2.78558">
        <ele>83.29</ele>
        <time>2014-11-23T09:30:15Z</time>
      </trkpt>
      <trkpt lat="48.39694" lon="2.78562">
        <ele>83.29</ele>
        <time>2014-11-23T09:30:29Z</time>
      </trkpt>
      <trkpt lat="48.39693" lon="2.78572">
        <ele>83.29</ele>
        <time>2014-11-23T09:30:40Z</time>
      </trkpt>
      <trkpt lat="48.39694" lon="2.78573">
        <ele>83.29</ele>
        <time>2014-11-23T09:30:41Z</time>
      </trkpt>
      <trkpt lat="48.39697" lon="2.78602">
        <ele>82.33</ele>
        <time>2014-11-23T09:30:56Z</time>
      </trkpt>
      <trkpt lat="48.39698" lon="2.78604">
        <ele>81.85</ele>
        <time>2014-11-23T09:30:57Z</time>
      </trkpt>
      <trkpt lat="48.39698" lon="2.78614">
        <ele>81.85</ele>
        <time>2014-11-23T09:31:03Z</time>
      </trkpt>
      <trkpt lat="48.39701" lon="2.78645">
        <ele>80.89</ele>
        <time>2014-11-23T09:31:20Z</time>
      </trkpt>
      <trkpt lat="48.39702" lon="2.78677">
        <ele>79.45</ele>
        <time>2014-11-23T09:31:37Z</time>
      </trkpt>
      <trkpt lat="48.39701" lon="2.78716">
        <ele>78.48</ele>
        <time>2014-11-23T09:31:55Z</time>
      </trkpt>
      <trkpt lat="48.39702" lon="2.78723">
        <ele>78</ele>
        <time>2014-11-23T09:32:01Z</time>
      </trkpt>
      <trkpt lat="48.39704" lon="2.78729">
        <ele>78</ele>
        <time>2014-11-23T09:32:05Z</time>
      </trkpt>
      <trkpt lat="48.39704" lon="2.78734">
        <ele>78</ele>
        <time>2014-11-23T09:32:08Z</time>
      </trkpt>
      <trkpt lat="48.39711" lon="2.78747">
        <ele>77.04</ele>
        <time>2014-11-23T09:32:19Z</time>
      </trkpt>
      <trkpt lat="48.39715" lon="2.78749">
        <ele>76.56</ele>
        <time>2014-11-23T09:32:22Z</time>
      </trkpt>
      <trkpt lat="48.39722" lon="2.78752">
        <ele>76.08</ele>
        <time>2014-11-23T09:32:28Z</time>
      </trkpt>
      <trkpt lat="48.39724" lon="2.78754">
        <ele>76.08</ele>
        <time>2014-11-23T09:32:30Z</time>
      </trkpt>
      <trkpt lat="48.39731" lon="2.78757">
        <ele>75.6</ele>
        <time>2014-11-23T09:32:36Z</time>
      </trkpt>
      <trkpt lat="48.39744" lon="2.78766">
        <ele>74.64</ele>
        <time>2014-11-23T09:32:46Z</time>
      </trkpt>
      <trkpt lat="48.39747" lon="2.78773">
        <ele>74.64</ele>
        <time>2014-11-23T09:32:50Z</time>
      </trkpt>
      <trkpt lat="48.39751" lon="2.78775">
        <ele>74.16</ele>
        <time>2014-11-23T09:32:53Z</time>
      </trkpt>
      <trkpt lat="48.39753" lon="2.78778">
        <ele>73.68</ele>
        <time>2014-11-23T09:33:05Z</time>
      </trkpt>
      <trkpt lat="48.39753" lon="2.78778">
        <ele>73.2</ele>
        <time>2014-11-23T09:33:07Z</time>
      </trkpt>
      <trkpt lat="48.39756" lon="2.7878">
        <ele>74.16</ele>
        <time>2014-11-23T09:33:10Z</time>
      </trkpt>
      <trkpt lat="48.39772" lon="2.78792">
        <ele>72.72</ele>
        <time>2014-11-23T09:33:23Z</time>
      </trkpt>
      <trkpt lat="48.39773" lon="2.78793">
        <ele>72.72</ele>
        <time>2014-11-23T09:33:24Z</time>
      </trkpt>
      <trkpt lat="48.39792" lon="2.78803">
        <ele>71.76</ele>
        <time>2014-11-23T09:33:38Z</time>
      </trkpt>
      <trkpt lat="48.39809" lon="2.7881">
        <ele>71.27</ele>
        <time>2014-11-23T09:33:51Z</time>
      </trkpt>
      <trkpt lat="48.39825" lon="2.78819">
        <ele>70.31</ele>
        <time>2014-11-23T09:34:05Z</time>
      </trkpt>
      <trkpt lat="48.39834" lon="2.78823">
        <ele>69.83</ele>
        <time>2014-11-23T09:34:12Z</time>
      </trkpt>
      <trkpt lat="48.39845" lon="2.78828">
        <ele>69.35</ele>
        <time>2014-11-23T09:34:20Z</time>
      </trkpt>
      <trkpt lat="48.39857" lon="2.78853">
        <ele>67.43</ele>
        <time>2014-11-23T09:34:36Z</time>
      </trkpt>
      <trkpt lat="48.39857" lon="2.78881">
        <ele>66.47</ele>
        <time>2014-11-23T09:34:50Z</time>
      </trkpt>
      <trkpt lat="48.39854" lon="2.78884">
        <ele>66.47</ele>
        <time>2014-11-23T09:35:05Z</time>
      </trkpt>
      <trkpt lat="48.39854" lon="2.78885">
        <ele>66.47</ele>
        <time>2014-11-23T09:35:31Z</time>
      </trkpt>
      <trkpt lat="48.39854" lon="2.78885">
        <ele>65.99</ele>
        <time>2014-11-23T09:35:55Z</time>
      </trkpt>
      <trkpt lat="48.39856" lon="2.78885">
        <ele>65.99</ele>
        <time>2014-11-23T09:36:09Z</time>
      </trkpt>
      <trkpt lat="48.39859" lon="2.78878">
        <ele>65.99</ele>
        <time>2014-11-23T09:36:25Z</time>
      </trkpt>
      <trkpt lat="48.39861" lon="2.78871">
        <ele>65.99</ele>
        <time>2014-11-23T09:36:33Z</time>
      </trkpt>
      <trkpt lat="48.39864" lon="2.7887">
        <ele>65.99</ele>
        <time>2014-11-23T09:36:45Z</time>
      </trkpt>
      <trkpt lat="48.39864" lon="2.7887">
        <ele>65.51</ele>
        <time>2014-11-23T09:36:50Z</time>
      </trkpt>
      <trkpt lat="48.39867" lon="2.78871">
        <ele>65.51</ele>
        <time>2014-11-23T09:36:53Z</time>
      </trkpt>
      <trkpt lat="48.39873" lon="2.78876">
        <ele>64.55</ele>
        <time>2014-11-23T09:36:59Z</time>
      </trkpt>
      <trkpt lat="48.39888" lon="2.78884">
        <ele>62.62</ele>
        <time>2014-11-23T09:37:12Z</time>
      </trkpt>
      <trkpt lat="48.3989" lon="2.78886">
        <ele>62.62</ele>
        <time>2014-11-23T09:37:14Z</time>
      </trkpt>
      <trkpt lat="48.39895" lon="2.78888">
        <ele>61.66</ele>
        <time>2014-11-23T09:37:18Z</time>
      </trkpt>
      <trkpt lat="48.39904" lon="2.78892">
        <ele>60.22</ele>
        <time>2014-11-23T09:37:25Z</time>
      </trkpt>
      <trkpt lat="48.39919" lon="2.78902">
        <ele>58.3</ele>
        <time>2014-11-23T09:37:37Z</time>
      </trkpt>
      <trkpt lat="48.39934" lon="2.78913">
        <ele>55.89</ele>
        <time>2014-11-23T09:37:49Z</time>
      </trkpt>
      <trkpt lat="48.39952" lon="2.78921">
        <ele>52.53</ele>
        <time>2014-11-23T09:38:03Z</time>
      </trkpt>
      <trkpt lat="48.39968" lon="2.78928">
        <ele>50.13</ele>
        <time>2014-11-23T09:38:14Z</time>
      </trkpt>
      <trkpt lat="48.39973" lon="2.78935">
        <ele>49.16</ele>
        <time>2014-11-23T09:38:19Z</time>
      </trkpt>
      <trkpt lat="48.39974" lon="2.78938">
        <ele>48.68</ele>
        <time>2014-11-23T09:38:21Z</time>
      </trkpt>
      <trkpt lat="48.39982" lon="2.78954">
        <ele>46.76</ele>
        <time>2014-11-23T09:38:32Z</time>
      </trkpt>
      <trkpt lat="48.39984" lon="2.78961">
        <ele>45.8</ele>
        <time>2014-11-23T09:38:36Z</time>
      </trkpt>
      <trkpt lat="48.39984" lon="2.7897">
        <ele>44.84</ele>
        <time>2014-11-23T09:38:42Z</time>
      </trkpt>
      <trkpt lat="48.39983" lon="2.7899">
        <ele>43.88</ele>
        <time>2014-11-23T09:38:55Z</time>
      </trkpt>
      <trkpt lat="48.39975" lon="2.79017">
        <ele>42.92</ele>
        <time>2014-11-23T09:39:08Z</time>
      </trkpt>
      <trkpt lat="48.39974" lon="2.79013">
        <ele>42.44</ele>
        <time>2014-11-23T09:39:25Z</time>
      </trkpt>
      <trkpt lat="48.39967" lon="2.79014">
        <ele>42.44</ele>
        <time>2014-11-23T09:39:30Z</time>
      </trkpt>
      <trkpt lat="48.39958" lon="2.79015">
        <ele>42.44</ele>
        <time>2014-11-23T09:39:36Z</time>
      </trkpt>
      <trkpt lat="48.39938" lon="2.7901">
        <ele>42.44</ele>
        <time>2014-11-23T09:39:52Z</time>
      </trkpt>
      <trkpt lat="48.3993" lon="2.79008">
        <ele>42.44</ele>
        <time>2014-11-23T09:39:59Z</time>
      </trkpt>
      <trkpt lat="48.39923" lon="2.79005">
        <ele>41.95</ele>
        <time>2014-11-23T09:40:05Z</time>
      </trkpt>
      <trkpt lat="48.39907" lon="2.78998">
        <ele>41.95</ele>
        <time>2014-11-23T09:40:18Z</time>
      </trkpt>
      <trkpt lat="48.39895" lon="2.78993">
        <ele>42.44</ele>
        <time>2014-11-23T09:40:27Z</time>
      </trkpt>
      <trkpt lat="48.3989" lon="2.7899">
        <ele>42.44</ele>
        <time>2014-11-23T09:40:32Z</time>
      </trkpt>
      <trkpt lat="48.39873" lon="2.78986">
        <ele>42.44</ele>
        <time>2014-11-23T09:40:47Z</time>
      </trkpt>
      <trkpt lat="48.39859" lon="2.78979">
        <ele>42.44</ele>
        <time>2014-11-23T09:40:57Z</time>
      </trkpt>
      <trkpt lat="48.39838" lon="2.78972">
        <ele>42.44</ele>
        <time>2014-11-23T09:41:16Z</time>
      </trkpt>
      <trkpt lat="48.39826" lon="2.78967">
        <ele>42.92</ele>
        <time>2014-11-23T09:41:26Z</time>
      </trkpt>
      <trkpt lat="48.39822" lon="2.78966">
        <ele>42.92</ele>
        <time>2014-11-23T09:41:30Z</time>
      </trkpt>
      <trkpt lat="48.39817" lon="2.78964">
        <ele>43.4</ele>
        <time>2014-11-23T09:41:34Z</time>
      </trkpt>
      <trkpt lat="48.39802" lon="2.78957">
        <ele>43.4</ele>
        <time>2014-11-23T09:41:47Z</time>
      </trkpt>
      <trkpt lat="48.39782" lon="2.78951">
        <ele>42.92</ele>
        <time>2014-11-23T09:42:04Z</time>
      </trkpt>
      <trkpt lat="48.3978" lon="2.7895">
        <ele>42.92</ele>
        <time>2014-11-23T09:42:06Z</time>
      </trkpt>
      <trkpt lat="48.39775" lon="2.78948">
        <ele>42.92</ele>
        <time>2014-11-23T09:42:10Z</time>
      </trkpt>
      <trkpt lat="48.39769" lon="2.78945">
        <ele>42.92</ele>
        <time>2014-11-23T09:42:15Z</time>
      </trkpt>
      <trkpt lat="48.3975" lon="2.78939">
        <ele>42.92</ele>
        <time>2014-11-23T09:42:30Z</time>
      </trkpt>
      <trkpt lat="48.39741" lon="2.78936">
        <ele>43.4</ele>
        <time>2014-11-23T09:42:42Z</time>
      </trkpt>
      <trkpt lat="48.39726" lon="2.78931">
        <ele>43.4</ele>
        <time>2014-11-23T09:42:55Z</time>
      </trkpt>
      <trkpt lat="48.39714" lon="2.78926">
        <ele>43.88</ele>
        <time>2014-11-23T09:43:06Z</time>
      </trkpt>
      <trkpt lat="48.3971" lon="2.78925">
        <ele>43.4</ele>
        <time>2014-11-23T09:43:09Z</time>
      </trkpt>
      <trkpt lat="48.3969" lon="2.78915">
        <ele>43.4</ele>
        <time>2014-11-23T09:43:24Z</time>
      </trkpt>
      <trkpt lat="48.39675" lon="2.78915">
        <ele>43.4</ele>
        <time>2014-11-23T09:43:40Z</time>
      </trkpt>
      <trkpt lat="48.39653" lon="2.78907">
        <ele>43.4</ele>
        <time>2014-11-23T09:43:57Z</time>
      </trkpt>
      <trkpt lat="48.39643" lon="2.78906">
        <ele>42.92</ele>
        <time>2014-11-23T09:44:04Z</time>
      </trkpt>
      <trkpt lat="48.39624" lon="2.78902">
        <ele>42.92</ele>
        <time>2014-11-23T09:44:19Z</time>
      </trkpt>
      <trkpt lat="48.39613" lon="2.789">
        <ele>42.92</ele>
        <time>2014-11-23T09:44:29Z</time>
      </trkpt>
      <trkpt lat="48.39596" lon="2.78896">
        <ele>42.92</ele>
        <time>2014-11-23T09:44:43Z</time>
      </trkpt>
      <trkpt lat="48.39591" lon="2.78896">
        <ele>42.92</ele>
        <time>2014-11-23T09:44:47Z</time>
      </trkpt>
      <trkpt lat="48.39585" lon="2.78893">
        <ele>42.44</ele>
        <time>2014-11-23T09:44:51Z</time>
      </trkpt>
      <trkpt lat="48.3958" lon="2.78892">
        <ele>42.92</ele>
        <time>2014-11-23T09:44:55Z</time>
      </trkpt>
      <trkpt lat="48.39578" lon="2.78893">
        <ele>42.92</ele>
        <time>2014-11-23T09:44:57Z</time>
      </trkpt>
      <trkpt lat="48.3956" lon="2.78889">
        <ele>42.92</ele>
        <time>2014-11-23T09:45:12Z</time>
      </trkpt>
      <trkpt lat="48.39542" lon="2.78888">
        <ele>42.92</ele>
        <time>2014-11-23T09:45:27Z</time>
      </trkpt>
      <trkpt lat="48.39537" lon="2.78888">
        <ele>42.92</ele>
        <time>2014-11-23T09:45:31Z</time>
      </trkpt>
      <trkpt lat="48.39519" lon="2.78884">
        <ele>43.4</ele>
        <time>2014-11-23T09:45:47Z</time>
      </trkpt>
      <trkpt lat="48.39512" lon="2.78883">
        <ele>43.4</ele>
        <time>2014-11-23T09:45:53Z</time>
      </trkpt>
      <trkpt lat="48.39492" lon="2.78881">
        <ele>43.4</ele>
        <time>2014-11-23T09:46:08Z</time>
      </trkpt>
      <trkpt lat="48.39472" lon="2.78878">
        <ele>43.4</ele>
        <time>2014-11-23T09:46:23Z</time>
      </trkpt>
      <trkpt lat="48.39447" lon="2.78874">
        <ele>43.4</ele>
        <time>2014-11-23T09:46:42Z</time>
      </trkpt>
      <trkpt lat="48.39426" lon="2.78872">
        <ele>43.4</ele>
        <time>2014-11-23T09:46:59Z</time>
      </trkpt>
      <trkpt lat="48.39408" lon="2.78871">
        <ele>43.88</ele>
        <time>2014-11-23T09:47:14Z</time>
      </trkpt>
      <trkpt lat="48.39382" lon="2.78871">
        <ele>43.88</ele>
        <time>2014-11-23T09:47:37Z</time>
      </trkpt>
      <trkpt lat="48.3936" lon="2.78868">
        <ele>43.88</ele>
        <time>2014-11-23T09:47:54Z</time>
      </trkpt>
      <trkpt lat="48.39342" lon="2.78867">
        <ele>43.88</ele>
        <time>2014-11-23T09:48:13Z</time>
      </trkpt>
      <trkpt lat="48.3932" lon="2.78871">
        <ele>43.4</ele>
        <time>2014-11-23T09:48:30Z</time>
      </trkpt>
      <trkpt lat="48.393" lon="2.78868">
        <ele>43.88</ele>
        <time>2014-11-23T09:48:46Z</time>
      </trkpt>
      <trkpt lat="48.39279" lon="2.78866">
        <ele>44.36</ele>
        <time>2014-11-23T09:49:05Z</time>
      </trkpt>
      <trkpt lat="48.39265" lon="2.78866">
        <ele>44.36</ele>
        <time>2014-11-23T09:49:21Z</time>
      </trkpt>
      <trkpt lat="48.39251" lon="2.78867">
        <ele>44.36</ele>
        <time>2014-11-23T09:49:35Z</time>
      </trkpt>
      <trkpt lat="48.39229" lon="2.78871">
        <ele>44.36</ele>
        <time>2014-11-23T09:49:51Z</time>
      </trkpt>
      <trkpt lat="48.39199" lon="2.78873">
        <ele>44.84</ele>
        <time>2014-11-23T09:50:11Z</time>
      </trkpt>
      <trkpt lat="48.39182" lon="2.7887">
        <ele>44.84</ele>
        <time>2014-11-23T09:50:26Z</time>
      </trkpt>
      <trkpt lat="48.39167" lon="2.78869">
        <ele>44.84</ele>
        <time>2014-11-23T09:50:42Z</time>
      </trkpt>
      <trkpt lat="48.39144" lon="2.78872">
        <ele>44.84</ele>
        <time>2014-11-23T09:51:02Z</time>
      </trkpt>
      <trkpt lat="48.39131" lon="2.78874">
        <ele>44.84</ele>
        <time>2014-11-23T09:51:19Z</time>
      </trkpt>
      <trkpt lat="48.39131" lon="2.78873">
        <ele>44.84</ele>
        <time>2014-11-23T09:51:27Z</time>
      </trkpt>
      <trkpt lat="48.39128" lon="2.78874">
        <ele>44.84</ele>
        <time>2014-11-23T09:51:29Z</time>
      </trkpt>
      <trkpt lat="48.39126" lon="2.78874">
        <ele>44.84</ele>
        <time>2014-11-23T09:51:31Z</time>
      </trkpt>
      <trkpt lat="48.39123" lon="2.78874">
        <ele>44.84</ele>
        <time>2014-11-23T09:51:33Z</time>
      </trkpt>
      <trkpt lat="48.39107" lon="2.78879">
        <ele>45.8</ele>
        <time>2014-11-23T09:51:47Z</time>
      </trkpt>
      <trkpt lat="48.39094" lon="2.78891">
        <ele>44.84</ele>
        <time>2014-11-23T09:52:00Z</time>
      </trkpt>
      <trkpt lat="48.39079" lon="2.78896">
        <ele>44.84</ele>
        <time>2014-11-23T09:52:13Z</time>
      </trkpt>
      <trkpt lat="48.39064" lon="2.78895">
        <ele>44.84</ele>
        <time>2014-11-23T09:52:27Z</time>
      </trkpt>
      <trkpt lat="48.39057" lon="2.78896">
        <ele>44.84</ele>
        <time>2014-11-23T09:52:34Z</time>
      </trkpt>
      <trkpt lat="48.3905" lon="2.78897">
        <ele>44.84</ele>
        <time>2014-11-23T09:52:39Z</time>
      </trkpt>
      <trkpt lat="48.39044" lon="2.78899">
        <ele>44.84</ele>
        <time>2014-11-23T09:52:43Z</time>
      </trkpt>
      <trkpt lat="48.39028" lon="2.78905">
        <ele>44.84</ele>
        <time>2014-11-23T09:52:56Z</time>
      </trkpt>
      <trkpt lat="48.39009" lon="2.78912">
        <ele>44.84</ele>
        <time>2014-11-23T09:53:10Z</time>
      </trkpt>
      <trkpt lat="48.3899" lon="2.78914">
        <ele>44.84</ele>
        <time>2014-11-23T09:53:25Z</time>
      </trkpt>
      <trkpt lat="48.38987" lon="2.78915">
        <ele>44.84</ele>
        <time>2014-11-23T09:53:28Z</time>
      </trkpt>
      <trkpt lat="48.38976" lon="2.7892">
        <ele>44.84</ele>
        <time>2014-11-23T09:53:37Z</time>
      </trkpt>
      <trkpt lat="48.38964" lon="2.78928">
        <ele>44.84</ele>
        <time>2014-11-23T09:53:47Z</time>
      </trkpt>
      <trkpt lat="48.38955" lon="2.78932">
        <ele>44.84</ele>
        <time>2014-11-23T09:53:54Z</time>
      </trkpt>
      <trkpt lat="48.38939" lon="2.78939">
        <ele>44.84</ele>
        <time>2014-11-23T09:54:11Z</time>
      </trkpt>
      <trkpt lat="48.38928" lon="2.78944">
        <ele>44.84</ele>
        <time>2014-11-23T09:54:19Z</time>
      </trkpt>
      <trkpt lat="48.3892" lon="2.78947">
        <ele>44.84</ele>
        <time>2014-11-23T09:54:24Z</time>
      </trkpt>
      <trkpt lat="48.38902" lon="2.7896">
        <ele>44.84</ele>
        <time>2014-11-23T09:54:40Z</time>
      </trkpt>
      <trkpt lat="48.38889" lon="2.7897">
        <ele>44.84</ele>
        <time>2014-11-23T09:54:54Z</time>
      </trkpt>
      <trkpt lat="48.38869" lon="2.78986">
        <ele>44.36</ele>
        <time>2014-11-23T09:55:11Z</time>
      </trkpt>
      <trkpt lat="48.38864" lon="2.78989">
        <ele>44.84</ele>
        <time>2014-11-23T09:55:16Z</time>
      </trkpt>
      <trkpt lat="48.38846" lon="2.79008">
        <ele>44.36</ele>
        <time>2014-11-23T09:55:33Z</time>
      </trkpt>
      <trkpt lat="48.38833" lon="2.79017">
        <ele>44.84</ele>
        <time>2014-11-23T09:55:48Z</time>
      </trkpt>
      <trkpt lat="48.38809" lon="2.79036">
        <ele>44.84</ele>
        <time>2014-11-23T09:56:07Z</time>
      </trkpt>
      <trkpt lat="48.38799" lon="2.79043">
        <ele>45.32</ele>
        <time>2014-11-23T09:56:19Z</time>
      </trkpt>
      <trkpt lat="48.38794" lon="2.79049">
        <ele>45.8</ele>
        <time>2014-11-23T09:56:23Z</time>
      </trkpt>
      <trkpt lat="48.38789" lon="2.79053">
        <ele>45.8</ele>
        <time>2014-11-23T09:56:26Z</time>
      </trkpt>
      <trkpt lat="48.38777" lon="2.79064">
        <ele>46.28</ele>
        <time>2014-11-23T09:56:39Z</time>
      </trkpt>
      <trkpt lat="48.38768" lon="2.79071">
        <ele>46.76</ele>
        <time>2014-11-23T09:56:51Z</time>
      </trkpt>
      <trkpt lat="48.38755" lon="2.79079">
        <ele>48.2</ele>
        <time>2014-11-23T09:57:05Z</time>
      </trkpt>
      <trkpt lat="48.38742" lon="2.79083">
        <ele>48.68</ele>
        <time>2014-11-23T09:57:20Z</time>
      </trkpt>
      <trkpt lat="48.38725" lon="2.79091">
        <ele>49.16</ele>
        <time>2014-11-23T09:57:31Z</time>
      </trkpt>
      <trkpt lat="48.3872" lon="2.79102">
        <ele>48.2</ele>
        <time>2014-11-23T09:57:44Z</time>
      </trkpt>
      <trkpt lat="48.3872" lon="2.79101">
        <ele>48.2</ele>
        <time>2014-11-23T09:58:08Z</time>
      </trkpt>
      <trkpt lat="48.38725" lon="2.79105">
        <ele>47.24</ele>
        <time>2014-11-23T09:58:21Z</time>
      </trkpt>
      <trkpt lat="48.38731" lon="2.79117">
        <ele>45.8</ele>
        <time>2014-11-23T09:58:33Z</time>
      </trkpt>
      <trkpt lat="48.38738" lon="2.79139">
        <ele>44.84</ele>
        <time>2014-11-23T09:58:47Z</time>
      </trkpt>
      <trkpt lat="48.38739" lon="2.79164">
        <ele>43.88</ele>
        <time>2014-11-23T09:59:02Z</time>
      </trkpt>
      <trkpt lat="48.38738" lon="2.79169">
        <ele>43.88</ele>
        <time>2014-11-23T09:59:05Z</time>
      </trkpt>
      <trkpt lat="48.38736" lon="2.79178">
        <ele>43.88</ele>
        <time>2014-11-23T09:59:10Z</time>
      </trkpt>
      <trkpt lat="48.38739" lon="2.79187">
        <ele>43.88</ele>
        <time>2014-11-23T09:59:14Z</time>
      </trkpt>
      <trkpt lat="48.38742" lon="2.79193">
        <ele>43.88</ele>
        <time>2014-11-23T09:59:29Z</time>
      </trkpt>
      <trkpt lat="48.38742" lon="2.79191">
        <ele>43.4</ele>
        <time>2014-11-23T09:59:39Z</time>
      </trkpt>
      <trkpt lat="48.38753" lon="2.79164">
        <ele>43.88</ele>
        <time>2014-11-23T09:59:53Z</time>
      </trkpt>
      <trkpt lat="48.38755" lon="2.79161">
        <ele>43.88</ele>
        <time>2014-11-23T10:00:17Z</time>
      </trkpt>
      <trkpt lat="48.38755" lon="2.79161">
        <ele>43.88</ele>
        <time>2014-11-23T10:00:19Z</time>
      </trkpt>
      <trkpt lat="48.38753" lon="2.79163">
        <ele>43.4</ele>
        <time>2014-11-23T10:00:21Z</time>
      </trkpt>
      <trkpt lat="48.3875" lon="2.79169">
        <ele>43.4</ele>
        <time>2014-11-23T10:00:25Z</time>
      </trkpt>
      <trkpt lat="48.38746" lon="2.79175">
        <ele>43.88</ele>
        <time>2014-11-23T10:00:29Z</time>
      </trkpt>
      <trkpt lat="48.38743" lon="2.79185">
        <ele>43.88</ele>
        <time>2014-11-23T10:00:35Z</time>
      </trkpt>
      <trkpt lat="48.38741" lon="2.79196">
        <ele>43.4</ele>
        <time>2014-11-23T10:00:51Z</time>
      </trkpt>
      <trkpt lat="48.3874" lon="2.79197">
        <ele>43.4</ele>
        <time>2014-11-23T10:00:56Z</time>
      </trkpt>
      <trkpt lat="48.38738" lon="2.79207">
        <ele>43.4</ele>
        <time>2014-11-23T10:01:07Z</time>
      </trkpt>
      <trkpt lat="48.38738" lon="2.79209">
        <ele>43.4</ele>
        <time>2014-11-23T10:01:09Z</time>
      </trkpt>
      <trkpt lat="48.38731" lon="2.7922">
        <ele>43.4</ele>
        <time>2014-11-23T10:01:24Z</time>
      </trkpt>
      <trkpt lat="48.38732" lon="2.79227">
        <ele>43.4</ele>
        <time>2014-11-23T10:01:40Z</time>
      </trkpt>
      <trkpt lat="48.38734" lon="2.79245">
        <ele>42.92</ele>
        <time>2014-11-23T10:01:52Z</time>
      </trkpt>
      <trkpt lat="48.38733" lon="2.79254">
        <ele>43.4</ele>
        <time>2014-11-23T10:02:05Z</time>
      </trkpt>
      <trkpt lat="48.38732" lon="2.79268">
        <ele>43.4</ele>
        <time>2014-11-23T10:02:20Z</time>
      </trkpt>
      <trkpt lat="48.38731" lon="2.79299">
        <ele>43.4</ele>
        <time>2014-11-23T10:02:35Z</time>
      </trkpt>
      <trkpt lat="48.3873" lon="2.79326">
        <ele>42.92</ele>
        <time>2014-11-23T10:02:50Z</time>
      </trkpt>
      <trkpt lat="48.38731" lon="2.79339">
        <ele>42.92</ele>
        <time>2014-11-23T10:02:55Z</time>
      </trkpt>
      <trkpt lat="48.38735" lon="2.79363">
        <ele>42.92</ele>
        <time>2014-11-23T10:03:10Z</time>
      </trkpt>
      <trkpt lat="48.38732" lon="2.79381">
        <ele>42.92</ele>
        <time>2014-11-23T10:03:23Z</time>
      </trkpt>
      <trkpt lat="48.38732" lon="2.79386">
        <ele>42.92</ele>
        <time>2014-11-23T10:03:27Z</time>
      </trkpt>
      <trkpt lat="48.38733" lon="2.79407">
        <ele>42.44</ele>
        <time>2014-11-23T10:03:39Z</time>
      </trkpt>
      <trkpt lat="48.38735" lon="2.79425">
        <ele>42.92</ele>
        <time>2014-11-23T10:03:52Z</time>
      </trkpt>
      <trkpt lat="48.38738" lon="2.79449">
        <ele>42.92</ele>
        <time>2014-11-23T10:04:04Z</time>
      </trkpt>
      <trkpt lat="48.38738" lon="2.79454">
        <ele>42.92</ele>
        <time>2014-11-23T10:04:07Z</time>
      </trkpt>
      <trkpt lat="48.38743" lon="2.79486">
        <ele>42.92</ele>
        <time>2014-11-23T10:04:23Z</time>
      </trkpt>
      <trkpt lat="48.38746" lon="2.79515">
        <ele>42.92</ele>
        <time>2014-11-23T10:04:40Z</time>
      </trkpt>
      <trkpt lat="48.38748" lon="2.79534">
        <ele>42.44</ele>
        <time>2014-11-23T10:04:49Z</time>
      </trkpt>
      <trkpt lat="48.38748" lon="2.7955">
        <ele>42.44</ele>
        <time>2014-11-23T10:04:57Z</time>
      </trkpt>
      <trkpt lat="48.38748" lon="2.79562">
        <ele>42.44</ele>
        <time>2014-11-23T10:05:03Z</time>
      </trkpt>
      <trkpt lat="48.38749" lon="2.79566">
        <ele>42.92</ele>
        <time>2014-11-23T10:05:05Z</time>
      </trkpt>
      <trkpt lat="48.38747" lon="2.79574">
        <ele>42.44</ele>
        <time>2014-11-23T10:05:09Z</time>
      </trkpt>
      <trkpt lat="48.38744" lon="2.796">
        <ele>42.92</ele>
        <time>2014-11-23T10:05:26Z</time>
      </trkpt>
      <trkpt lat="48.38744" lon="2.79624">
        <ele>41.47</ele>
        <time>2014-11-23T10:05:40Z</time>
      </trkpt>
      <trkpt lat="48.38747" lon="2.79637">
        <ele>41.47</ele>
        <time>2014-11-23T10:05:49Z</time>
      </trkpt>
      <trkpt lat="48.38751" lon="2.79647">
        <ele>41.47</ele>
        <time>2014-11-23T10:05:55Z</time>
      </trkpt>
      <trkpt lat="48.38752" lon="2.7967">
        <ele>41.95</ele>
        <time>2014-11-23T10:06:11Z</time>
      </trkpt>
      <trkpt lat="48.38754" lon="2.79697">
        <ele>41.47</ele>
        <time>2014-11-23T10:06:26Z</time>
      </trkpt>
      <trkpt lat="48.38752" lon="2.79731">
        <ele>41.47</ele>
        <time>2014-11-23T10:06:45Z</time>
      </trkpt>
      <trkpt lat="48.38751" lon="2.79741">
        <ele>42.44</ele>
        <time>2014-11-23T10:06:48Z</time>
      </trkpt>
      <trkpt lat="48.38751" lon="2.79753">
        <ele>41.47</ele>
        <time>2014-11-23T10:06:54Z</time>
      </trkpt>
      <trkpt lat="48.3875" lon="2.79774">
        <ele>41.47</ele>
        <time>2014-11-23T10:07:07Z</time>
      </trkpt>
      <trkpt lat="48.38752" lon="2.79787">
        <ele>41.95</ele>
        <time>2014-11-23T10:07:19Z</time>
      </trkpt>
      <trkpt lat="48.38753" lon="2.79811">
        <ele>42.44</ele>
        <time>2014-11-23T10:07:34Z</time>
      </trkpt>
      <trkpt lat="48.38753" lon="2.79832">
        <ele>42.92</ele>
        <time>2014-11-23T10:07:48Z</time>
      </trkpt>
      <trkpt lat="48.38754" lon="2.79857">
        <ele>42.44</ele>
        <time>2014-11-23T10:08:04Z</time>
      </trkpt>
      <trkpt lat="48.38748" lon="2.7989">
        <ele>42.44</ele>
        <time>2014-11-23T10:08:22Z</time>
      </trkpt>
      <trkpt lat="48.38745" lon="2.79924">
        <ele>42.44</ele>
        <time>2014-11-23T10:08:40Z</time>
      </trkpt>
      <trkpt lat="48.38744" lon="2.79936">
        <ele>42.44</ele>
        <time>2014-11-23T10:08:47Z</time>
      </trkpt>
      <trkpt lat="48.38743" lon="2.79963">
        <ele>41.95</ele>
        <time>2014-11-23T10:09:04Z</time>
      </trkpt>
      <trkpt lat="48.38739" lon="2.79994">
        <ele>42.44</ele>
        <time>2014-11-23T10:09:23Z</time>
      </trkpt>
      <trkpt lat="48.38739" lon="2.80002">
        <ele>42.44</ele>
        <time>2014-11-23T10:09:27Z</time>
      </trkpt>
      <trkpt lat="48.38735" lon="2.80032">
        <ele>42.44</ele>
        <time>2014-11-23T10:09:43Z</time>
      </trkpt>
      <trkpt lat="48.38732" lon="2.80055">
        <ele>42.44</ele>
        <time>2014-11-23T10:09:56Z</time>
      </trkpt>
      <trkpt lat="48.38731" lon="2.80075">
        <ele>42.44</ele>
        <time>2014-11-23T10:10:08Z</time>
      </trkpt>
      <trkpt lat="48.38727" lon="2.80099">
        <ele>42.92</ele>
        <time>2014-11-23T10:10:22Z</time>
      </trkpt>
      <trkpt lat="48.38723" lon="2.80121">
        <ele>42.92</ele>
        <time>2014-11-23T10:10:37Z</time>
      </trkpt>
      <trkpt lat="48.38723" lon="2.80122">
        <ele>42.44</ele>
        <time>2014-11-23T10:10:38Z</time>
      </trkpt>
      <trkpt lat="48.38722" lon="2.80126">
        <ele>42.92</ele>
        <time>2014-11-23T10:10:40Z</time>
      </trkpt>
      <trkpt lat="48.38712" lon="2.8015">
        <ele>42.92</ele>
        <time>2014-11-23T10:10:55Z</time>
      </trkpt>
      <trkpt lat="48.3871" lon="2.80152">
        <ele>42.44</ele>
        <time>2014-11-23T10:10:57Z</time>
      </trkpt>
      <trkpt lat="48.38705" lon="2.80155">
        <ele>42.44</ele>
        <time>2014-11-23T10:11:14Z</time>
      </trkpt>
      <trkpt lat="48.38703" lon="2.8016">
        <ele>42.44</ele>
        <time>2014-11-23T10:11:24Z</time>
      </trkpt>
      <trkpt lat="48.38695" lon="2.80171">
        <ele>41.95</ele>
        <time>2014-11-23T10:11:37Z</time>
      </trkpt>
      <trkpt lat="48.3869" lon="2.80179">
        <ele>42.44</ele>
        <time>2014-11-23T10:11:45Z</time>
      </trkpt>
      <trkpt lat="48.38688" lon="2.80182">
        <ele>42.44</ele>
        <time>2014-11-23T10:12:02Z</time>
      </trkpt>
      <trkpt lat="48.38685" lon="2.80184">
        <ele>42.44</ele>
        <time>2014-11-23T10:12:21Z</time>
      </trkpt>
      <trkpt lat="48.38669" lon="2.80194">
        <ele>41.95</ele>
        <time>2014-11-23T10:12:35Z</time>
      </trkpt>
      <trkpt lat="48.38668" lon="2.80197">
        <ele>41.95</ele>
        <time>2014-11-23T10:12:48Z</time>
      </trkpt>
      <trkpt lat="48.38666" lon="2.80197">
        <ele>41.95</ele>
        <time>2014-11-23T10:13:05Z</time>
      </trkpt>
      <trkpt lat="48.38663" lon="2.80197">
        <ele>41.95</ele>
        <time>2014-11-23T10:13:18Z</time>
      </trkpt>
      <trkpt lat="48.3866" lon="2.80195">
        <ele>41.95</ele>
        <time>2014-11-23T10:13:32Z</time>
      </trkpt>
      <trkpt lat="48.38657" lon="2.80194">
        <ele>41.95</ele>
        <time>2014-11-23T10:13:36Z</time>
      </trkpt>
      <trkpt lat="48.38646" lon="2.80193">
        <ele>42.44</ele>
        <time>2014-11-23T10:13:47Z</time>
      </trkpt>
      <trkpt lat="48.38639" lon="2.80197">
        <ele>42.44</ele>
        <time>2014-11-23T10:13:53Z</time>
      </trkpt>
      <trkpt lat="48.38637" lon="2.80199">
        <ele>42.44</ele>
        <time>2014-11-23T10:13:55Z</time>
      </trkpt>
      <trkpt lat="48.38631" lon="2.80201">
        <ele>42.44</ele>
        <time>2014-11-23T10:13:59Z</time>
      </trkpt>
      <trkpt lat="48.38629" lon="2.80202">
        <ele>42.44</ele>
        <time>2014-11-23T10:14:01Z</time>
      </trkpt>
      <trkpt lat="48.38626" lon="2.80204">
        <ele>42.44</ele>
        <time>2014-11-23T10:14:04Z</time>
      </trkpt>
      <trkpt lat="48.38612" lon="2.80216">
        <ele>41.95</ele>
        <time>2014-11-23T10:14:18Z</time>
      </trkpt>
      <trkpt lat="48.38608" lon="2.80234">
        <ele>41.95</ele>
        <time>2014-11-23T10:14:31Z</time>
      </trkpt>
      <trkpt lat="48.38607" lon="2.80234">
        <ele>42.44</ele>
        <time>2014-11-23T10:14:44Z</time>
      </trkpt>
      <trkpt lat="48.38603" lon="2.80238">
        <ele>41.95</ele>
        <time>2014-11-23T10:14:53Z</time>
      </trkpt>
      <trkpt lat="48.38595" lon="2.80249">
        <ele>41.95</ele>
        <time>2014-11-23T10:15:03Z</time>
      </trkpt>
      <trkpt lat="48.38585" lon="2.80259">
        <ele>41.95</ele>
        <time>2014-11-23T10:15:15Z</time>
      </trkpt>
      <trkpt lat="48.38584" lon="2.8026">
        <ele>41.95</ele>
        <time>2014-11-23T10:15:16Z</time>
      </trkpt>
      <trkpt lat="48.38573" lon="2.80278">
        <ele>42.44</ele>
        <time>2014-11-23T10:15:32Z</time>
      </trkpt>
      <trkpt lat="48.38563" lon="2.80292">
        <ele>42.92</ele>
        <time>2014-11-23T10:15:47Z</time>
      </trkpt>
      <trkpt lat="48.38554" lon="2.8031">
        <ele>41.95</ele>
        <time>2014-11-23T10:16:03Z</time>
      </trkpt>
      <trkpt lat="48.38546" lon="2.80328">
        <ele>42.44</ele>
        <time>2014-11-23T10:16:17Z</time>
      </trkpt>
      <trkpt lat="48.38543" lon="2.80337">
        <ele>42.44</ele>
        <time>2014-11-23T10:16:27Z</time>
      </trkpt>
      <trkpt lat="48.38532" lon="2.80357">
        <ele>41.95</ele>
        <time>2014-11-23T10:16:42Z</time>
      </trkpt>
      <trkpt lat="48.38524" lon="2.80374">
        <ele>42.44</ele>
        <time>2014-11-23T10:16:56Z</time>
      </trkpt>
      <trkpt lat="48.38524" lon="2.80385">
        <ele>41.95</ele>
        <time>2014-11-23T10:17:06Z</time>
      </trkpt>
      <trkpt lat="48.38521" lon="2.8039">
        <ele>41.95</ele>
        <time>2014-11-23T10:17:10Z</time>
      </trkpt>
      <trkpt lat="48.38517" lon="2.80403">
        <ele>41.95</ele>
        <time>2014-11-23T10:17:18Z</time>
      </trkpt>
      <trkpt lat="48.38511" lon="2.80415">
        <ele>42.44</ele>
        <time>2014-11-23T10:17:33Z</time>
      </trkpt>
      <trkpt lat="48.38506" lon="2.80423">
        <ele>41.95</ele>
        <time>2014-11-23T10:17:46Z</time>
      </trkpt>
      <trkpt lat="48.38502" lon="2.80434">
        <ele>42.44</ele>
        <time>2014-11-23T10:17:55Z</time>
      </trkpt>
      <trkpt lat="48.38493" lon="2.80458">
        <ele>42.44</ele>
        <time>2014-11-23T10:18:10Z</time>
      </trkpt>
      <trkpt lat="48.38492" lon="2.80465">
        <ele>41.95</ele>
        <time>2014-11-23T10:18:14Z</time>
      </trkpt>
      <trkpt lat="48.38488" lon="2.80479">
        <ele>42.44</ele>
        <time>2014-11-23T10:18:29Z</time>
      </trkpt>
      <trkpt lat="48.38489" lon="2.80479">
        <ele>41.95</ele>
        <time>2014-11-23T10:18:53Z</time>
      </trkpt>
      <trkpt lat="48.38488" lon="2.80478">
        <ele>41.95</ele>
        <time>2014-11-23T10:19:14Z</time>
      </trkpt>
      <trkpt lat="48.38488" lon="2.80479">
        <ele>41.95</ele>
        <time>2014-11-23T10:19:31Z</time>
      </trkpt>
      <trkpt lat="48.38485" lon="2.80481">
        <ele>41.95</ele>
        <time>2014-11-23T10:19:52Z</time>
      </trkpt>
      <trkpt lat="48.38484" lon="2.80483">
        <ele>41.95</ele>
        <time>2014-11-23T10:19:56Z</time>
      </trkpt>
      <trkpt lat="48.38472" lon="2.80509">
        <ele>41.47</ele>
        <time>2014-11-23T10:20:11Z</time>
      </trkpt>
      <trkpt lat="48.38471" lon="2.80511">
        <ele>41.47</ele>
        <time>2014-11-23T10:20:12Z</time>
      </trkpt>
      <trkpt lat="48.3846" lon="2.8053">
        <ele>41.47</ele>
        <time>2014-11-23T10:20:26Z</time>
      </trkpt>
      <trkpt lat="48.38457" lon="2.80533">
        <ele>41.47</ele>
        <time>2014-11-23T10:20:29Z</time>
      </trkpt>
      <trkpt lat="48.38446" lon="2.80546">
        <ele>41.47</ele>
        <time>2014-11-23T10:20:42Z</time>
      </trkpt>
      <trkpt lat="48.38446" lon="2.80544">
        <ele>41.95</ele>
        <time>2014-11-23T10:20:53Z</time>
      </trkpt>
      <trkpt lat="48.38445" lon="2.80543">
        <ele>41.95</ele>
        <time>2014-11-23T10:21:03Z</time>
      </trkpt>
      <trkpt lat="48.38431" lon="2.80532">
        <ele>41.95</ele>
        <time>2014-11-23T10:21:18Z</time>
      </trkpt>
      <trkpt lat="48.38424" lon="2.80523">
        <ele>41.95</ele>
        <time>2014-11-23T10:21:30Z</time>
      </trkpt>
      <trkpt lat="48.38411" lon="2.80511">
        <ele>42.44</ele>
        <time>2014-11-23T10:21:45Z</time>
      </trkpt>
      <trkpt lat="48.38409" lon="2.80512">
        <ele>42.44</ele>
        <time>2014-11-23T10:21:47Z</time>
      </trkpt>
      <trkpt lat="48.38405" lon="2.80517">
        <ele>42.44</ele>
        <time>2014-11-23T10:21:52Z</time>
      </trkpt>
      <trkpt lat="48.384" lon="2.80521">
        <ele>41.47</ele>
        <time>2014-11-23T10:21:57Z</time>
      </trkpt>
      <trkpt lat="48.38397" lon="2.80527">
        <ele>41.47</ele>
        <time>2014-11-23T10:22:01Z</time>
      </trkpt>
      <trkpt lat="48.38394" lon="2.80538">
        <ele>41.95</ele>
        <time>2014-11-23T10:22:10Z</time>
      </trkpt>
      <trkpt lat="48.38401" lon="2.80558">
        <ele>42.44</ele>
        <time>2014-11-23T10:22:24Z</time>
      </trkpt>
      <trkpt lat="48.3841" lon="2.80576">
        <ele>41.95</ele>
        <time>2014-11-23T10:22:38Z</time>
      </trkpt>
      <trkpt lat="48.38409" lon="2.80589">
        <ele>42.92</ele>
        <time>2014-11-23T10:22:52Z</time>
      </trkpt>
      <trkpt lat="48.38409" lon="2.80591">
        <ele>42.92</ele>
        <time>2014-11-23T10:23:09Z</time>
      </trkpt>
      <trkpt lat="48.38406" lon="2.80593">
        <ele>42.92</ele>
        <time>2014-11-23T10:23:31Z</time>
      </trkpt>
      <trkpt lat="48.38399" lon="2.80605">
        <ele>42.92</ele>
        <time>2014-11-23T10:23:45Z</time>
      </trkpt>
      <trkpt lat="48.38385" lon="2.80624">
        <ele>43.88</ele>
        <time>2014-11-23T10:24:04Z</time>
      </trkpt>
      <trkpt lat="48.38385" lon="2.80624">
        <ele>43.88</ele>
        <time>2014-11-23T10:24:08Z</time>
      </trkpt>
      <trkpt lat="48.38378" lon="2.80631">
        <ele>43.4</ele>
        <time>2014-11-23T10:24:15Z</time>
      </trkpt>
      <trkpt lat="48.38367" lon="2.80651">
        <ele>43.4</ele>
        <time>2014-11-23T10:24:30Z</time>
      </trkpt>
      <trkpt lat="48.3836" lon="2.80659">
        <ele>43.88</ele>
        <time>2014-11-23T10:24:41Z</time>
      </trkpt>
      <trkpt lat="48.38355" lon="2.80668">
        <ele>43.88</ele>
        <time>2014-11-23T10:24:49Z</time>
      </trkpt>
      <trkpt lat="48.38351" lon="2.80676">
        <ele>43.88</ele>
        <time>2014-11-23T10:24:59Z</time>
      </trkpt>
      <trkpt lat="48.38346" lon="2.80685">
        <ele>43.88</ele>
        <time>2014-11-23T10:25:07Z</time>
      </trkpt>
      <trkpt lat="48.38338" lon="2.807">
        <ele>43.88</ele>
        <time>2014-11-23T10:25:19Z</time>
      </trkpt>
      <trkpt lat="48.38328" lon="2.80712">
        <ele>43.88</ele>
        <time>2014-11-23T10:25:30Z</time>
      </trkpt>
      <trkpt lat="48.38323" lon="2.80718">
        <ele>43.88</ele>
        <time>2014-11-23T10:25:36Z</time>
      </trkpt>
      <trkpt lat="48.38318" lon="2.80726">
        <ele>43.88</ele>
        <time>2014-11-23T10:25:51Z</time>
      </trkpt>
      <trkpt lat="48.38315" lon="2.80727">
        <ele>43.88</ele>
        <time>2014-11-23T10:26:03Z</time>
      </trkpt>
      <trkpt lat="48.38309" lon="2.80735">
        <ele>43.88</ele>
        <time>2014-11-23T10:26:21Z</time>
      </trkpt>
      <trkpt lat="48.38303" lon="2.80745">
        <ele>43.88</ele>
        <time>2014-11-23T10:26:35Z</time>
      </trkpt>
      <trkpt lat="48.38302" lon="2.80746">
        <ele>44.36</ele>
        <time>2014-11-23T10:26:38Z</time>
      </trkpt>
      <trkpt lat="48.38301" lon="2.80748">
        <ele>44.36</ele>
        <time>2014-11-23T10:26:41Z</time>
      </trkpt>
      <trkpt lat="48.38295" lon="2.80764">
        <ele>44.84</ele>
        <time>2014-11-23T10:26:58Z</time>
      </trkpt>
      <trkpt lat="48.38291" lon="2.8077">
        <ele>45.32</ele>
        <time>2014-11-23T10:27:19Z</time>
      </trkpt>
      <trkpt lat="48.38291" lon="2.8077">
        <ele>45.32</ele>
        <time>2014-11-23T10:27:42Z</time>
      </trkpt>
      <trkpt lat="48.38289" lon="2.80773">
        <ele>45.32</ele>
        <time>2014-11-23T10:27:46Z</time>
      </trkpt>
      <trkpt lat="48.38283" lon="2.8078">
        <ele>45.32</ele>
        <time>2014-11-23T10:27:52Z</time>
      </trkpt>
      <trkpt lat="48.38272" lon="2.80795">
        <ele>45.32</ele>
        <time>2014-11-23T10:28:07Z</time>
      </trkpt>
      <trkpt lat="48.38271" lon="2.80795">
        <ele>45.32</ele>
        <time>2014-11-23T10:28:08Z</time>
      </trkpt>
      <trkpt lat="48.38267" lon="2.80801">
        <ele>45.8</ele>
        <time>2014-11-23T10:28:14Z</time>
      </trkpt>
      <trkpt lat="48.38262" lon="2.80808">
        <ele>46.28</ele>
        <time>2014-11-23T10:28:22Z</time>
      </trkpt>
      <trkpt lat="48.3825" lon="2.80824">
        <ele>46.28</ele>
        <time>2014-11-23T10:28:37Z</time>
      </trkpt>
      <trkpt lat="48.38241" lon="2.80838">
        <ele>46.76</ele>
        <time>2014-11-23T10:28:50Z</time>
      </trkpt>
      <trkpt lat="48.38226" lon="2.80855">
        <ele>46.28</ele>
        <time>2014-11-23T10:29:06Z</time>
      </trkpt>
      <trkpt lat="48.38216" lon="2.80869">
        <ele>46.76</ele>
        <time>2014-11-23T10:29:18Z</time>
      </trkpt>
      <trkpt lat="48.38203" lon="2.80888">
        <ele>46.76</ele>
        <time>2014-11-23T10:29:33Z</time>
      </trkpt>
      <trkpt lat="48.38193" lon="2.80904">
        <ele>46.76</ele>
        <time>2014-11-23T10:29:46Z</time>
      </trkpt>
      <trkpt lat="48.38192" lon="2.80906">
        <ele>46.76</ele>
        <time>2014-11-23T10:29:48Z</time>
      </trkpt>
      <trkpt lat="48.38187" lon="2.80914">
        <ele>46.76</ele>
        <time>2014-11-23T10:29:58Z</time>
      </trkpt>
      <trkpt lat="48.3818" lon="2.80926">
        <ele>46.76</ele>
        <time>2014-11-23T10:30:08Z</time>
      </trkpt>
      <trkpt lat="48.38166" lon="2.80944">
        <ele>46.76</ele>
        <time>2014-11-23T10:30:23Z</time>
      </trkpt>
      <trkpt lat="48.38164" lon="2.80949">
        <ele>46.76</ele>
        <time>2014-11-23T10:30:28Z</time>
      </trkpt>
      <trkpt lat="48.38158" lon="2.80961">
        <ele>46.76</ele>
        <time>2014-11-23T10:30:38Z</time>
      </trkpt>
      <trkpt lat="48.38141" lon="2.80986">
        <ele>46.76</ele>
        <time>2014-11-23T10:30:57Z</time>
      </trkpt>
      <trkpt lat="48.38136" lon="2.80996">
        <ele>47.24</ele>
        <time>2014-11-23T10:31:14Z</time>
      </trkpt>
      <trkpt lat="48.38125" lon="2.81014">
        <ele>47.24</ele>
        <time>2014-11-23T10:31:30Z</time>
      </trkpt>
      <trkpt lat="48.38113" lon="2.81035">
        <ele>47.24</ele>
        <time>2014-11-23T10:31:45Z</time>
      </trkpt>
      <trkpt lat="48.38109" lon="2.81043">
        <ele>47.24</ele>
        <time>2014-11-23T10:31:52Z</time>
      </trkpt>
      <trkpt lat="48.381" lon="2.81063">
        <ele>47.24</ele>
        <time>2014-11-23T10:32:06Z</time>
      </trkpt>
      <trkpt lat="48.38088" lon="2.81087">
        <ele>46.76</ele>
        <time>2014-11-23T10:32:23Z</time>
      </trkpt>
      <trkpt lat="48.38077" lon="2.81106">
        <ele>46.76</ele>
        <time>2014-11-23T10:32:38Z</time>
      </trkpt>
      <trkpt lat="48.38069" lon="2.81126">
        <ele>46.76</ele>
        <time>2014-11-23T10:32:54Z</time>
      </trkpt>
      <trkpt lat="48.38061" lon="2.81143">
        <ele>46.76</ele>
        <time>2014-11-23T10:33:08Z</time>
      </trkpt>
      <trkpt lat="48.3805" lon="2.81166">
        <ele>46.76</ele>
        <time>2014-11-23T10:33:26Z</time>
      </trkpt>
      <trkpt lat="48.38049" lon="2.81168">
        <ele>46.76</ele>
        <time>2014-11-23T10:33:29Z</time>
      </trkpt>
      <trkpt lat="48.38041" lon="2.81184">
        <ele>46.28</ele>
        <time>2014-11-23T10:33:44Z</time>
      </trkpt>
      <trkpt lat="48.38032" lon="2.81207">
        <ele>45.8</ele>
        <time>2014-11-23T10:34:00Z</time>
      </trkpt>
      <trkpt lat="48.38026" lon="2.81226">
        <ele>45.32</ele>
        <time>2014-11-23T10:34:12Z</time>
      </trkpt>
      <trkpt lat="48.3802" lon="2.81246">
        <ele>45.32</ele>
        <time>2014-11-23T10:34:25Z</time>
      </trkpt>
      <trkpt lat="48.38014" lon="2.81266">
        <ele>46.28</ele>
        <time>2014-11-23T10:34:36Z</time>
      </trkpt>
      <trkpt lat="48.38008" lon="2.81284">
        <ele>46.28</ele>
        <time>2014-11-23T10:34:51Z</time>
      </trkpt>
      <trkpt lat="48.37998" lon="2.8131">
        <ele>46.28</ele>
        <time>2014-11-23T10:35:08Z</time>
      </trkpt>
      <trkpt lat="48.37994" lon="2.81321">
        <ele>46.28</ele>
        <time>2014-11-23T10:35:16Z</time>
      </trkpt>
      <trkpt lat="48.37992" lon="2.81327">
        <ele>46.28</ele>
        <time>2014-11-23T10:35:19Z</time>
      </trkpt>
      <trkpt lat="48.37987" lon="2.81339">
        <ele>46.28</ele>
        <time>2014-11-23T10:35:27Z</time>
      </trkpt>
      <trkpt lat="48.37977" lon="2.8136">
        <ele>45.8</ele>
        <time>2014-11-23T10:35:41Z</time>
      </trkpt>
      <trkpt lat="48.37976" lon="2.81361">
        <ele>46.28</ele>
        <time>2014-11-23T10:35:44Z</time>
      </trkpt>
      <trkpt lat="48.37973" lon="2.81368">
        <ele>45.8</ele>
        <time>2014-11-23T10:35:49Z</time>
      </trkpt>
      <trkpt lat="48.3797" lon="2.81374">
        <ele>45.32</ele>
        <time>2014-11-23T10:35:53Z</time>
      </trkpt>
      <trkpt lat="48.37962" lon="2.81397">
        <ele>45.32</ele>
        <time>2014-11-23T10:36:08Z</time>
      </trkpt>
      <trkpt lat="48.37955" lon="2.81413">
        <ele>45.32</ele>
        <time>2014-11-23T10:36:21Z</time>
      </trkpt>
      <trkpt lat="48.37953" lon="2.81418">
        <ele>45.32</ele>
        <time>2014-11-23T10:36:24Z</time>
      </trkpt>
      <trkpt lat="48.3795" lon="2.81428">
        <ele>45.32</ele>
        <time>2014-11-23T10:36:31Z</time>
      </trkpt>
      <trkpt lat="48.37948" lon="2.81435">
        <ele>45.32</ele>
        <time>2014-11-23T10:36:36Z</time>
      </trkpt>
      <trkpt lat="48.37942" lon="2.81447">
        <ele>45.32</ele>
        <time>2014-11-23T10:36:44Z</time>
      </trkpt>
      <trkpt lat="48.37937" lon="2.81458">
        <ele>45.32</ele>
        <time>2014-11-23T10:36:55Z</time>
      </trkpt>
      <trkpt lat="48.37933" lon="2.81465">
        <ele>45.32</ele>
        <time>2014-11-23T10:37:00Z</time>
      </trkpt>
      <trkpt lat="48.37925" lon="2.81481">
        <ele>45.32</ele>
        <time>2014-11-23T10:37:15Z</time>
      </trkpt>
      <trkpt lat="48.37922" lon="2.8149">
        <ele>45.32</ele>
        <time>2014-11-23T10:37:25Z</time>
      </trkpt>
      <trkpt lat="48.37914" lon="2.81511">
        <ele>45.8</ele>
        <time>2014-11-23T10:37:39Z</time>
      </trkpt>
      <trkpt lat="48.37907" lon="2.81525">
        <ele>45.8</ele>
        <time>2014-11-23T10:37:50Z</time>
      </trkpt>
      <trkpt lat="48.37902" lon="2.81539">
        <ele>44.84</ele>
        <time>2014-11-23T10:38:00Z</time>
      </trkpt>
      <trkpt lat="48.37893" lon="2.81558">
        <ele>45.32</ele>
        <time>2014-11-23T10:38:13Z</time>
      </trkpt>
      <trkpt lat="48.37887" lon="2.81576">
        <ele>44.84</ele>
        <time>2014-11-23T10:38:27Z</time>
      </trkpt>
      <trkpt lat="48.3788" lon="2.81592">
        <ele>44.36</ele>
        <time>2014-11-23T10:38:40Z</time>
      </trkpt>
      <trkpt lat="48.37874" lon="2.81611">
        <ele>43.88</ele>
        <time>2014-11-23T10:38:53Z</time>
      </trkpt>
      <trkpt lat="48.37873" lon="2.81614">
        <ele>43.88</ele>
        <time>2014-11-23T10:38:55Z</time>
      </trkpt>
      <trkpt lat="48.37866" lon="2.81626">
        <ele>43.88</ele>
        <time>2014-11-23T10:39:07Z</time>
      </trkpt>
      <trkpt lat="48.37865" lon="2.81632">
        <ele>43.4</ele>
        <time>2014-11-23T10:39:12Z</time>
      </trkpt>
      <trkpt lat="48.37851" lon="2.81656">
        <ele>42.92</ele>
        <time>2014-11-23T10:39:26Z</time>
      </trkpt>
      <trkpt lat="48.37845" lon="2.81671">
        <ele>42.44</ele>
        <time>2014-11-23T10:39:34Z</time>
      </trkpt>
      <trkpt lat="48.37836" lon="2.81683">
        <ele>42.44</ele>
        <time>2014-11-23T10:39:41Z</time>
      </trkpt>
      <trkpt lat="48.37833" lon="2.81689">
        <ele>42.44</ele>
        <time>2014-11-23T10:39:45Z</time>
      </trkpt>
      <trkpt lat="48.37825" lon="2.81705">
        <ele>41.95</ele>
        <time>2014-11-23T10:39:58Z</time>
      </trkpt>
      <trkpt lat="48.37812" lon="2.81725">
        <ele>41.47</ele>
        <time>2014-11-23T10:40:11Z</time>
      </trkpt>
      <trkpt lat="48.37804" lon="2.81738">
        <ele>41.95</ele>
        <time>2014-11-23T10:40:24Z</time>
      </trkpt>
      <trkpt lat="48.37804" lon="2.81739">
        <ele>41.47</ele>
        <time>2014-11-23T10:40:41Z</time>
      </trkpt>
      <trkpt lat="48.37805" lon="2.81739">
        <ele>41.47</ele>
        <time>2014-11-23T10:41:03Z</time>
      </trkpt>
      <trkpt lat="48.37802" lon="2.81744">
        <ele>40.99</ele>
        <time>2014-11-23T10:41:16Z</time>
      </trkpt>
      <trkpt lat="48.37799" lon="2.81747">
        <ele>40.99</ele>
        <time>2014-11-23T10:41:19Z</time>
      </trkpt>
      <trkpt lat="48.37794" lon="2.81756">
        <ele>40.99</ele>
        <time>2014-11-23T10:41:27Z</time>
      </trkpt>
      <trkpt lat="48.37775" lon="2.81778">
        <ele>40.99</ele>
        <time>2014-11-23T10:41:43Z</time>
      </trkpt>
      <trkpt lat="48.37769" lon="2.81786">
        <ele>41.47</ele>
        <time>2014-11-23T10:41:50Z</time>
      </trkpt>
      <trkpt lat="48.37767" lon="2.81789">
        <ele>40.99</ele>
        <time>2014-11-23T10:41:52Z</time>
      </trkpt>
      <trkpt lat="48.37753" lon="2.81803">
        <ele>40.99</ele>
        <time>2014-11-23T10:42:07Z</time>
      </trkpt>
      <trkpt lat="48.37736" lon="2.81817">
        <ele>40.99</ele>
        <time>2014-11-23T10:42:25Z</time>
      </trkpt>
      <trkpt lat="48.37725" lon="2.81824">
        <ele>40.99</ele>
        <time>2014-11-23T10:42:38Z</time>
      </trkpt>
      <trkpt lat="48.37707" lon="2.81835">
        <ele>40.99</ele>
        <time>2014-11-23T10:42:54Z</time>
      </trkpt>
      <trkpt lat="48.37696" lon="2.81841">
        <ele>40.51</ele>
        <time>2014-11-23T10:43:04Z</time>
      </trkpt>
      <trkpt lat="48.37691" lon="2.81842">
        <ele>40.51</ele>
        <time>2014-11-23T10:43:09Z</time>
      </trkpt>
      <trkpt lat="48.37667" lon="2.81857">
        <ele>40.51</ele>
        <time>2014-11-23T10:43:29Z</time>
      </trkpt>
      <trkpt lat="48.37651" lon="2.81859">
        <ele>40.51</ele>
        <time>2014-11-23T10:43:42Z</time>
      </trkpt>
      <trkpt lat="48.37645" lon="2.81859">
        <ele>40.51</ele>
        <time>2014-11-23T10:43:47Z</time>
      </trkpt>
      <trkpt lat="48.37643" lon="2.81858">
        <ele>40.51</ele>
        <time>2014-11-23T10:43:49Z</time>
      </trkpt>
      <trkpt lat="48.37622" lon="2.81861">
        <ele>40.51</ele>
        <time>2014-11-23T10:44:06Z</time>
      </trkpt>
      <trkpt lat="48.37605" lon="2.81861">
        <ele>40.03</ele>
        <time>2014-11-23T10:44:22Z</time>
      </trkpt>
      <trkpt lat="48.37583" lon="2.81867">
        <ele>40.51</ele>
        <time>2014-11-23T10:44:39Z</time>
      </trkpt>
      <trkpt lat="48.37561" lon="2.81868">
        <ele>40.51</ele>
        <time>2014-11-23T10:44:55Z</time>
      </trkpt>
      <trkpt lat="48.37551" lon="2.81869">
        <ele>40.51</ele>
        <time>2014-11-23T10:45:06Z</time>
      </trkpt>
      <trkpt lat="48.37541" lon="2.81867">
        <ele>40.51</ele>
        <time>2014-11-23T10:45:15Z</time>
      </trkpt>
      <trkpt lat="48.37519" lon="2.81868">
        <ele>40.51</ele>
        <time>2014-11-23T10:45:32Z</time>
      </trkpt>
      <trkpt lat="48.37505" lon="2.81866">
        <ele>40.51</ele>
        <time>2014-11-23T10:45:43Z</time>
      </trkpt>
      <trkpt lat="48.37483" lon="2.81864">
        <ele>40.51</ele>
        <time>2014-11-23T10:46:02Z</time>
      </trkpt>
      <trkpt lat="48.37461" lon="2.8187">
        <ele>40.99</ele>
        <time>2014-11-23T10:46:20Z</time>
      </trkpt>
      <trkpt lat="48.37453" lon="2.81871">
        <ele>40.99</ele>
        <time>2014-11-23T10:46:27Z</time>
      </trkpt>
      <trkpt lat="48.37449" lon="2.81873">
        <ele>40.99</ele>
        <time>2014-11-23T10:46:30Z</time>
      </trkpt>
      <trkpt lat="48.37441" lon="2.81883">
        <ele>41.47</ele>
        <time>2014-11-23T10:46:42Z</time>
      </trkpt>
      <trkpt lat="48.37442" lon="2.81883">
        <ele>40.51</ele>
        <time>2014-11-23T10:46:59Z</time>
      </trkpt>
      <trkpt lat="48.37442" lon="2.81883">
        <ele>40.51</ele>
        <time>2014-11-23T10:47:16Z</time>
      </trkpt>
      <trkpt lat="48.37443" lon="2.81884">
        <ele>40.51</ele>
        <time>2014-11-23T10:47:30Z</time>
      </trkpt>
      <trkpt lat="48.37443" lon="2.81884">
        <ele>40.51</ele>
        <time>2014-11-23T10:47:53Z</time>
      </trkpt>
      <trkpt lat="48.37443" lon="2.81883">
        <ele>40.51</ele>
        <time>2014-11-23T10:48:13Z</time>
      </trkpt>
      <trkpt lat="48.37443" lon="2.81883">
        <ele>40.03</ele>
        <time>2014-11-23T10:48:28Z</time>
      </trkpt>
      <trkpt lat="48.37443" lon="2.81883">
        <ele>40.03</ele>
        <time>2014-11-23T10:48:48Z</time>
      </trkpt>
      <trkpt lat="48.37444" lon="2.81882">
        <ele>40.03</ele>
        <time>2014-11-23T10:49:11Z</time>
      </trkpt>
      <trkpt lat="48.37444" lon="2.81882">
        <ele>40.03</ele>
        <time>2014-11-23T10:49:32Z</time>
      </trkpt>
      <trkpt lat="48.37443" lon="2.81882">
        <ele>40.03</ele>
        <time>2014-11-23T10:49:45Z</time>
      </trkpt>
      <trkpt lat="48.37443" lon="2.81882">
        <ele>40.03</ele>
        <time>2014-11-23T10:49:52Z</time>
      </trkpt>
      <trkpt lat="48.37442" lon="2.81882">
        <ele>40.03</ele>
        <time>2014-11-23T10:49:54Z</time>
      </trkpt>
      <trkpt lat="48.37429" lon="2.81883">
        <ele>40.03</ele>
        <time>2014-11-23T10:50:04Z</time>
      </trkpt>
      <trkpt lat="48.37422" lon="2.81884">
        <ele>40.03</ele>
        <time>2014-11-23T10:50:13Z</time>
      </trkpt>
      <trkpt lat="48.37417" lon="2.81884">
        <ele>40.03</ele>
        <time>2014-11-23T10:50:17Z</time>
      </trkpt>
      <trkpt lat="48.37399" lon="2.81895">
        <ele>40.03</ele>
        <time>2014-11-23T10:50:33Z</time>
      </trkpt>
      <trkpt lat="48.37384" lon="2.81901">
        <ele>40.51</ele>
        <time>2014-11-23T10:50:45Z</time>
      </trkpt>
      <trkpt lat="48.37368" lon="2.81904">
        <ele>40.51</ele>
        <time>2014-11-23T10:50:59Z</time>
      </trkpt>
      <trkpt lat="48.37356" lon="2.81904">
        <ele>40.51</ele>
        <time>2014-11-23T10:51:11Z</time>
      </trkpt>
      <trkpt lat="48.37347" lon="2.81905">
        <ele>40.51</ele>
        <time>2014-11-23T10:51:26Z</time>
      </trkpt>
      <trkpt lat="48.3733" lon="2.8191">
        <ele>40.51</ele>
        <time>2014-11-23T10:51:40Z</time>
      </trkpt>
      <trkpt lat="48.37323" lon="2.8191">
        <ele>40.51</ele>
        <time>2014-11-23T10:51:45Z</time>
      </trkpt>
      <trkpt lat="48.37319" lon="2.81909">
        <ele>40.51</ele>
        <time>2014-11-23T10:51:49Z</time>
      </trkpt>
      <trkpt lat="48.37303" lon="2.81904">
        <ele>40.51</ele>
        <time>2014-11-23T10:52:03Z</time>
      </trkpt>
      <trkpt lat="48.373" lon="2.81902">
        <ele>40.03</ele>
        <time>2014-11-23T10:52:07Z</time>
      </trkpt>
      <trkpt lat="48.37287" lon="2.8189">
        <ele>39.55</ele>
        <time>2014-11-23T10:52:22Z</time>
      </trkpt>
      <trkpt lat="48.37288" lon="2.81893">
        <ele>40.03</ele>
        <time>2014-11-23T10:52:38Z</time>
      </trkpt>
      <trkpt lat="48.37288" lon="2.81892">
        <ele>40.03</ele>
        <time>2014-11-23T10:52:58Z</time>
      </trkpt>
      <trkpt lat="48.37288" lon="2.81893">
        <ele>40.03</ele>
        <time>2014-11-23T10:53:14Z</time>
      </trkpt>
      <trkpt lat="48.37288" lon="2.81893">
        <ele>40.03</ele>
        <time>2014-11-23T10:53:30Z</time>
      </trkpt>
      <trkpt lat="48.37288" lon="2.81893">
        <ele>40.03</ele>
        <time>2014-11-23T10:53:46Z</time>
      </trkpt>
      <trkpt lat="48.37289" lon="2.81893">
        <ele>40.03</ele>
        <time>2014-11-23T10:54:03Z</time>
      </trkpt>
      <trkpt lat="48.37289" lon="2.81893">
        <ele>40.51</ele>
        <time>2014-11-23T10:54:27Z</time>
      </trkpt>
      <trkpt lat="48.37288" lon="2.81886">
        <ele>40.99</ele>
        <time>2014-11-23T10:54:45Z</time>
      </trkpt>
      <trkpt lat="48.37287" lon="2.81885">
        <ele>40.51</ele>
        <time>2014-11-23T10:55:07Z</time>
      </trkpt>
      <trkpt lat="48.37284" lon="2.81883">
        <ele>40.51</ele>
        <time>2014-11-23T10:55:22Z</time>
      </trkpt>
      <trkpt lat="48.3728" lon="2.81879">
        <ele>40.51</ele>
        <time>2014-11-23T10:55:26Z</time>
      </trkpt>
      <trkpt lat="48.37267" lon="2.81857">
        <ele>40.51</ele>
        <time>2014-11-23T10:55:41Z</time>
      </trkpt>
      <trkpt lat="48.37259" lon="2.81869">
        <ele>40.99</ele>
        <time>2014-11-23T10:55:54Z</time>
      </trkpt>
      <trkpt lat="48.3726" lon="2.81869">
        <ele>40.99</ele>
        <time>2014-11-23T10:56:17Z</time>
      </trkpt>
      <trkpt lat="48.3726" lon="2.8187">
        <ele>40.99</ele>
        <time>2014-11-23T10:56:38Z</time>
      </trkpt>
      <trkpt lat="48.37257" lon="2.81872">
        <ele>40.99</ele>
        <time>2014-11-23T10:56:52Z</time>
      </trkpt>
      <trkpt lat="48.37256" lon="2.81871">
        <ele>40.99</ele>
        <time>2014-11-23T10:57:11Z</time>
      </trkpt>
      <trkpt lat="48.37256" lon="2.81872">
        <ele>40.99</ele>
        <time>2014-11-23T10:57:30Z</time>
      </trkpt>
      <trkpt lat="48.37256" lon="2.81872">
        <ele>40.51</ele>
        <time>2014-11-23T10:57:43Z</time>
      </trkpt>
      <trkpt lat="48.37251" lon="2.81863">
        <ele>42.92</ele>
        <time>2014-11-23T10:57:59Z</time>
      </trkpt>
      <trkpt lat="48.37251" lon="2.81863">
        <ele>43.4</ele>
        <time>2014-11-23T10:58:01Z</time>
      </trkpt>
      <trkpt lat="48.37257" lon="2.81856">
        <ele>43.88</ele>
        <time>2014-11-23T10:58:14Z</time>
      </trkpt>
      <trkpt lat="48.37257" lon="2.81856">
        <ele>43.88</ele>
        <time>2014-11-23T10:58:30Z</time>
      </trkpt>
      <trkpt lat="48.37257" lon="2.81854">
        <ele>43.88</ele>
        <time>2014-11-23T10:58:49Z</time>
      </trkpt>
      <trkpt lat="48.37257" lon="2.81855">
        <ele>43.88</ele>
        <time>2014-11-23T10:59:11Z</time>
      </trkpt>
      <trkpt lat="48.37258" lon="2.81856">
        <ele>43.88</ele>
        <time>2014-11-23T10:59:33Z</time>
      </trkpt>
      <trkpt lat="48.37271" lon="2.81858">
        <ele>44.36</ele>
        <time>2014-11-23T10:59:51Z</time>
      </trkpt>
      <trkpt lat="48.37261" lon="2.81894">
        <ele>44.84</ele>
        <time>2014-11-23T11:00:12Z</time>
      </trkpt>
      <trkpt lat="48.37259" lon="2.81903">
        <ele>44.84</ele>
        <time>2014-11-23T11:00:17Z</time>
      </trkpt>
      <trkpt lat="48.37255" lon="2.81933">
        <ele>44.84</ele>
        <time>2014-11-23T11:00:31Z</time>
      </trkpt>
      <trkpt lat="48.37252" lon="2.81949">
        <ele>45.32</ele>
        <time>2014-11-23T11:00:46Z</time>
      </trkpt>
      <trkpt lat="48.37253" lon="2.8196">
        <ele>45.32</ele>
        <time>2014-11-23T11:01:01Z</time>
      </trkpt>
      <trkpt lat="48.37253" lon="2.81962">
        <ele>45.32</ele>
        <time>2014-11-23T11:01:19Z</time>
      </trkpt>
      <trkpt lat="48.37252" lon="2.81973">
        <ele>45.32</ele>
        <time>2014-11-23T11:01:26Z</time>
      </trkpt>
      <trkpt lat="48.37251" lon="2.81998">
        <ele>45.32</ele>
        <time>2014-11-23T11:01:41Z</time>
      </trkpt>
      <trkpt lat="48.3725" lon="2.82019">
        <ele>45.32</ele>
        <time>2014-11-23T11:01:54Z</time>
      </trkpt>
      <trkpt lat="48.37246" lon="2.82034">
        <ele>44.84</ele>
        <time>2014-11-23T11:02:07Z</time>
      </trkpt>
      <trkpt lat="48.37244" lon="2.82032">
        <ele>43.4</ele>
        <time>2014-11-23T11:02:15Z</time>
      </trkpt>
      <trkpt lat="48.37245" lon="2.82036">
        <ele>40.51</ele>
        <time>2014-11-23T11:02:28Z</time>
      </trkpt>
      <trkpt lat="48.37244" lon="2.82026">
        <ele>40.99</ele>
        <time>2014-11-23T11:02:40Z</time>
      </trkpt>
      <trkpt lat="48.37244" lon="2.82024">
        <ele>40.99</ele>
        <time>2014-11-23T11:02:52Z</time>
      </trkpt>
      <trkpt lat="48.37243" lon="2.82021">
        <ele>40.99</ele>
        <time>2014-11-23T11:03:11Z</time>
      </trkpt>
      <trkpt lat="48.37242" lon="2.82019">
        <ele>40.51</ele>
        <time>2014-11-23T11:03:30Z</time>
      </trkpt>
      <trkpt lat="48.37241" lon="2.82016">
        <ele>40.51</ele>
        <time>2014-11-23T11:03:40Z</time>
      </trkpt>
      <trkpt lat="48.37241" lon="2.82019">
        <ele>40.99</ele>
        <time>2014-11-23T11:03:57Z</time>
      </trkpt>
      <trkpt lat="48.37241" lon="2.82016">
        <ele>40.99</ele>
        <time>2014-11-23T11:04:16Z</time>
      </trkpt>
      <trkpt lat="48.37239" lon="2.82012">
        <ele>40.99</ele>
        <time>2014-11-23T11:04:37Z</time>
      </trkpt>
      <trkpt lat="48.37237" lon="2.82009">
        <ele>40.99</ele>
        <time>2014-11-23T11:05:00Z</time>
      </trkpt>
      <trkpt lat="48.37243" lon="2.82025">
        <ele>40.99</ele>
        <time>2014-11-23T11:05:16Z</time>
      </trkpt>
      <trkpt lat="48.37241" lon="2.82028">
        <ele>43.4</ele>
        <time>2014-11-23T11:05:30Z</time>
      </trkpt>
      <trkpt lat="48.37241" lon="2.82032">
        <ele>44.84</ele>
        <time>2014-11-23T11:05:43Z</time>
      </trkpt>
      <trkpt lat="48.37243" lon="2.82051">
        <ele>44.36</ele>
        <time>2014-11-23T11:05:57Z</time>
      </trkpt>
      <trkpt lat="48.3724" lon="2.8206">
        <ele>43.88</ele>
        <time>2014-11-23T11:06:12Z</time>
      </trkpt>
      <trkpt lat="48.3724" lon="2.82074">
        <ele>43.88</ele>
        <time>2014-11-23T11:06:24Z</time>
      </trkpt>
      <trkpt lat="48.37247" lon="2.82089">
        <ele>42.92</ele>
        <time>2014-11-23T11:06:37Z</time>
      </trkpt>
      <trkpt lat="48.37251" lon="2.82094">
        <ele>41.95</ele>
        <time>2014-11-23T11:06:52Z</time>
      </trkpt>
      <trkpt lat="48.37253" lon="2.82092">
        <ele>40.99</ele>
        <time>2014-11-23T11:07:09Z</time>
      </trkpt>
      <trkpt lat="48.37263" lon="2.82086">
        <ele>40.51</ele>
        <time>2014-11-23T11:07:23Z</time>
      </trkpt>
      <trkpt lat="48.37266" lon="2.82082">
        <ele>40.51</ele>
        <time>2014-11-23T11:07:25Z</time>
      </trkpt>
      <trkpt lat="48.37285" lon="2.82073">
        <ele>40.51</ele>
        <time>2014-11-23T11:07:37Z</time>
      </trkpt>
      <trkpt lat="48.37302" lon="2.82061">
        <ele>40.51</ele>
        <time>2014-11-23T11:07:53Z</time>
      </trkpt>
      <trkpt lat="48.37325" lon="2.8205">
        <ele>40.51</ele>
        <time>2014-11-23T11:08:06Z</time>
      </trkpt>
      <trkpt lat="48.37334" lon="2.82046">
        <ele>40.51</ele>
        <time>2014-11-23T11:08:14Z</time>
      </trkpt>
      <trkpt lat="48.37346" lon="2.8204">
        <ele>40.51</ele>
        <time>2014-11-23T11:08:25Z</time>
      </trkpt>
      <trkpt lat="48.37355" lon="2.82033">
        <ele>40.51</ele>
        <time>2014-11-23T11:08:33Z</time>
      </trkpt>
      <trkpt lat="48.3737" lon="2.82015">
        <ele>40.03</ele>
        <time>2014-11-23T11:08:48Z</time>
      </trkpt>
      <trkpt lat="48.37371" lon="2.82014">
        <ele>40.03</ele>
        <time>2014-11-23T11:08:49Z</time>
      </trkpt>
      <trkpt lat="48.37384" lon="2.82006">
        <ele>40.03</ele>
        <time>2014-11-23T11:09:00Z</time>
      </trkpt>
      <trkpt lat="48.37393" lon="2.82007">
        <ele>38.11</ele>
        <time>2014-11-23T11:09:14Z</time>
      </trkpt>
      <trkpt lat="48.37395" lon="2.82005">
        <ele>39.55</ele>
        <time>2014-11-23T11:09:30Z</time>
      </trkpt>
      <trkpt lat="48.37396" lon="2.82005">
        <ele>40.03</ele>
        <time>2014-11-23T11:09:53Z</time>
      </trkpt>
      <trkpt lat="48.37396" lon="2.82006">
        <ele>39.07</ele>
        <time>2014-11-23T11:10:05Z</time>
      </trkpt>
      <trkpt lat="48.37397" lon="2.82004">
        <ele>40.03</ele>
        <time>2014-11-23T11:10:21Z</time>
      </trkpt>
      <trkpt lat="48.37397" lon="2.82004">
        <ele>39.07</ele>
        <time>2014-11-23T11:10:39Z</time>
      </trkpt>
      <trkpt lat="48.37395" lon="2.82005">
        <ele>39.07</ele>
        <time>2014-11-23T11:10:57Z</time>
      </trkpt>
      <trkpt lat="48.37396" lon="2.82005">
        <ele>39.07</ele>
        <time>2014-11-23T11:11:15Z</time>
      </trkpt>
      <trkpt lat="48.37395" lon="2.82007">
        <ele>39.07</ele>
        <time>2014-11-23T11:11:31Z</time>
      </trkpt>
      <trkpt lat="48.37396" lon="2.82008">
        <ele>39.55</ele>
        <time>2014-11-23T11:11:53Z</time>
      </trkpt>
      <trkpt lat="48.37396" lon="2.82008">
        <ele>39.07</ele>
        <time>2014-11-23T11:12:18Z</time>
      </trkpt>
      <trkpt lat="48.37396" lon="2.82008">
        <ele>39.07</ele>
        <time>2014-11-23T11:12:43Z</time>
      </trkpt>
      <trkpt lat="48.37396" lon="2.82008">
        <ele>39.07</ele>
        <time>2014-11-23T11:13:04Z</time>
      </trkpt>
      <trkpt lat="48.37396" lon="2.82007">
        <ele>39.07</ele>
        <time>2014-11-23T11:13:24Z</time>
      </trkpt>
      <trkpt lat="48.37396" lon="2.82007">
        <ele>39.55</ele>
        <time>2014-11-23T11:13:39Z</time>
      </trkpt>
      <trkpt lat="48.37396" lon="2.82008">
        <ele>39.55</ele>
        <time>2014-11-23T11:13:59Z</time>
      </trkpt>
      <trkpt lat="48.37396" lon="2.82008">
        <ele>39.55</ele>
        <time>2014-11-23T11:14:29Z</time>
      </trkpt>
      <trkpt lat="48.37395" lon="2.82009">
        <ele>39.07</ele>
        <time>2014-11-23T11:14:53Z</time>
      </trkpt>
      <trkpt lat="48.37395" lon="2.8201">
        <ele>40.03</ele>
        <time>2014-11-23T11:15:13Z</time>
      </trkpt>
      <trkpt lat="48.37396" lon="2.8201">
        <ele>40.03</ele>
        <time>2014-11-23T11:15:41Z</time>
      </trkpt>
      <trkpt lat="48.37396" lon="2.82009">
        <ele>40.03</ele>
        <time>2014-11-23T11:16:12Z</time>
      </trkpt>
      <trkpt lat="48.37396" lon="2.8201">
        <ele>40.51</ele>
        <time>2014-11-23T11:16:40Z</time>
      </trkpt>
      <trkpt lat="48.37396" lon="2.82011">
        <ele>40.51</ele>
        <time>2014-11-23T11:17:10Z</time>
      </trkpt>
      <trkpt lat="48.37396" lon="2.82011">
        <ele>40.03</ele>
        <time>2014-11-23T11:17:37Z</time>
      </trkpt>
      <trkpt lat="48.37396" lon="2.82011">
        <ele>40.51</ele>
        <time>2014-11-23T11:18:04Z</time>
      </trkpt>
      <trkpt lat="48.37396" lon="2.82011">
        <ele>40.03</ele>
        <time>2014-11-23T11:18:30Z</time>
      </trkpt>
      <trkpt lat="48.37397" lon="2.82012">
        <ele>40.03</ele>
        <time>2014-11-23T11:19:02Z</time>
      </trkpt>
      <trkpt lat="48.37397" lon="2.82011">
        <ele>40.51</ele>
        <time>2014-11-23T11:19:36Z</time>
      </trkpt>
      <trkpt lat="48.37397" lon="2.82011">
        <ele>40.51</ele>
        <time>2014-11-23T11:20:09Z</time>
      </trkpt>
      <trkpt lat="48.37397" lon="2.82011">
        <ele>40.51</ele>
        <time>2014-11-23T11:20:40Z</time>
      </trkpt>
      <trkpt lat="48.37397" lon="2.82011">
        <ele>40.99</ele>
        <time>2014-11-23T11:21:05Z</time>
      </trkpt>
      <trkpt lat="48.37398" lon="2.82011">
        <ele>40.99</ele>
        <time>2014-11-23T11:21:36Z</time>
      </trkpt>
      <trkpt lat="48.37398" lon="2.82011">
        <ele>41.47</ele>
        <time>2014-11-23T11:22:10Z</time>
      </trkpt>
      <trkpt lat="48.37398" lon="2.82011">
        <ele>41.47</ele>
        <time>2014-11-23T11:22:36Z</time>
      </trkpt>
      <trkpt lat="48.37398" lon="2.82011">
        <ele>41.47</ele>
        <time>2014-11-23T11:23:02Z</time>
      </trkpt>
      <trkpt lat="48.37396" lon="2.82009">
        <ele>41.95</ele>
        <time>2014-11-23T11:23:15Z</time>
      </trkpt>
      <trkpt lat="48.37397" lon="2.82009">
        <ele>41.95</ele>
        <time>2014-11-23T11:23:33Z</time>
      </trkpt>
      <trkpt lat="48.37398" lon="2.82009">
        <ele>41.95</ele>
        <time>2014-11-23T11:23:54Z</time>
      </trkpt>
      <trkpt lat="48.37398" lon="2.82009">
        <ele>41.47</ele>
        <time>2014-11-23T11:24:14Z</time>
      </trkpt>
      <trkpt lat="48.37398" lon="2.82009">
        <ele>41.47</ele>
        <time>2014-11-23T11:24:32Z</time>
      </trkpt>
      <trkpt lat="48.37405" lon="2.82008">
        <ele>41.47</ele>
        <time>2014-11-23T11:24:52Z</time>
      </trkpt>
      <trkpt lat="48.37405" lon="2.82007">
        <ele>41.95</ele>
        <time>2014-11-23T11:25:16Z</time>
      </trkpt>
      <trkpt lat="48.37403" lon="2.8201">
        <ele>42.44</ele>
        <time>2014-11-23T11:25:44Z</time>
      </trkpt>
      <trkpt lat="48.374" lon="2.82012">
        <ele>42.44</ele>
        <time>2014-11-23T11:26:12Z</time>
      </trkpt>
      <trkpt lat="48.374" lon="2.82011">
        <ele>42.44</ele>
        <time>2014-11-23T11:26:43Z</time>
      </trkpt>
      <trkpt lat="48.374" lon="2.8201">
        <ele>42.92</ele>
        <time>2014-11-23T11:27:10Z</time>
      </trkpt>
      <trkpt lat="48.37401" lon="2.82009">
        <ele>42.92</ele>
        <time>2014-11-23T11:27:36Z</time>
      </trkpt>
      <trkpt lat="48.37401" lon="2.82009">
        <ele>42.92</ele>
        <time>2014-11-23T11:28:03Z</time>
      </trkpt>
      <trkpt lat="48.37402" lon="2.82008">
        <ele>43.4</ele>
        <time>2014-11-23T11:28:33Z</time>
      </trkpt>
      <trkpt lat="48.37401" lon="2.82007">
        <ele>43.4</ele>
        <time>2014-11-23T11:29:02Z</time>
      </trkpt>
      <trkpt lat="48.37402" lon="2.82007">
        <ele>43.4</ele>
        <time>2014-11-23T11:29:28Z</time>
      </trkpt>
      <trkpt lat="48.37402" lon="2.82008">
        <ele>43.4</ele>
        <time>2014-11-23T11:29:51Z</time>
      </trkpt>
      <trkpt lat="48.37402" lon="2.82008">
        <ele>43.4</ele>
        <time>2014-11-23T11:30:14Z</time>
      </trkpt>
      <trkpt lat="48.37402" lon="2.82008">
        <ele>43.4</ele>
        <time>2014-11-23T11:30:38Z</time>
      </trkpt>
      <trkpt lat="48.37401" lon="2.82007">
        <ele>43.4</ele>
        <time>2014-11-23T11:31:03Z</time>
      </trkpt>
      <trkpt lat="48.37401" lon="2.82007">
        <ele>43.88</ele>
        <time>2014-11-23T11:31:32Z</time>
      </trkpt>
      <trkpt lat="48.37401" lon="2.82008">
        <ele>43.4</ele>
        <time>2014-11-23T11:31:59Z</time>
      </trkpt>
      <trkpt lat="48.37401" lon="2.82008">
        <ele>43.88</ele>
        <time>2014-11-23T11:32:27Z</time>
      </trkpt>
      <trkpt lat="48.37401" lon="2.82008">
        <ele>43.88</ele>
        <time>2014-11-23T11:32:52Z</time>
      </trkpt>
      <trkpt lat="48.37401" lon="2.82007">
        <ele>43.88</ele>
        <time>2014-11-23T11:33:17Z</time>
      </trkpt>
      <trkpt lat="48.37401" lon="2.82007">
        <ele>43.88</ele>
        <time>2014-11-23T11:33:47Z</time>
      </trkpt>
      <trkpt lat="48.37401" lon="2.82007">
        <ele>43.88</ele>
        <time>2014-11-23T11:34:14Z</time>
      </trkpt>
      <trkpt lat="48.37401" lon="2.82007">
        <ele>43.4</ele>
        <time>2014-11-23T11:34:41Z</time>
      </trkpt>
      <trkpt lat="48.37401" lon="2.82007">
        <ele>43.88</ele>
        <time>2014-11-23T11:35:11Z</time>
      </trkpt>
      <trkpt lat="48.37401" lon="2.82007">
        <ele>43.4</ele>
        <time>2014-11-23T11:35:40Z</time>
      </trkpt>
      <trkpt lat="48.37401" lon="2.82007">
        <ele>43.88</ele>
        <time>2014-11-23T11:36:10Z</time>
      </trkpt>
      <trkpt lat="48.37402" lon="2.82007">
        <ele>43.4</ele>
        <time>2014-11-23T11:36:46Z</time>
      </trkpt>
      <trkpt lat="48.37402" lon="2.82008">
        <ele>43.88</ele>
        <time>2014-11-23T11:37:18Z</time>
      </trkpt>
      <trkpt lat="48.37402" lon="2.82009">
        <ele>43.88</ele>
        <time>2014-11-23T11:37:54Z</time>
      </trkpt>
      <trkpt lat="48.37401" lon="2.82008">
        <ele>43.88</ele>
        <time>2014-11-23T11:38:23Z</time>
      </trkpt>
      <trkpt lat="48.37401" lon="2.82008">
        <ele>43.88</ele>
        <time>2014-11-23T11:38:47Z</time>
      </trkpt>
      <trkpt lat="48.374" lon="2.82008">
        <ele>43.88</ele>
        <time>2014-11-23T11:39:14Z</time>
      </trkpt>
      <trkpt lat="48.374" lon="2.82008">
        <ele>43.88</ele>
        <time>2014-11-23T11:39:46Z</time>
      </trkpt>
      <trkpt lat="48.37401" lon="2.82008">
        <ele>43.88</ele>
        <time>2014-11-23T11:40:16Z</time>
      </trkpt>
      <trkpt lat="48.37401" lon="2.82007">
        <ele>43.88</ele>
        <time>2014-11-23T11:40:47Z</time>
      </trkpt>
      <trkpt lat="48.37401" lon="2.82006">
        <ele>43.88</ele>
        <time>2014-11-23T11:41:09Z</time>
      </trkpt>
      <trkpt lat="48.37401" lon="2.82006">
        <ele>43.88</ele>
        <time>2014-11-23T11:41:44Z</time>
      </trkpt>
      <trkpt lat="48.37401" lon="2.82007">
        <ele>44.36</ele>
        <time>2014-11-23T11:42:16Z</time>
      </trkpt>
      <trkpt lat="48.37401" lon="2.82007">
        <ele>44.36</ele>
        <time>2014-11-23T11:42:42Z</time>
      </trkpt>
      <trkpt lat="48.37401" lon="2.82007">
        <ele>44.36</ele>
        <time>2014-11-23T11:43:13Z</time>
      </trkpt>
      <trkpt lat="48.37401" lon="2.82007">
        <ele>44.36</ele>
        <time>2014-11-23T11:43:47Z</time>
      </trkpt>
      <trkpt lat="48.37401" lon="2.82007">
        <ele>43.88</ele>
        <time>2014-11-23T11:44:12Z</time>
      </trkpt>
      <trkpt lat="48.37402" lon="2.82007">
        <ele>43.88</ele>
        <time>2014-11-23T11:44:36Z</time>
      </trkpt>
      <trkpt lat="48.37402" lon="2.82007">
        <ele>43.88</ele>
        <time>2014-11-23T11:45:04Z</time>
      </trkpt>
      <trkpt lat="48.37402" lon="2.82006">
        <ele>43.4</ele>
        <time>2014-11-23T11:45:24Z</time>
      </trkpt>
      <trkpt lat="48.37399" lon="2.82007">
        <ele>43.88</ele>
        <time>2014-11-23T11:45:41Z</time>
      </trkpt>
      <trkpt lat="48.37399" lon="2.8201">
        <ele>43.88</ele>
        <time>2014-11-23T11:46:08Z</time>
      </trkpt>
      <trkpt lat="48.374" lon="2.82011">
        <ele>43.88</ele>
        <time>2014-11-23T11:46:29Z</time>
      </trkpt>
      <trkpt lat="48.37399" lon="2.82011">
        <ele>43.88</ele>
        <time>2014-11-23T11:46:56Z</time>
      </trkpt>
      <trkpt lat="48.374" lon="2.82011">
        <ele>43.88</ele>
        <time>2014-11-23T11:47:18Z</time>
      </trkpt>
      <trkpt lat="48.374" lon="2.82011">
        <ele>43.88</ele>
        <time>2014-11-23T11:47:41Z</time>
      </trkpt>
      <trkpt lat="48.37399" lon="2.82011">
        <ele>43.88</ele>
        <time>2014-11-23T11:48:03Z</time>
      </trkpt>
      <trkpt lat="48.37399" lon="2.82011">
        <ele>43.88</ele>
        <time>2014-11-23T11:48:24Z</time>
      </trkpt>
      <trkpt lat="48.37399" lon="2.82013">
        <ele>43.88</ele>
        <time>2014-11-23T11:48:51Z</time>
      </trkpt>
      <trkpt lat="48.374" lon="2.82017">
        <ele>43.88</ele>
        <time>2014-11-23T11:49:14Z</time>
      </trkpt>
      <trkpt lat="48.37399" lon="2.82017">
        <ele>43.4</ele>
        <time>2014-11-23T11:49:44Z</time>
      </trkpt>
      <trkpt lat="48.374" lon="2.82015">
        <ele>43.4</ele>
        <time>2014-11-23T11:50:12Z</time>
      </trkpt>
      <trkpt lat="48.37399" lon="2.82014">
        <ele>43.4</ele>
        <time>2014-11-23T11:50:40Z</time>
      </trkpt>
      <trkpt lat="48.374" lon="2.82013">
        <ele>43.4</ele>
        <time>2014-11-23T11:51:15Z</time>
      </trkpt>
      <trkpt lat="48.374" lon="2.82014">
        <ele>42.92</ele>
        <time>2014-11-23T11:51:49Z</time>
      </trkpt>
      <trkpt lat="48.37399" lon="2.82014">
        <ele>42.92</ele>
        <time>2014-11-23T11:52:17Z</time>
      </trkpt>
      <trkpt lat="48.37399" lon="2.82014">
        <ele>42.44</ele>
        <time>2014-11-23T11:52:47Z</time>
      </trkpt>
      <trkpt lat="48.37399" lon="2.82013">
        <ele>42.44</ele>
        <time>2014-11-23T11:53:18Z</time>
      </trkpt>
      <trkpt lat="48.37399" lon="2.82013">
        <ele>42.92</ele>
        <time>2014-11-23T11:53:48Z</time>
      </trkpt>
      <trkpt lat="48.37399" lon="2.82013">
        <ele>42.44</ele>
        <time>2014-11-23T11:54:18Z</time>
      </trkpt>
      <trkpt lat="48.374" lon="2.82013">
        <ele>42.92</ele>
        <time>2014-11-23T11:54:52Z</time>
      </trkpt>
      <trkpt lat="48.374" lon="2.82012">
        <ele>42.92</ele>
        <time>2014-11-23T11:55:18Z</time>
      </trkpt>
      <trkpt lat="48.37401" lon="2.82016">
        <ele>43.4</ele>
        <time>2014-11-23T11:55:31Z</time>
      </trkpt>
      <trkpt lat="48.37399" lon="2.82008">
        <ele>42.92</ele>
        <time>2014-11-23T11:55:42Z</time>
      </trkpt>
      <trkpt lat="48.37399" lon="2.82009">
        <ele>43.4</ele>
        <time>2014-11-23T11:56:01Z</time>
      </trkpt>
      <trkpt lat="48.37398" lon="2.82011">
        <ele>42.92</ele>
        <time>2014-11-23T11:56:20Z</time>
      </trkpt>
      <trkpt lat="48.37397" lon="2.82011">
        <ele>42.92</ele>
        <time>2014-11-23T11:56:42Z</time>
      </trkpt>
      <trkpt lat="48.37397" lon="2.8201">
        <ele>41.95</ele>
        <time>2014-11-23T11:57:00Z</time>
      </trkpt>
      <trkpt lat="48.37397" lon="2.82009">
        <ele>42.92</ele>
        <time>2014-11-23T11:57:15Z</time>
      </trkpt>
      <trkpt lat="48.37397" lon="2.82008">
        <ele>42.92</ele>
        <time>2014-11-23T11:57:26Z</time>
      </trkpt>
      <trkpt lat="48.37397" lon="2.82009">
        <ele>42.44</ele>
        <time>2014-11-23T11:57:45Z</time>
      </trkpt>
      <trkpt lat="48.37398" lon="2.8201">
        <ele>42.44</ele>
        <time>2014-11-23T11:58:05Z</time>
      </trkpt>
      <trkpt lat="48.37398" lon="2.8201">
        <ele>42.44</ele>
        <time>2014-11-23T11:58:27Z</time>
      </trkpt>
      <trkpt lat="48.37398" lon="2.82011">
        <ele>42.44</ele>
        <time>2014-11-23T11:58:41Z</time>
      </trkpt>
      <trkpt lat="48.37398" lon="2.8201">
        <ele>42.44</ele>
        <time>2014-11-23T11:58:58Z</time>
      </trkpt>
      <trkpt lat="48.37398" lon="2.8201">
        <ele>42.44</ele>
        <time>2014-11-23T11:59:17Z</time>
      </trkpt>
      <trkpt lat="48.37398" lon="2.8201">
        <ele>43.4</ele>
        <time>2014-11-23T11:59:36Z</time>
      </trkpt>
      <trkpt lat="48.37397" lon="2.8201">
        <ele>42.44</ele>
        <time>2014-11-23T11:59:54Z</time>
      </trkpt>
      <trkpt lat="48.37398" lon="2.82011">
        <ele>42.92</ele>
        <time>2014-11-23T12:00:14Z</time>
      </trkpt>
      <trkpt lat="48.37398" lon="2.82011">
        <ele>42.92</ele>
        <time>2014-11-23T12:00:33Z</time>
      </trkpt>
      <trkpt lat="48.37397" lon="2.82011">
        <ele>42.92</ele>
        <time>2014-11-23T12:00:54Z</time>
      </trkpt>
      <trkpt lat="48.37397" lon="2.82011">
        <ele>43.4</ele>
        <time>2014-11-23T12:01:19Z</time>
      </trkpt>
      <trkpt lat="48.37397" lon="2.82011">
        <ele>42.92</ele>
        <time>2014-11-23T12:01:39Z</time>
      </trkpt>
      <trkpt lat="48.37397" lon="2.82011">
        <ele>42.92</ele>
        <time>2014-11-23T12:01:58Z</time>
      </trkpt>
      <trkpt lat="48.37396" lon="2.82012">
        <ele>42.92</ele>
        <time>2014-11-23T12:02:24Z</time>
      </trkpt>
      <trkpt lat="48.37396" lon="2.82011">
        <ele>42.92</ele>
        <time>2014-11-23T12:02:48Z</time>
      </trkpt>
      <trkpt lat="48.37396" lon="2.8201">
        <ele>42.92</ele>
        <time>2014-11-23T12:03:09Z</time>
      </trkpt>
      <trkpt lat="48.37394" lon="2.82008">
        <ele>43.4</ele>
        <time>2014-11-23T12:03:24Z</time>
      </trkpt>
      <trkpt lat="48.37388" lon="2.82004">
        <ele>43.4</ele>
        <time>2014-11-23T12:03:41Z</time>
      </trkpt>
      <trkpt lat="48.37383" lon="2.82002">
        <ele>43.4</ele>
        <time>2014-11-23T12:03:54Z</time>
      </trkpt>
      <trkpt lat="48.37373" lon="2.82002">
        <ele>43.4</ele>
        <time>2014-11-23T12:04:06Z</time>
      </trkpt>
      <trkpt lat="48.37372" lon="2.82001">
        <ele>42.92</ele>
        <time>2014-11-23T12:04:22Z</time>
      </trkpt>
      <trkpt lat="48.37369" lon="2.82002">
        <ele>43.4</ele>
        <time>2014-11-23T12:04:35Z</time>
      </trkpt>
      <trkpt lat="48.37368" lon="2.82002">
        <ele>42.92</ele>
        <time>2014-11-23T12:04:50Z</time>
      </trkpt>
      <trkpt lat="48.37367" lon="2.82003">
        <ele>42.92</ele>
        <time>2014-11-23T12:04:55Z</time>
      </trkpt>
      <trkpt lat="48.37355" lon="2.82014">
        <ele>42.92</ele>
        <time>2014-11-23T12:05:08Z</time>
      </trkpt>
      <trkpt lat="48.37351" lon="2.82016">
        <ele>42.92</ele>
        <time>2014-11-23T12:05:11Z</time>
      </trkpt>
      <trkpt lat="48.37347" lon="2.8202">
        <ele>42.92</ele>
        <time>2014-11-23T12:05:15Z</time>
      </trkpt>
      <trkpt lat="48.37342" lon="2.82022">
        <ele>42.92</ele>
        <time>2014-11-23T12:05:19Z</time>
      </trkpt>
      <trkpt lat="48.37333" lon="2.82023">
        <ele>42.44</ele>
        <time>2014-11-23T12:05:28Z</time>
      </trkpt>
      <trkpt lat="48.37323" lon="2.8202">
        <ele>42.44</ele>
        <time>2014-11-23T12:05:40Z</time>
      </trkpt>
      <trkpt lat="48.37322" lon="2.8202">
        <ele>43.4</ele>
        <time>2014-11-23T12:06:02Z</time>
      </trkpt>
      <trkpt lat="48.37323" lon="2.82022">
        <ele>42.44</ele>
        <time>2014-11-23T12:06:24Z</time>
      </trkpt>
      <trkpt lat="48.37323" lon="2.82023">
        <ele>42.44</ele>
        <time>2014-11-23T12:06:45Z</time>
      </trkpt>
      <trkpt lat="48.37322" lon="2.82023">
        <ele>42.44</ele>
        <time>2014-11-23T12:06:58Z</time>
      </trkpt>
      <trkpt lat="48.37322" lon="2.82022">
        <ele>42.44</ele>
        <time>2014-11-23T12:07:19Z</time>
      </trkpt>
      <trkpt lat="48.37322" lon="2.82021">
        <ele>42.44</ele>
        <time>2014-11-23T12:07:32Z</time>
      </trkpt>
      <trkpt lat="48.37322" lon="2.82021">
        <ele>42.92</ele>
        <time>2014-11-23T12:07:51Z</time>
      </trkpt>
      <trkpt lat="48.37322" lon="2.82021">
        <ele>42.92</ele>
        <time>2014-11-23T12:08:13Z</time>
      </trkpt>
      <trkpt lat="48.37321" lon="2.82021">
        <ele>42.92</ele>
        <time>2014-11-23T12:08:35Z</time>
      </trkpt>
      <trkpt lat="48.37321" lon="2.82021">
        <ele>42.92</ele>
        <time>2014-11-23T12:08:55Z</time>
      </trkpt>
      <trkpt lat="48.37322" lon="2.82021">
        <ele>42.92</ele>
        <time>2014-11-23T12:09:14Z</time>
      </trkpt>
      <trkpt lat="48.37321" lon="2.82022">
        <ele>42.92</ele>
        <time>2014-11-23T12:09:35Z</time>
      </trkpt>
      <trkpt lat="48.37321" lon="2.82021">
        <ele>42.92</ele>
        <time>2014-11-23T12:09:52Z</time>
      </trkpt>
      <trkpt lat="48.37316" lon="2.82025">
        <ele>42.44</ele>
        <time>2014-11-23T12:10:08Z</time>
      </trkpt>
      <trkpt lat="48.37311" lon="2.8203">
        <ele>42.44</ele>
        <time>2014-11-23T12:10:15Z</time>
      </trkpt>
      <trkpt lat="48.3731" lon="2.82032">
        <ele>42.44</ele>
        <time>2014-11-23T12:10:18Z</time>
      </trkpt>
      <trkpt lat="48.37308" lon="2.82035">
        <ele>42.44</ele>
        <time>2014-11-23T12:10:20Z</time>
      </trkpt>
      <trkpt lat="48.37304" lon="2.82044">
        <ele>42.92</ele>
        <time>2014-11-23T12:10:32Z</time>
      </trkpt>
      <trkpt lat="48.37302" lon="2.82054">
        <ele>42.92</ele>
        <time>2014-11-23T12:10:44Z</time>
      </trkpt>
      <trkpt lat="48.37298" lon="2.82067">
        <ele>42.92</ele>
        <time>2014-11-23T12:10:56Z</time>
      </trkpt>
      <trkpt lat="48.37287" lon="2.82076">
        <ele>43.4</ele>
        <time>2014-11-23T12:11:08Z</time>
      </trkpt>
      <trkpt lat="48.37281" lon="2.82084">
        <ele>43.4</ele>
        <time>2014-11-23T12:11:16Z</time>
      </trkpt>
      <trkpt lat="48.37278" lon="2.82108">
        <ele>43.88</ele>
        <time>2014-11-23T12:11:32Z</time>
      </trkpt>
      <trkpt lat="48.37268" lon="2.82112">
        <ele>43.88</ele>
        <time>2014-11-23T12:11:43Z</time>
      </trkpt>
      <trkpt lat="48.37263" lon="2.82114">
        <ele>43.88</ele>
        <time>2014-11-23T12:11:48Z</time>
      </trkpt>
      <trkpt lat="48.37252" lon="2.82108">
        <ele>44.84</ele>
        <time>2014-11-23T12:11:58Z</time>
      </trkpt>
      <trkpt lat="48.37253" lon="2.82095">
        <ele>45.32</ele>
        <time>2014-11-23T12:12:06Z</time>
      </trkpt>
      <trkpt lat="48.37253" lon="2.82086">
        <ele>45.8</ele>
        <time>2014-11-23T12:12:12Z</time>
      </trkpt>
      <trkpt lat="48.37242" lon="2.82068">
        <ele>46.28</ele>
        <time>2014-11-23T12:12:25Z</time>
      </trkpt>
      <trkpt lat="48.37244" lon="2.82059">
        <ele>46.28</ele>
        <time>2014-11-23T12:12:30Z</time>
      </trkpt>
      <trkpt lat="48.37246" lon="2.82042">
        <ele>46.76</ele>
        <time>2014-11-23T12:12:41Z</time>
      </trkpt>
      <trkpt lat="48.37246" lon="2.82041">
        <ele>46.76</ele>
        <time>2014-11-23T12:12:42Z</time>
      </trkpt>
      <trkpt lat="48.37246" lon="2.82035">
        <ele>46.76</ele>
        <time>2014-11-23T12:12:46Z</time>
      </trkpt>
      <trkpt lat="48.37248" lon="2.8203">
        <ele>46.76</ele>
        <time>2014-11-23T12:12:49Z</time>
      </trkpt>
      <trkpt lat="48.37248" lon="2.82012">
        <ele>47.24</ele>
        <time>2014-11-23T12:13:01Z</time>
      </trkpt>
      <trkpt lat="48.37247" lon="2.82003">
        <ele>47.72</ele>
        <time>2014-11-23T12:13:09Z</time>
      </trkpt>
      <trkpt lat="48.37248" lon="2.81998">
        <ele>47.72</ele>
        <time>2014-11-23T12:13:13Z</time>
      </trkpt>
      <trkpt lat="48.37248" lon="2.81983">
        <ele>47.24</ele>
        <time>2014-11-23T12:13:25Z</time>
      </trkpt>
      <trkpt lat="48.37248" lon="2.81974">
        <ele>47.24</ele>
        <time>2014-11-23T12:13:30Z</time>
      </trkpt>
      <trkpt lat="48.37249" lon="2.81965">
        <ele>47.24</ele>
        <time>2014-11-23T12:13:35Z</time>
      </trkpt>
      <trkpt lat="48.3725" lon="2.81961">
        <ele>47.24</ele>
        <time>2014-11-23T12:13:37Z</time>
      </trkpt>
      <trkpt lat="48.3725" lon="2.81952">
        <ele>47.24</ele>
        <time>2014-11-23T12:13:42Z</time>
      </trkpt>
      <trkpt lat="48.37251" lon="2.81943">
        <ele>46.76</ele>
        <time>2014-11-23T12:13:53Z</time>
      </trkpt>
      <trkpt lat="48.37252" lon="2.81935">
        <ele>46.76</ele>
        <time>2014-11-23T12:14:05Z</time>
      </trkpt>
      <trkpt lat="48.37253" lon="2.81931">
        <ele>46.76</ele>
        <time>2014-11-23T12:14:18Z</time>
      </trkpt>
      <trkpt lat="48.37257" lon="2.81905">
        <ele>46.28</ele>
        <time>2014-11-23T12:14:31Z</time>
      </trkpt>
      <trkpt lat="48.37258" lon="2.81889">
        <ele>46.28</ele>
        <time>2014-11-23T12:14:45Z</time>
      </trkpt>
      <trkpt lat="48.37262" lon="2.81879">
        <ele>46.28</ele>
        <time>2014-11-23T12:14:59Z</time>
      </trkpt>
      <trkpt lat="48.37267" lon="2.81865">
        <ele>45.8</ele>
        <time>2014-11-23T12:15:12Z</time>
      </trkpt>
      <trkpt lat="48.37275" lon="2.8183">
        <ele>46.28</ele>
        <time>2014-11-23T12:15:28Z</time>
      </trkpt>
      <trkpt lat="48.3728" lon="2.81813">
        <ele>46.76</ele>
        <time>2014-11-23T12:15:43Z</time>
      </trkpt>
      <trkpt lat="48.3729" lon="2.81793">
        <ele>47.24</ele>
        <time>2014-11-23T12:15:59Z</time>
      </trkpt>
      <trkpt lat="48.37296" lon="2.81789">
        <ele>47.24</ele>
        <time>2014-11-23T12:16:05Z</time>
      </trkpt>
      <trkpt lat="48.37303" lon="2.81772">
        <ele>47.72</ele>
        <time>2014-11-23T12:16:20Z</time>
      </trkpt>
      <trkpt lat="48.37301" lon="2.8175">
        <ele>48.2</ele>
        <time>2014-11-23T12:16:35Z</time>
      </trkpt>
      <trkpt lat="48.373" lon="2.81738">
        <ele>48.2</ele>
        <time>2014-11-23T12:16:38Z</time>
      </trkpt>
      <trkpt lat="48.37308" lon="2.81714">
        <ele>48.2</ele>
        <time>2014-11-23T12:16:53Z</time>
      </trkpt>
      <trkpt lat="48.37313" lon="2.81688">
        <ele>48.2</ele>
        <time>2014-11-23T12:17:08Z</time>
      </trkpt>
      <trkpt lat="48.3731" lon="2.81662">
        <ele>48.68</ele>
        <time>2014-11-23T12:17:21Z</time>
      </trkpt>
      <trkpt lat="48.37298" lon="2.8165">
        <ele>48.68</ele>
        <time>2014-11-23T12:17:35Z</time>
      </trkpt>
      <trkpt lat="48.37297" lon="2.81644">
        <ele>48.2</ele>
        <time>2014-11-23T12:17:54Z</time>
      </trkpt>
      <trkpt lat="48.37297" lon="2.81644">
        <ele>48.2</ele>
        <time>2014-11-23T12:18:10Z</time>
      </trkpt>
      <trkpt lat="48.37298" lon="2.81645">
        <ele>48.2</ele>
        <time>2014-11-23T12:18:28Z</time>
      </trkpt>
      <trkpt lat="48.37301" lon="2.81646">
        <ele>48.2</ele>
        <time>2014-11-23T12:18:33Z</time>
      </trkpt>
      <trkpt lat="48.37303" lon="2.81652">
        <ele>48.2</ele>
        <time>2014-11-23T12:18:38Z</time>
      </trkpt>
      <trkpt lat="48.37303" lon="2.81654">
        <ele>48.68</ele>
        <time>2014-11-23T12:18:40Z</time>
      </trkpt>
      <trkpt lat="48.37302" lon="2.81654">
        <ele>48.2</ele>
        <time>2014-11-23T12:18:43Z</time>
      </trkpt>
      <trkpt lat="48.37297" lon="2.81652">
        <ele>48.68</ele>
        <time>2014-11-23T12:18:47Z</time>
      </trkpt>
      <trkpt lat="48.3729" lon="2.81643">
        <ele>49.65</ele>
        <time>2014-11-23T12:19:00Z</time>
      </trkpt>
      <trkpt lat="48.37286" lon="2.81637">
        <ele>49.65</ele>
        <time>2014-11-23T12:19:13Z</time>
      </trkpt>
      <trkpt lat="48.37284" lon="2.81636">
        <ele>49.65</ele>
        <time>2014-11-23T12:19:35Z</time>
      </trkpt>
      <trkpt lat="48.37283" lon="2.81635">
        <ele>49.65</ele>
        <time>2014-11-23T12:19:57Z</time>
      </trkpt>
      <trkpt lat="48.37283" lon="2.81634">
        <ele>49.65</ele>
        <time>2014-11-23T12:20:23Z</time>
      </trkpt>
      <trkpt lat="48.37282" lon="2.81635">
        <ele>49.65</ele>
        <time>2014-11-23T12:20:39Z</time>
      </trkpt>
      <trkpt lat="48.37282" lon="2.81636">
        <ele>49.65</ele>
        <time>2014-11-23T12:21:04Z</time>
      </trkpt>
      <trkpt lat="48.37282" lon="2.81635">
        <ele>49.65</ele>
        <time>2014-11-23T12:21:28Z</time>
      </trkpt>
      <trkpt lat="48.37282" lon="2.81635">
        <ele>50.13</ele>
        <time>2014-11-23T12:21:56Z</time>
      </trkpt>
      <trkpt lat="48.37284" lon="2.81632">
        <ele>50.13</ele>
        <time>2014-11-23T12:22:11Z</time>
      </trkpt>
      <trkpt lat="48.37284" lon="2.81632">
        <ele>50.13</ele>
        <time>2014-11-23T12:22:34Z</time>
      </trkpt>
      <trkpt lat="48.37284" lon="2.81633">
        <ele>50.13</ele>
        <time>2014-11-23T12:22:57Z</time>
      </trkpt>
      <trkpt lat="48.37285" lon="2.81632">
        <ele>50.13</ele>
        <time>2014-11-23T12:23:12Z</time>
      </trkpt>
      <trkpt lat="48.37284" lon="2.81634">
        <ele>50.13</ele>
        <time>2014-11-23T12:23:37Z</time>
      </trkpt>
      <trkpt lat="48.37284" lon="2.81634">
        <ele>53.97</ele>
        <time>2014-11-23T12:23:49Z</time>
      </trkpt>
      <trkpt lat="48.37283" lon="2.81634">
        <ele>48.68</ele>
        <time>2014-11-23T12:23:50Z</time>
      </trkpt>
      <trkpt lat="48.37283" lon="2.81634">
        <ele>51.57</ele>
        <time>2014-11-23T12:23:54Z</time>
      </trkpt>
      <trkpt lat="48.37283" lon="2.81634">
        <ele>51.57</ele>
        <time>2014-11-23T12:23:55Z</time>
      </trkpt>
      <trkpt lat="48.37283" lon="2.81634">
        <ele>50.13</ele>
        <time>2014-11-23T12:23:57Z</time>
      </trkpt>
      <trkpt lat="48.3729" lon="2.81638">
        <ele>50.13</ele>
        <time>2014-11-23T12:24:11Z</time>
      </trkpt>
      <trkpt lat="48.37298" lon="2.81646">
        <ele>48.68</ele>
        <time>2014-11-23T12:24:26Z</time>
      </trkpt>
      <trkpt lat="48.37307" lon="2.81652">
        <ele>48.68</ele>
        <time>2014-11-23T12:24:41Z</time>
      </trkpt>
      <trkpt lat="48.37308" lon="2.81652">
        <ele>48.68</ele>
        <time>2014-11-23T12:24:57Z</time>
      </trkpt>
      <trkpt lat="48.37307" lon="2.81656">
        <ele>48.2</ele>
        <time>2014-11-23T12:25:14Z</time>
      </trkpt>
      <trkpt lat="48.37311" lon="2.81667">
        <ele>48.2</ele>
        <time>2014-11-23T12:25:18Z</time>
      </trkpt>
      <trkpt lat="48.37319" lon="2.81683">
        <ele>48.2</ele>
        <time>2014-11-23T12:25:24Z</time>
      </trkpt>
      <trkpt lat="48.3732" lon="2.81699">
        <ele>48.2</ele>
        <time>2014-11-23T12:25:32Z</time>
      </trkpt>
      <trkpt lat="48.37309" lon="2.81708">
        <ele>48.68</ele>
        <time>2014-11-23T12:25:42Z</time>
      </trkpt>
      <trkpt lat="48.37312" lon="2.8172">
        <ele>47.72</ele>
        <time>2014-11-23T12:25:47Z</time>
      </trkpt>
      <trkpt lat="48.37309" lon="2.81738">
        <ele>47.72</ele>
        <time>2014-11-23T12:25:58Z</time>
      </trkpt>
      <trkpt lat="48.37308" lon="2.81742">
        <ele>47.72</ele>
        <time>2014-11-23T12:26:01Z</time>
      </trkpt>
      <trkpt lat="48.37307" lon="2.81749">
        <ele>47.24</ele>
        <time>2014-11-23T12:26:05Z</time>
      </trkpt>
      <trkpt lat="48.37307" lon="2.81757">
        <ele>47.24</ele>
        <time>2014-11-23T12:26:10Z</time>
      </trkpt>
      <trkpt lat="48.37305" lon="2.81781">
        <ele>46.76</ele>
        <time>2014-11-23T12:26:21Z</time>
      </trkpt>
      <trkpt lat="48.37305" lon="2.81791">
        <ele>46.28</ele>
        <time>2014-11-23T12:26:31Z</time>
      </trkpt>
      <trkpt lat="48.37303" lon="2.8181">
        <ele>45.8</ele>
        <time>2014-11-23T12:26:45Z</time>
      </trkpt>
      <trkpt lat="48.373" lon="2.81824">
        <ele>45.8</ele>
        <time>2014-11-23T12:26:55Z</time>
      </trkpt>
      <trkpt lat="48.37291" lon="2.81819">
        <ele>45.8</ele>
        <time>2014-11-23T12:27:06Z</time>
      </trkpt>
      <trkpt lat="48.37272" lon="2.8182">
        <ele>45.8</ele>
        <time>2014-11-23T12:27:18Z</time>
      </trkpt>
      <trkpt lat="48.37271" lon="2.8182">
        <ele>46.28</ele>
        <time>2014-11-23T12:27:19Z</time>
      </trkpt>
      <trkpt lat="48.37255" lon="2.81818">
        <ele>46.28</ele>
        <time>2014-11-23T12:27:32Z</time>
      </trkpt>
      <trkpt lat="48.3725" lon="2.81816">
        <ele>46.76</ele>
        <time>2014-11-23T12:27:41Z</time>
      </trkpt>
      <trkpt lat="48.37245" lon="2.81813">
        <ele>46.76</ele>
        <time>2014-11-23T12:27:51Z</time>
      </trkpt>
      <trkpt lat="48.37242" lon="2.81811">
        <ele>46.76</ele>
        <time>2014-11-23T12:27:53Z</time>
      </trkpt>
      <trkpt lat="48.37228" lon="2.81799">
        <ele>47.72</ele>
        <time>2014-11-23T12:28:07Z</time>
      </trkpt>
      <trkpt lat="48.37215" lon="2.81791">
        <ele>48.2</ele>
        <time>2014-11-23T12:28:18Z</time>
      </trkpt>
      <trkpt lat="48.37209" lon="2.81796">
        <ele>48.68</ele>
        <time>2014-11-23T12:28:29Z</time>
      </trkpt>
      <trkpt lat="48.37207" lon="2.81793">
        <ele>48.68</ele>
        <time>2014-11-23T12:28:47Z</time>
      </trkpt>
      <trkpt lat="48.37207" lon="2.81796">
        <ele>48.68</ele>
        <time>2014-11-23T12:29:02Z</time>
      </trkpt>
      <trkpt lat="48.37207" lon="2.81799">
        <ele>48.68</ele>
        <time>2014-11-23T12:29:04Z</time>
      </trkpt>
      <trkpt lat="48.372" lon="2.81813">
        <ele>47.72</ele>
        <time>2014-11-23T12:29:15Z</time>
      </trkpt>
      <trkpt lat="48.37196" lon="2.81816">
        <ele>47.72</ele>
        <time>2014-11-23T12:29:19Z</time>
      </trkpt>
      <trkpt lat="48.37196" lon="2.81842">
        <ele>47.24</ele>
        <time>2014-11-23T12:29:34Z</time>
      </trkpt>
      <trkpt lat="48.37194" lon="2.81838">
        <ele>47.24</ele>
        <time>2014-11-23T12:29:38Z</time>
      </trkpt>
      <trkpt lat="48.37186" lon="2.81839">
        <ele>48.68</ele>
        <time>2014-11-23T12:29:54Z</time>
      </trkpt>
      <trkpt lat="48.37179" lon="2.81846">
        <ele>49.16</ele>
        <time>2014-11-23T12:30:06Z</time>
      </trkpt>
      <trkpt lat="48.37174" lon="2.81846">
        <ele>49.65</ele>
        <time>2014-11-23T12:30:18Z</time>
      </trkpt>
      <trkpt lat="48.37169" lon="2.81848">
        <ele>49.65</ele>
        <time>2014-11-23T12:30:34Z</time>
      </trkpt>
      <trkpt lat="48.3716" lon="2.81854">
        <ele>50.13</ele>
        <time>2014-11-23T12:30:48Z</time>
      </trkpt>
      <trkpt lat="48.37149" lon="2.81866">
        <ele>50.61</ele>
        <time>2014-11-23T12:31:01Z</time>
      </trkpt>
      <trkpt lat="48.37149" lon="2.81866">
        <ele>50.61</ele>
        <time>2014-11-23T12:31:02Z</time>
      </trkpt>
      <trkpt lat="48.37143" lon="2.81871">
        <ele>50.61</ele>
        <time>2014-11-23T12:31:13Z</time>
      </trkpt>
      <trkpt lat="48.3714" lon="2.81868">
        <ele>51.09</ele>
        <time>2014-11-23T12:31:16Z</time>
      </trkpt>
      <trkpt lat="48.37136" lon="2.81867">
        <ele>51.09</ele>
        <time>2014-11-23T12:31:19Z</time>
      </trkpt>
      <trkpt lat="48.37119" lon="2.81872">
        <ele>51.57</ele>
        <time>2014-11-23T12:31:32Z</time>
      </trkpt>
      <trkpt lat="48.37117" lon="2.81872">
        <ele>52.05</ele>
        <time>2014-11-23T12:31:38Z</time>
      </trkpt>
      <trkpt lat="48.37111" lon="2.81873">
        <ele>52.53</ele>
        <time>2014-11-23T12:31:44Z</time>
      </trkpt>
      <trkpt lat="48.37108" lon="2.81875">
        <ele>52.53</ele>
        <time>2014-11-23T12:31:46Z</time>
      </trkpt>
      <trkpt lat="48.37095" lon="2.81875">
        <ele>53.01</ele>
        <time>2014-11-23T12:31:58Z</time>
      </trkpt>
      <trkpt lat="48.37088" lon="2.81878">
        <ele>53.49</ele>
        <time>2014-11-23T12:32:05Z</time>
      </trkpt>
      <trkpt lat="48.37081" lon="2.81887">
        <ele>53.97</ele>
        <time>2014-11-23T12:32:15Z</time>
      </trkpt>
      <trkpt lat="48.37072" lon="2.81896">
        <ele>53.97</ele>
        <time>2014-11-23T12:32:29Z</time>
      </trkpt>
      <trkpt lat="48.37072" lon="2.81895">
        <ele>53.97</ele>
        <time>2014-11-23T12:32:44Z</time>
      </trkpt>
      <trkpt lat="48.37068" lon="2.81894">
        <ele>53.49</ele>
        <time>2014-11-23T12:32:59Z</time>
      </trkpt>
      <trkpt lat="48.37064" lon="2.81893">
        <ele>53.49</ele>
        <time>2014-11-23T12:33:02Z</time>
      </trkpt>
      <trkpt lat="48.37058" lon="2.81888">
        <ele>53.49</ele>
        <time>2014-11-23T12:33:16Z</time>
      </trkpt>
      <trkpt lat="48.37058" lon="2.81887">
        <ele>53.49</ele>
        <time>2014-11-23T12:33:32Z</time>
      </trkpt>
      <trkpt lat="48.37059" lon="2.81886">
        <ele>53.49</ele>
        <time>2014-11-23T12:33:45Z</time>
      </trkpt>
      <trkpt lat="48.37063" lon="2.8189">
        <ele>53.49</ele>
        <time>2014-11-23T12:33:57Z</time>
      </trkpt>
      <trkpt lat="48.37068" lon="2.81888">
        <ele>53.49</ele>
        <time>2014-11-23T12:34:21Z</time>
      </trkpt>
      <trkpt lat="48.37069" lon="2.81891">
        <ele>53.49</ele>
        <time>2014-11-23T12:34:39Z</time>
      </trkpt>
      <trkpt lat="48.37067" lon="2.81892">
        <ele>53.49</ele>
        <time>2014-11-23T12:34:41Z</time>
      </trkpt>
      <trkpt lat="48.37056" lon="2.81891">
        <ele>53.49</ele>
        <time>2014-11-23T12:34:52Z</time>
      </trkpt>
      <trkpt lat="48.37044" lon="2.81893">
        <ele>52.53</ele>
        <time>2014-11-23T12:35:05Z</time>
      </trkpt>
      <trkpt lat="48.37038" lon="2.81895">
        <ele>52.05</ele>
        <time>2014-11-23T12:35:10Z</time>
      </trkpt>
      <trkpt lat="48.37021" lon="2.81908">
        <ele>51.09</ele>
        <time>2014-11-23T12:35:25Z</time>
      </trkpt>
      <trkpt lat="48.37004" lon="2.81914">
        <ele>50.61</ele>
        <time>2014-11-23T12:35:38Z</time>
      </trkpt>
      <trkpt lat="48.36993" lon="2.81899">
        <ele>51.09</ele>
        <time>2014-11-23T12:35:52Z</time>
      </trkpt>
      <trkpt lat="48.36992" lon="2.81894">
        <ele>50.61</ele>
        <time>2014-11-23T12:35:55Z</time>
      </trkpt>
      <trkpt lat="48.36989" lon="2.81882">
        <ele>51.09</ele>
        <time>2014-11-23T12:36:03Z</time>
      </trkpt>
      <trkpt lat="48.36988" lon="2.81877">
        <ele>51.09</ele>
        <time>2014-11-23T12:36:06Z</time>
      </trkpt>
      <trkpt lat="48.36989" lon="2.8186">
        <ele>52.05</ele>
        <time>2014-11-23T12:36:22Z</time>
      </trkpt>
      <trkpt lat="48.36991" lon="2.81842">
        <ele>52.05</ele>
        <time>2014-11-23T12:36:32Z</time>
      </trkpt>
      <trkpt lat="48.3699" lon="2.81822">
        <ele>53.01</ele>
        <time>2014-11-23T12:36:44Z</time>
      </trkpt>
      <trkpt lat="48.36991" lon="2.81804">
        <ele>53.97</ele>
        <time>2014-11-23T12:36:58Z</time>
      </trkpt>
      <trkpt lat="48.36991" lon="2.81794">
        <ele>54.45</ele>
        <time>2014-11-23T12:37:04Z</time>
      </trkpt>
      <trkpt lat="48.36986" lon="2.81787">
        <ele>54.93</ele>
        <time>2014-11-23T12:37:17Z</time>
      </trkpt>
      <trkpt lat="48.36984" lon="2.8179">
        <ele>55.41</ele>
        <time>2014-11-23T12:37:38Z</time>
      </trkpt>
      <trkpt lat="48.36985" lon="2.81789">
        <ele>55.89</ele>
        <time>2014-11-23T12:37:40Z</time>
      </trkpt>
      <trkpt lat="48.3699" lon="2.81779">
        <ele>55.41</ele>
        <time>2014-11-23T12:37:53Z</time>
      </trkpt>
      <trkpt lat="48.37001" lon="2.81764">
        <ele>55.89</ele>
        <time>2014-11-23T12:38:13Z</time>
      </trkpt>
      <trkpt lat="48.3701" lon="2.81755">
        <ele>56.86</ele>
        <time>2014-11-23T12:38:28Z</time>
      </trkpt>
      <trkpt lat="48.37017" lon="2.81749">
        <ele>57.34</ele>
        <time>2014-11-23T12:38:35Z</time>
      </trkpt>
      <trkpt lat="48.37029" lon="2.8173">
        <ele>57.82</ele>
        <time>2014-11-23T12:38:48Z</time>
      </trkpt>
      <trkpt lat="48.37034" lon="2.8172">
        <ele>58.3</ele>
        <time>2014-11-23T12:38:57Z</time>
      </trkpt>
      <trkpt lat="48.37046" lon="2.81697">
        <ele>58.3</ele>
        <time>2014-11-23T12:39:15Z</time>
      </trkpt>
      <trkpt lat="48.37051" lon="2.81687">
        <ele>58.3</ele>
        <time>2014-11-23T12:39:22Z</time>
      </trkpt>
      <trkpt lat="48.37054" lon="2.81661">
        <ele>57.34</ele>
        <time>2014-11-23T12:39:37Z</time>
      </trkpt>
      <trkpt lat="48.37048" lon="2.81648">
        <ele>57.82</ele>
        <time>2014-11-23T12:39:49Z</time>
      </trkpt>
      <trkpt lat="48.37044" lon="2.81644">
        <ele>58.3</ele>
        <time>2014-11-23T12:39:54Z</time>
      </trkpt>
      <trkpt lat="48.3704" lon="2.81638">
        <ele>58.3</ele>
        <time>2014-11-23T12:39:59Z</time>
      </trkpt>
      <trkpt lat="48.37037" lon="2.81629">
        <ele>58.3</ele>
        <time>2014-11-23T12:40:04Z</time>
      </trkpt>
      <trkpt lat="48.3703" lon="2.81607">
        <ele>58.78</ele>
        <time>2014-11-23T12:40:17Z</time>
      </trkpt>
      <trkpt lat="48.37018" lon="2.81583">
        <ele>59.26</ele>
        <time>2014-11-23T12:40:31Z</time>
      </trkpt>
      <trkpt lat="48.37017" lon="2.81581">
        <ele>59.26</ele>
        <time>2014-11-23T12:40:32Z</time>
      </trkpt>
      <trkpt lat="48.37013" lon="2.81571">
        <ele>59.74</ele>
        <time>2014-11-23T12:40:39Z</time>
      </trkpt>
      <trkpt lat="48.37008" lon="2.81562">
        <ele>59.74</ele>
        <time>2014-11-23T12:40:47Z</time>
      </trkpt>
      <trkpt lat="48.36995" lon="2.81544">
        <ele>60.22</ele>
        <time>2014-11-23T12:41:02Z</time>
      </trkpt>
      <trkpt lat="48.36995" lon="2.81539">
        <ele>60.22</ele>
        <time>2014-11-23T12:41:05Z</time>
      </trkpt>
      <trkpt lat="48.36991" lon="2.81531">
        <ele>60.7</ele>
        <time>2014-11-23T12:41:10Z</time>
      </trkpt>
      <trkpt lat="48.3698" lon="2.8151">
        <ele>60.7</ele>
        <time>2014-11-23T12:41:25Z</time>
      </trkpt>
      <trkpt lat="48.36965" lon="2.81493">
        <ele>61.66</ele>
        <time>2014-11-23T12:41:40Z</time>
      </trkpt>
      <trkpt lat="48.36963" lon="2.8149">
        <ele>61.66</ele>
        <time>2014-11-23T12:41:42Z</time>
      </trkpt>
      <trkpt lat="48.36953" lon="2.81477">
        <ele>61.66</ele>
        <time>2014-11-23T12:41:52Z</time>
      </trkpt>
      <trkpt lat="48.36951" lon="2.81474">
        <ele>62.14</ele>
        <time>2014-11-23T12:41:54Z</time>
      </trkpt>
      <trkpt lat="48.36943" lon="2.81463">
        <ele>62.62</ele>
        <time>2014-11-23T12:42:05Z</time>
      </trkpt>
      <trkpt lat="48.36929" lon="2.81448">
        <ele>63.1</ele>
        <time>2014-11-23T12:42:20Z</time>
      </trkpt>
      <trkpt lat="48.36922" lon="2.81439">
        <ele>63.58</ele>
        <time>2014-11-23T12:42:28Z</time>
      </trkpt>
      <trkpt lat="48.36908" lon="2.81422">
        <ele>63.58</ele>
        <time>2014-11-23T12:42:41Z</time>
      </trkpt>
      <trkpt lat="48.36894" lon="2.81404">
        <ele>64.55</ele>
        <time>2014-11-23T12:42:57Z</time>
      </trkpt>
      <trkpt lat="48.36884" lon="2.8139">
        <ele>64.55</ele>
        <time>2014-11-23T12:43:09Z</time>
      </trkpt>
      <trkpt lat="48.36869" lon="2.81376">
        <ele>65.51</ele>
        <time>2014-11-23T12:43:25Z</time>
      </trkpt>
      <trkpt lat="48.36858" lon="2.81362">
        <ele>65.99</ele>
        <time>2014-11-23T12:43:38Z</time>
      </trkpt>
      <trkpt lat="48.36857" lon="2.81362">
        <ele>65.99</ele>
        <time>2014-11-23T12:43:40Z</time>
      </trkpt>
      <trkpt lat="48.3685" lon="2.81357">
        <ele>65.99</ele>
        <time>2014-11-23T12:43:47Z</time>
      </trkpt>
      <trkpt lat="48.36845" lon="2.81351">
        <ele>66.47</ele>
        <time>2014-11-23T12:43:54Z</time>
      </trkpt>
      <trkpt lat="48.36831" lon="2.81335">
        <ele>66.95</ele>
        <time>2014-11-23T12:44:07Z</time>
      </trkpt>
      <trkpt lat="48.3682" lon="2.81322">
        <ele>67.91</ele>
        <time>2014-11-23T12:44:18Z</time>
      </trkpt>
      <trkpt lat="48.36809" lon="2.8131">
        <ele>68.39</ele>
        <time>2014-11-23T12:44:30Z</time>
      </trkpt>
      <trkpt lat="48.36797" lon="2.81296">
        <ele>68.87</ele>
        <time>2014-11-23T12:44:43Z</time>
      </trkpt>
      <trkpt lat="48.36782" lon="2.81279">
        <ele>69.83</ele>
        <time>2014-11-23T12:44:58Z</time>
      </trkpt>
      <trkpt lat="48.36774" lon="2.81269">
        <ele>69.83</ele>
        <time>2014-11-23T12:45:09Z</time>
      </trkpt>
      <trkpt lat="48.36759" lon="2.81252">
        <ele>70.79</ele>
        <time>2014-11-23T12:45:22Z</time>
      </trkpt>
      <trkpt lat="48.36758" lon="2.8125">
        <ele>70.79</ele>
        <time>2014-11-23T12:45:23Z</time>
      </trkpt>
      <trkpt lat="48.36745" lon="2.81236">
        <ele>72.24</ele>
        <time>2014-11-23T12:45:37Z</time>
      </trkpt>
      <trkpt lat="48.36733" lon="2.81225">
        <ele>72.72</ele>
        <time>2014-11-23T12:45:51Z</time>
      </trkpt>
      <trkpt lat="48.36721" lon="2.81212">
        <ele>73.68</ele>
        <time>2014-11-23T12:46:05Z</time>
      </trkpt>
      <trkpt lat="48.36716" lon="2.81206">
        <ele>73.68</ele>
        <time>2014-11-23T12:46:10Z</time>
      </trkpt>
      <trkpt lat="48.36713" lon="2.81201">
        <ele>74.16</ele>
        <time>2014-11-23T12:46:14Z</time>
      </trkpt>
      <trkpt lat="48.36702" lon="2.81189">
        <ele>75.12</ele>
        <time>2014-11-23T12:46:25Z</time>
      </trkpt>
      <trkpt lat="48.36685" lon="2.81171">
        <ele>75.6</ele>
        <time>2014-11-23T12:46:42Z</time>
      </trkpt>
      <trkpt lat="48.36679" lon="2.81164">
        <ele>76.56</ele>
        <time>2014-11-23T12:46:50Z</time>
      </trkpt>
      <trkpt lat="48.36667" lon="2.8115">
        <ele>77.52</ele>
        <time>2014-11-23T12:47:01Z</time>
      </trkpt>
      <trkpt lat="48.36655" lon="2.81135">
        <ele>78.48</ele>
        <time>2014-11-23T12:47:14Z</time>
      </trkpt>
      <trkpt lat="48.3664" lon="2.81119">
        <ele>79.45</ele>
        <time>2014-11-23T12:47:29Z</time>
      </trkpt>
      <trkpt lat="48.36629" lon="2.81102">
        <ele>80.41</ele>
        <time>2014-11-23T12:47:44Z</time>
      </trkpt>
      <trkpt lat="48.36612" lon="2.81086">
        <ele>80.89</ele>
        <time>2014-11-23T12:47:58Z</time>
      </trkpt>
      <trkpt lat="48.36603" lon="2.81078">
        <ele>81.37</ele>
        <time>2014-11-23T12:48:07Z</time>
      </trkpt>
      <trkpt lat="48.3659" lon="2.81063">
        <ele>81.85</ele>
        <time>2014-11-23T12:48:20Z</time>
      </trkpt>
      <trkpt lat="48.36575" lon="2.81046">
        <ele>82.33</ele>
        <time>2014-11-23T12:48:36Z</time>
      </trkpt>
      <trkpt lat="48.3657" lon="2.81043">
        <ele>82.33</ele>
        <time>2014-11-23T12:48:47Z</time>
      </trkpt>
      <trkpt lat="48.36562" lon="2.81035">
        <ele>82.33</ele>
        <time>2014-11-23T12:49:00Z</time>
      </trkpt>
      <trkpt lat="48.36547" lon="2.81021">
        <ele>81.85</ele>
        <time>2014-11-23T12:49:15Z</time>
      </trkpt>
      <trkpt lat="48.36539" lon="2.81016">
        <ele>81.37</ele>
        <time>2014-11-23T12:49:21Z</time>
      </trkpt>
      <trkpt lat="48.36536" lon="2.81014">
        <ele>81.37</ele>
        <time>2014-11-23T12:49:25Z</time>
      </trkpt>
      <trkpt lat="48.36529" lon="2.81007">
        <ele>80.89</ele>
        <time>2014-11-23T12:49:33Z</time>
      </trkpt>
      <trkpt lat="48.36523" lon="2.81002">
        <ele>80.89</ele>
        <time>2014-11-23T12:49:38Z</time>
      </trkpt>
      <trkpt lat="48.36521" lon="2.81001">
        <ele>80.89</ele>
        <time>2014-11-23T12:49:40Z</time>
      </trkpt>
      <trkpt lat="48.36519" lon="2.80999">
        <ele>80.89</ele>
        <time>2014-11-23T12:49:43Z</time>
      </trkpt>
      <trkpt lat="48.365" lon="2.80986">
        <ele>78.97</ele>
        <time>2014-11-23T12:50:00Z</time>
      </trkpt>
      <trkpt lat="48.36494" lon="2.80981">
        <ele>78.97</ele>
        <time>2014-11-23T12:50:05Z</time>
      </trkpt>
      <trkpt lat="48.36489" lon="2.80977">
        <ele>78.48</ele>
        <time>2014-11-23T12:50:11Z</time>
      </trkpt>
      <trkpt lat="48.36475" lon="2.80965">
        <ele>78</ele>
        <time>2014-11-23T12:50:26Z</time>
      </trkpt>
      <trkpt lat="48.36456" lon="2.80946">
        <ele>77.52</ele>
        <time>2014-11-23T12:50:43Z</time>
      </trkpt>
      <trkpt lat="48.36442" lon="2.80932">
        <ele>77.52</ele>
        <time>2014-11-23T12:50:55Z</time>
      </trkpt>
      <trkpt lat="48.36428" lon="2.80918">
        <ele>77.04</ele>
        <time>2014-11-23T12:51:08Z</time>
      </trkpt>
      <trkpt lat="48.36415" lon="2.80902">
        <ele>77.04</ele>
        <time>2014-11-23T12:51:21Z</time>
      </trkpt>
      <trkpt lat="48.36403" lon="2.80883">
        <ele>76.56</ele>
        <time>2014-11-23T12:51:34Z</time>
      </trkpt>
      <trkpt lat="48.3639" lon="2.80865">
        <ele>77.04</ele>
        <time>2014-11-23T12:51:49Z</time>
      </trkpt>
      <trkpt lat="48.36385" lon="2.80855">
        <ele>76.56</ele>
        <time>2014-11-23T12:51:55Z</time>
      </trkpt>
      <trkpt lat="48.3637" lon="2.80833">
        <ele>76.56</ele>
        <time>2014-11-23T12:52:11Z</time>
      </trkpt>
      <trkpt lat="48.3636" lon="2.80815">
        <ele>76.56</ele>
        <time>2014-11-23T12:52:25Z</time>
      </trkpt>
      <trkpt lat="48.36347" lon="2.80792">
        <ele>75.6</ele>
        <time>2014-11-23T12:52:41Z</time>
      </trkpt>
      <trkpt lat="48.36334" lon="2.80772">
        <ele>75.12</ele>
        <time>2014-11-23T12:52:56Z</time>
      </trkpt>
      <trkpt lat="48.36327" lon="2.8077">
        <ele>74.64</ele>
        <time>2014-11-23T12:53:01Z</time>
      </trkpt>
      <trkpt lat="48.36322" lon="2.80763">
        <ele>74.16</ele>
        <time>2014-11-23T12:53:15Z</time>
      </trkpt>
      <trkpt lat="48.36322" lon="2.80764">
        <ele>74.16</ele>
        <time>2014-11-23T12:53:27Z</time>
      </trkpt>
      <trkpt lat="48.36321" lon="2.80764">
        <ele>75.6</ele>
        <time>2014-11-23T12:53:51Z</time>
      </trkpt>
      <trkpt lat="48.36321" lon="2.80763">
        <ele>73.68</ele>
        <time>2014-11-23T12:54:13Z</time>
      </trkpt>
      <trkpt lat="48.36321" lon="2.80763">
        <ele>74.16</ele>
        <time>2014-11-23T12:54:35Z</time>
      </trkpt>
      <trkpt lat="48.3632" lon="2.80763">
        <ele>73.68</ele>
        <time>2014-11-23T12:54:53Z</time>
      </trkpt>
      <trkpt lat="48.36319" lon="2.80759">
        <ele>73.68</ele>
        <time>2014-11-23T12:55:07Z</time>
      </trkpt>
      <trkpt lat="48.36315" lon="2.80753">
        <ele>72.72</ele>
        <time>2014-11-23T12:55:20Z</time>
      </trkpt>
      <trkpt lat="48.36304" lon="2.80731">
        <ele>71.76</ele>
        <time>2014-11-23T12:55:35Z</time>
      </trkpt>
      <trkpt lat="48.36293" lon="2.80711">
        <ele>69.83</ele>
        <time>2014-11-23T12:55:50Z</time>
      </trkpt>
      <trkpt lat="48.36282" lon="2.80691">
        <ele>68.39</ele>
        <time>2014-11-23T12:56:05Z</time>
      </trkpt>
      <trkpt lat="48.36269" lon="2.80667">
        <ele>66.95</ele>
        <time>2014-11-23T12:56:18Z</time>
      </trkpt>
      <trkpt lat="48.36256" lon="2.8064">
        <ele>65.03</ele>
        <time>2014-11-23T12:56:34Z</time>
      </trkpt>
      <trkpt lat="48.36243" lon="2.80617">
        <ele>63.58</ele>
        <time>2014-11-23T12:56:49Z</time>
      </trkpt>
      <trkpt lat="48.36242" lon="2.80614">
        <ele>63.58</ele>
        <time>2014-11-23T12:56:52Z</time>
      </trkpt>
      <trkpt lat="48.36237" lon="2.806">
        <ele>63.1</ele>
        <time>2014-11-23T12:57:00Z</time>
      </trkpt>
      <trkpt lat="48.36226" lon="2.80586">
        <ele>62.62</ele>
        <time>2014-11-23T12:57:10Z</time>
      </trkpt>
      <trkpt lat="48.36226" lon="2.80586">
        <ele>62.62</ele>
        <time>2014-11-23T12:57:19Z</time>
      </trkpt>
      <trkpt lat="48.36227" lon="2.80585">
        <ele>62.62</ele>
        <time>2014-11-23T12:57:33Z</time>
      </trkpt>
      <trkpt lat="48.36228" lon="2.80588">
        <ele>62.62</ele>
        <time>2014-11-23T12:57:38Z</time>
      </trkpt>
      <trkpt lat="48.36239" lon="2.8059">
        <ele>63.1</ele>
        <time>2014-11-23T12:57:47Z</time>
      </trkpt>
      <trkpt lat="48.36258" lon="2.80563">
        <ele>64.55</ele>
        <time>2014-11-23T12:58:06Z</time>
      </trkpt>
      <trkpt lat="48.36263" lon="2.8055">
        <ele>65.03</ele>
        <time>2014-11-23T12:58:14Z</time>
      </trkpt>
      <trkpt lat="48.36261" lon="2.80544">
        <ele>65.03</ele>
        <time>2014-11-23T12:58:19Z</time>
      </trkpt>
      <trkpt lat="48.36254" lon="2.80527">
        <ele>66.47</ele>
        <time>2014-11-23T12:58:30Z</time>
      </trkpt>
      <trkpt lat="48.36253" lon="2.80522">
        <ele>66.95</ele>
        <time>2014-11-23T12:58:43Z</time>
      </trkpt>
      <trkpt lat="48.36253" lon="2.80521">
        <ele>66.47</ele>
        <time>2014-11-23T12:59:00Z</time>
      </trkpt>
      <trkpt lat="48.36253" lon="2.8052">
        <ele>66.47</ele>
        <time>2014-11-23T12:59:08Z</time>
      </trkpt>
      <trkpt lat="48.3626" lon="2.80508">
        <ele>66.95</ele>
        <time>2014-11-23T12:59:20Z</time>
      </trkpt>
      <trkpt lat="48.36266" lon="2.80499">
        <ele>67.43</ele>
        <time>2014-11-23T12:59:32Z</time>
      </trkpt>
      <trkpt lat="48.36268" lon="2.8049">
        <ele>67.43</ele>
        <time>2014-11-23T12:59:38Z</time>
      </trkpt>
      <trkpt lat="48.36282" lon="2.80472">
        <ele>68.39</ele>
        <time>2014-11-23T12:59:51Z</time>
      </trkpt>
      <trkpt lat="48.36283" lon="2.80471">
        <ele>68.39</ele>
        <time>2014-11-23T12:59:52Z</time>
      </trkpt>
      <trkpt lat="48.36296" lon="2.8045">
        <ele>68.87</ele>
        <time>2014-11-23T13:00:10Z</time>
      </trkpt>
      <trkpt lat="48.3631" lon="2.80432">
        <ele>70.31</ele>
        <time>2014-11-23T13:00:27Z</time>
      </trkpt>
      <trkpt lat="48.36307" lon="2.80418">
        <ele>70.31</ele>
        <time>2014-11-23T13:00:40Z</time>
      </trkpt>
      <trkpt lat="48.36295" lon="2.80396">
        <ele>70.31</ele>
        <time>2014-11-23T13:00:56Z</time>
      </trkpt>
      <trkpt lat="48.36286" lon="2.80379">
        <ele>70.79</ele>
        <time>2014-11-23T13:01:11Z</time>
      </trkpt>
      <trkpt lat="48.36273" lon="2.80355">
        <ele>70.79</ele>
        <time>2014-11-23T13:01:25Z</time>
      </trkpt>
      <trkpt lat="48.36259" lon="2.80337">
        <ele>70.79</ele>
        <time>2014-11-23T13:01:40Z</time>
      </trkpt>
      <trkpt lat="48.36254" lon="2.80325">
        <ele>70.79</ele>
        <time>2014-11-23T13:01:50Z</time>
      </trkpt>
      <trkpt lat="48.36248" lon="2.8031">
        <ele>70.79</ele>
        <time>2014-11-23T13:02:01Z</time>
      </trkpt>
      <trkpt lat="48.3624" lon="2.80286">
        <ele>71.27</ele>
        <time>2014-11-23T13:02:14Z</time>
      </trkpt>
      <trkpt lat="48.36233" lon="2.80266">
        <ele>71.27</ele>
        <time>2014-11-23T13:02:26Z</time>
      </trkpt>
      <trkpt lat="48.36225" lon="2.80246">
        <ele>71.27</ele>
        <time>2014-11-23T13:02:39Z</time>
      </trkpt>
      <trkpt lat="48.36215" lon="2.80223">
        <ele>71.27</ele>
        <time>2014-11-23T13:02:54Z</time>
      </trkpt>
      <trkpt lat="48.36212" lon="2.80202">
        <ele>71.76</ele>
        <time>2014-11-23T13:03:07Z</time>
      </trkpt>
      <trkpt lat="48.36207" lon="2.80184">
        <ele>71.76</ele>
        <time>2014-11-23T13:03:22Z</time>
      </trkpt>
      <trkpt lat="48.36203" lon="2.80166">
        <ele>71.76</ele>
        <time>2014-11-23T13:03:34Z</time>
      </trkpt>
      <trkpt lat="48.36196" lon="2.80148">
        <ele>71.76</ele>
        <time>2014-11-23T13:03:45Z</time>
      </trkpt>
      <trkpt lat="48.3619" lon="2.8013">
        <ele>72.24</ele>
        <time>2014-11-23T13:03:57Z</time>
      </trkpt>
      <trkpt lat="48.36185" lon="2.80112">
        <ele>72.24</ele>
        <time>2014-11-23T13:04:10Z</time>
      </trkpt>
      <trkpt lat="48.36177" lon="2.80087">
        <ele>73.2</ele>
        <time>2014-11-23T13:04:24Z</time>
      </trkpt>
      <trkpt lat="48.36172" lon="2.80074">
        <ele>74.16</ele>
        <time>2014-11-23T13:04:37Z</time>
      </trkpt>
      <trkpt lat="48.36171" lon="2.80074">
        <ele>73.68</ele>
        <time>2014-11-23T13:04:54Z</time>
      </trkpt>
      <trkpt lat="48.3617" lon="2.80073">
        <ele>74.16</ele>
        <time>2014-11-23T13:05:20Z</time>
      </trkpt>
      <trkpt lat="48.36169" lon="2.80073">
        <ele>74.16</ele>
        <time>2014-11-23T13:05:41Z</time>
      </trkpt>
      <trkpt lat="48.3617" lon="2.80072">
        <ele>74.16</ele>
        <time>2014-11-23T13:06:00Z</time>
      </trkpt>
      <trkpt lat="48.3617" lon="2.8007">
        <ele>74.16</ele>
        <time>2014-11-23T13:06:02Z</time>
      </trkpt>
      <trkpt lat="48.36167" lon="2.80057">
        <ele>74.16</ele>
        <time>2014-11-23T13:06:11Z</time>
      </trkpt>
      <trkpt lat="48.3616" lon="2.80039">
        <ele>74.64</ele>
        <time>2014-11-23T13:06:22Z</time>
      </trkpt>
      <trkpt lat="48.3616" lon="2.80036">
        <ele>75.12</ele>
        <time>2014-11-23T13:06:24Z</time>
      </trkpt>
      <trkpt lat="48.36157" lon="2.80027">
        <ele>74.64</ele>
        <time>2014-11-23T13:06:30Z</time>
      </trkpt>
      <trkpt lat="48.36155" lon="2.80021">
        <ele>75.12</ele>
        <time>2014-11-23T13:06:34Z</time>
      </trkpt>
      <trkpt lat="48.36152" lon="2.80013">
        <ele>74.64</ele>
        <time>2014-11-23T13:06:40Z</time>
      </trkpt>
      <trkpt lat="48.3615" lon="2.80007">
        <ele>74.64</ele>
        <time>2014-11-23T13:06:44Z</time>
      </trkpt>
      <trkpt lat="48.36147" lon="2.79993">
        <ele>75.12</ele>
        <time>2014-11-23T13:06:52Z</time>
      </trkpt>
      <trkpt lat="48.36146" lon="2.79991">
        <ele>75.12</ele>
        <time>2014-11-23T13:06:54Z</time>
      </trkpt>
      <trkpt lat="48.36144" lon="2.79988">
        <ele>75.12</ele>
        <time>2014-11-23T13:06:57Z</time>
      </trkpt>
      <trkpt lat="48.3614" lon="2.79969">
        <ele>75.12</ele>
        <time>2014-11-23T13:07:10Z</time>
      </trkpt>
      <trkpt lat="48.36135" lon="2.79948">
        <ele>75.6</ele>
        <time>2014-11-23T13:07:24Z</time>
      </trkpt>
      <trkpt lat="48.36129" lon="2.7993">
        <ele>75.12</ele>
        <time>2014-11-23T13:07:38Z</time>
      </trkpt>
      <trkpt lat="48.36127" lon="2.79927">
        <ele>75.12</ele>
        <time>2014-11-23T13:07:41Z</time>
      </trkpt>
      <trkpt lat="48.36121" lon="2.79906">
        <ele>75.12</ele>
        <time>2014-11-23T13:07:53Z</time>
      </trkpt>
      <trkpt lat="48.36115" lon="2.79883">
        <ele>74.64</ele>
        <time>2014-11-23T13:08:06Z</time>
      </trkpt>
      <trkpt lat="48.36111" lon="2.79872">
        <ele>74.64</ele>
        <time>2014-11-23T13:08:12Z</time>
      </trkpt>
      <trkpt lat="48.36109" lon="2.79865">
        <ele>74.64</ele>
        <time>2014-11-23T13:08:16Z</time>
      </trkpt>
      <trkpt lat="48.36102" lon="2.79846">
        <ele>74.64</ele>
        <time>2014-11-23T13:08:30Z</time>
      </trkpt>
      <trkpt lat="48.36098" lon="2.79826">
        <ele>74.64</ele>
        <time>2014-11-23T13:08:42Z</time>
      </trkpt>
      <trkpt lat="48.36095" lon="2.79821">
        <ele>74.16</ele>
        <time>2014-11-23T13:08:45Z</time>
      </trkpt>
      <trkpt lat="48.36091" lon="2.79802">
        <ele>74.16</ele>
        <time>2014-11-23T13:08:58Z</time>
      </trkpt>
      <trkpt lat="48.36085" lon="2.79776">
        <ele>74.16</ele>
        <time>2014-11-23T13:09:15Z</time>
      </trkpt>
      <trkpt lat="48.36084" lon="2.79773">
        <ele>73.68</ele>
        <time>2014-11-23T13:09:17Z</time>
      </trkpt>
      <trkpt lat="48.36074" lon="2.7974">
        <ele>73.2</ele>
        <time>2014-11-23T13:09:38Z</time>
      </trkpt>
      <trkpt lat="48.36066" lon="2.7972">
        <ele>72.72</ele>
        <time>2014-11-23T13:09:51Z</time>
      </trkpt>
      <trkpt lat="48.3606" lon="2.79696">
        <ele>72.24</ele>
        <time>2014-11-23T13:10:03Z</time>
      </trkpt>
      <trkpt lat="48.36057" lon="2.7969">
        <ele>72.24</ele>
        <time>2014-11-23T13:10:07Z</time>
      </trkpt>
      <trkpt lat="48.36052" lon="2.79671">
        <ele>71.76</ele>
        <time>2014-11-23T13:10:19Z</time>
      </trkpt>
      <trkpt lat="48.36046" lon="2.79652">
        <ele>71.27</ele>
        <time>2014-11-23T13:10:31Z</time>
      </trkpt>
      <trkpt lat="48.36039" lon="2.7963">
        <ele>70.79</ele>
        <time>2014-11-23T13:10:43Z</time>
      </trkpt>
      <trkpt lat="48.36033" lon="2.7961">
        <ele>69.83</ele>
        <time>2014-11-23T13:10:57Z</time>
      </trkpt>
      <trkpt lat="48.36026" lon="2.79587">
        <ele>69.35</ele>
        <time>2014-11-23T13:11:09Z</time>
      </trkpt>
      <trkpt lat="48.36022" lon="2.79576">
        <ele>69.35</ele>
        <time>2014-11-23T13:11:17Z</time>
      </trkpt>
      <trkpt lat="48.36014" lon="2.79552">
        <ele>68.87</ele>
        <time>2014-11-23T13:11:31Z</time>
      </trkpt>
      <trkpt lat="48.3601" lon="2.79539">
        <ele>68.39</ele>
        <time>2014-11-23T13:11:41Z</time>
      </trkpt>
      <trkpt lat="48.3601" lon="2.79535">
        <ele>68.39</ele>
        <time>2014-11-23T13:11:43Z</time>
      </trkpt>
      <trkpt lat="48.36006" lon="2.79529">
        <ele>68.39</ele>
        <time>2014-11-23T13:11:52Z</time>
      </trkpt>
      <trkpt lat="48.36004" lon="2.79525">
        <ele>67.91</ele>
        <time>2014-11-23T13:11:55Z</time>
      </trkpt>
      <trkpt lat="48.35998" lon="2.795">
        <ele>67.43</ele>
        <time>2014-11-23T13:12:10Z</time>
      </trkpt>
      <trkpt lat="48.35994" lon="2.79494">
        <ele>66.95</ele>
        <time>2014-11-23T13:12:24Z</time>
      </trkpt>
      <trkpt lat="48.35989" lon="2.79478">
        <ele>66.47</ele>
        <time>2014-11-23T13:12:34Z</time>
      </trkpt>
      <trkpt lat="48.35985" lon="2.79466">
        <ele>66.47</ele>
        <time>2014-11-23T13:12:44Z</time>
      </trkpt>
      <trkpt lat="48.35984" lon="2.79458">
        <ele>66.47</ele>
        <time>2014-11-23T13:12:49Z</time>
      </trkpt>
      <trkpt lat="48.35979" lon="2.79441">
        <ele>66.47</ele>
        <time>2014-11-23T13:13:01Z</time>
      </trkpt>
      <trkpt lat="48.35977" lon="2.79432">
        <ele>66.47</ele>
        <time>2014-11-23T13:13:08Z</time>
      </trkpt>
      <trkpt lat="48.35976" lon="2.79428">
        <ele>66.47</ele>
        <time>2014-11-23T13:13:10Z</time>
      </trkpt>
      <trkpt lat="48.3597" lon="2.79411">
        <ele>66.47</ele>
        <time>2014-11-23T13:13:22Z</time>
      </trkpt>
      <trkpt lat="48.35963" lon="2.79391">
        <ele>66.95</ele>
        <time>2014-11-23T13:13:33Z</time>
      </trkpt>
      <trkpt lat="48.35958" lon="2.79375">
        <ele>66.95</ele>
        <time>2014-11-23T13:13:43Z</time>
      </trkpt>
      <trkpt lat="48.35956" lon="2.79371">
        <ele>67.43</ele>
        <time>2014-11-23T13:13:45Z</time>
      </trkpt>
      <trkpt lat="48.35954" lon="2.79362">
        <ele>67.43</ele>
        <time>2014-11-23T13:13:50Z</time>
      </trkpt>
      <trkpt lat="48.35949" lon="2.7935">
        <ele>67.91</ele>
        <time>2014-11-23T13:13:58Z</time>
      </trkpt>
      <trkpt lat="48.35944" lon="2.79333">
        <ele>66.95</ele>
        <time>2014-11-23T13:14:10Z</time>
      </trkpt>
      <trkpt lat="48.35942" lon="2.79324">
        <ele>66.47</ele>
        <time>2014-11-23T13:14:15Z</time>
      </trkpt>
      <trkpt lat="48.35937" lon="2.79309">
        <ele>66.47</ele>
        <time>2014-11-23T13:14:25Z</time>
      </trkpt>
      <trkpt lat="48.35936" lon="2.79302">
        <ele>66.47</ele>
        <time>2014-11-23T13:14:30Z</time>
      </trkpt>
      <trkpt lat="48.35934" lon="2.79297">
        <ele>66.47</ele>
        <time>2014-11-23T13:14:33Z</time>
      </trkpt>
      <trkpt lat="48.35931" lon="2.79289">
        <ele>66.47</ele>
        <time>2014-11-23T13:14:38Z</time>
      </trkpt>
      <trkpt lat="48.35925" lon="2.79273">
        <ele>66.95</ele>
        <time>2014-11-23T13:14:49Z</time>
      </trkpt>
      <trkpt lat="48.35917" lon="2.79249">
        <ele>67.91</ele>
        <time>2014-11-23T13:15:04Z</time>
      </trkpt>
      <trkpt lat="48.35911" lon="2.79233">
        <ele>67.91</ele>
        <time>2014-11-23T13:15:13Z</time>
      </trkpt>
      <trkpt lat="48.35906" lon="2.79225">
        <ele>68.39</ele>
        <time>2014-11-23T13:15:22Z</time>
      </trkpt>
      <trkpt lat="48.35894" lon="2.79215">
        <ele>68.87</ele>
        <time>2014-11-23T13:15:33Z</time>
      </trkpt>
      <trkpt lat="48.35889" lon="2.79207">
        <ele>69.35</ele>
        <time>2014-11-23T13:15:38Z</time>
      </trkpt>
      <trkpt lat="48.35878" lon="2.79197">
        <ele>70.31</ele>
        <time>2014-11-23T13:15:48Z</time>
      </trkpt>
      <trkpt lat="48.35871" lon="2.79197">
        <ele>70.31</ele>
        <time>2014-11-23T13:15:59Z</time>
      </trkpt>
      <trkpt lat="48.35869" lon="2.79195">
        <ele>70.31</ele>
        <time>2014-11-23T13:16:01Z</time>
      </trkpt>
      <trkpt lat="48.35853" lon="2.79178">
        <ele>71.27</ele>
        <time>2014-11-23T13:16:18Z</time>
      </trkpt>
      <trkpt lat="48.3584" lon="2.79165">
        <ele>71.76</ele>
        <time>2014-11-23T13:16:30Z</time>
      </trkpt>
      <trkpt lat="48.35823" lon="2.79146">
        <ele>72.24</ele>
        <time>2014-11-23T13:16:46Z</time>
      </trkpt>
      <trkpt lat="48.35807" lon="2.79131">
        <ele>72.72</ele>
        <time>2014-11-23T13:17:01Z</time>
      </trkpt>
      <trkpt lat="48.35791" lon="2.79114">
        <ele>73.2</ele>
        <time>2014-11-23T13:17:15Z</time>
      </trkpt>
      <trkpt lat="48.35791" lon="2.79104">
        <ele>73.68</ele>
        <time>2014-11-23T13:17:28Z</time>
      </trkpt>
      <trkpt lat="48.35791" lon="2.79105">
        <ele>73.2</ele>
        <time>2014-11-23T13:17:43Z</time>
      </trkpt>
      <trkpt lat="48.35791" lon="2.79105">
        <ele>73.68</ele>
        <time>2014-11-23T13:17:56Z</time>
      </trkpt>
      <trkpt lat="48.35791" lon="2.79106">
        <ele>73.2</ele>
        <time>2014-11-23T13:18:15Z</time>
      </trkpt>
      <trkpt lat="48.35791" lon="2.79107">
        <ele>73.2</ele>
        <time>2014-11-23T13:18:40Z</time>
      </trkpt>
      <trkpt lat="48.3579" lon="2.79107">
        <ele>73.68</ele>
        <time>2014-11-23T13:19:12Z</time>
      </trkpt>
      <trkpt lat="48.35791" lon="2.79107">
        <ele>73.68</ele>
        <time>2014-11-23T13:19:30Z</time>
      </trkpt>
      <trkpt lat="48.35789" lon="2.79104">
        <ele>74.16</ele>
        <time>2014-11-23T13:19:53Z</time>
      </trkpt>
      <trkpt lat="48.35789" lon="2.79104">
        <ele>74.16</ele>
        <time>2014-11-23T13:20:05Z</time>
      </trkpt>
      <trkpt lat="48.35789" lon="2.79103">
        <ele>74.16</ele>
        <time>2014-11-23T13:20:15Z</time>
      </trkpt>
      <trkpt lat="48.35793" lon="2.79095">
        <ele>74.16</ele>
        <time>2014-11-23T13:20:26Z</time>
      </trkpt>
      <trkpt lat="48.35801" lon="2.79082">
        <ele>74.64</ele>
        <time>2014-11-23T13:20:37Z</time>
      </trkpt>
      <trkpt lat="48.35802" lon="2.79074">
        <ele>74.64</ele>
        <time>2014-11-23T13:20:44Z</time>
      </trkpt>
      <trkpt lat="48.35805" lon="2.79067">
        <ele>74.64</ele>
        <time>2014-11-23T13:20:49Z</time>
      </trkpt>
      <trkpt lat="48.35809" lon="2.79047">
        <ele>75.12</ele>
        <time>2014-11-23T13:21:02Z</time>
      </trkpt>
      <trkpt lat="48.35812" lon="2.79038">
        <ele>75.12</ele>
        <time>2014-11-23T13:21:11Z</time>
      </trkpt>
      <trkpt lat="48.35817" lon="2.79019">
        <ele>75.12</ele>
        <time>2014-11-23T13:21:23Z</time>
      </trkpt>
      <trkpt lat="48.35817" lon="2.79016">
        <ele>74.64</ele>
        <time>2014-11-23T13:21:24Z</time>
      </trkpt>
      <trkpt lat="48.35816" lon="2.79011">
        <ele>75.6</ele>
        <time>2014-11-23T13:21:26Z</time>
      </trkpt>
      <trkpt lat="48.3582" lon="2.78982">
        <ele>75.12</ele>
        <time>2014-11-23T13:21:42Z</time>
      </trkpt>
      <trkpt lat="48.35824" lon="2.78963">
        <ele>75.12</ele>
        <time>2014-11-23T13:21:53Z</time>
      </trkpt>
      <trkpt lat="48.35827" lon="2.78952">
        <ele>75.12</ele>
        <time>2014-11-23T13:22:04Z</time>
      </trkpt>
      <trkpt lat="48.3583" lon="2.78923">
        <ele>75.12</ele>
        <time>2014-11-23T13:22:19Z</time>
      </trkpt>
      <trkpt lat="48.35831" lon="2.78894">
        <ele>75.12</ele>
        <time>2014-11-23T13:22:32Z</time>
      </trkpt>
      <trkpt lat="48.35835" lon="2.78881">
        <ele>74.64</ele>
        <time>2014-11-23T13:22:43Z</time>
      </trkpt>
      <trkpt lat="48.35838" lon="2.78865">
        <ele>74.64</ele>
        <time>2014-11-23T13:22:54Z</time>
      </trkpt>
      <trkpt lat="48.35839" lon="2.78855">
        <ele>74.64</ele>
        <time>2014-11-23T13:22:58Z</time>
      </trkpt>
      <trkpt lat="48.35844" lon="2.78843">
        <ele>74.64</ele>
        <time>2014-11-23T13:23:09Z</time>
      </trkpt>
      <trkpt lat="48.35844" lon="2.78836">
        <ele>74.64</ele>
        <time>2014-11-23T13:23:13Z</time>
      </trkpt>
      <trkpt lat="48.35845" lon="2.78831">
        <ele>74.64</ele>
        <time>2014-11-23T13:23:16Z</time>
      </trkpt>
      <trkpt lat="48.35851" lon="2.78806">
        <ele>74.64</ele>
        <time>2014-11-23T13:23:30Z</time>
      </trkpt>
      <trkpt lat="48.35852" lon="2.78774">
        <ele>75.12</ele>
        <time>2014-11-23T13:23:45Z</time>
      </trkpt>
      <trkpt lat="48.35856" lon="2.7875">
        <ele>75.12</ele>
        <time>2014-11-23T13:23:59Z</time>
      </trkpt>
      <trkpt lat="48.35856" lon="2.78723">
        <ele>74.16</ele>
        <time>2014-11-23T13:24:13Z</time>
      </trkpt>
      <trkpt lat="48.35865" lon="2.78699">
        <ele>73.2</ele>
        <time>2014-11-23T13:24:27Z</time>
      </trkpt>
      <trkpt lat="48.35865" lon="2.78695">
        <ele>73.2</ele>
        <time>2014-11-23T13:24:29Z</time>
      </trkpt>
      <trkpt lat="48.35864" lon="2.78671">
        <ele>73.2</ele>
        <time>2014-11-23T13:24:44Z</time>
      </trkpt>
      <trkpt lat="48.35871" lon="2.7865">
        <ele>72.24</ele>
        <time>2014-11-23T13:24:58Z</time>
      </trkpt>
      <trkpt lat="48.35872" lon="2.7863">
        <ele>72.24</ele>
        <time>2014-11-23T13:25:11Z</time>
      </trkpt>
      <trkpt lat="48.35874" lon="2.78619">
        <ele>71.76</ele>
        <time>2014-11-23T13:25:18Z</time>
      </trkpt>
      <trkpt lat="48.35877" lon="2.786">
        <ele>72.24</ele>
        <time>2014-11-23T13:25:29Z</time>
      </trkpt>
      <trkpt lat="48.35882" lon="2.78571">
        <ele>71.76</ele>
        <time>2014-11-23T13:25:43Z</time>
      </trkpt>
      <trkpt lat="48.35886" lon="2.78554">
        <ele>71.76</ele>
        <time>2014-11-23T13:25:54Z</time>
      </trkpt>
      <trkpt lat="48.35887" lon="2.78534">
        <ele>71.76</ele>
        <time>2014-11-23T13:26:05Z</time>
      </trkpt>
      <trkpt lat="48.35888" lon="2.78518">
        <ele>71.76</ele>
        <time>2014-11-23T13:26:15Z</time>
      </trkpt>
      <trkpt lat="48.35889" lon="2.78492">
        <ele>72.24</ele>
        <time>2014-11-23T13:26:30Z</time>
      </trkpt>
      <trkpt lat="48.35894" lon="2.78476">
        <ele>73.2</ele>
        <time>2014-11-23T13:26:42Z</time>
      </trkpt>
      <trkpt lat="48.35895" lon="2.78466">
        <ele>73.2</ele>
        <time>2014-11-23T13:26:54Z</time>
      </trkpt>
      <trkpt lat="48.35897" lon="2.78454">
        <ele>73.68</ele>
        <time>2014-11-23T13:27:05Z</time>
      </trkpt>
      <trkpt lat="48.35897" lon="2.78429">
        <ele>73.68</ele>
        <time>2014-11-23T13:27:17Z</time>
      </trkpt>
      <trkpt lat="48.359" lon="2.7842">
        <ele>74.16</ele>
        <time>2014-11-23T13:27:22Z</time>
      </trkpt>
      <trkpt lat="48.35903" lon="2.78395">
        <ele>73.68</ele>
        <time>2014-11-23T13:27:37Z</time>
      </trkpt>
      <trkpt lat="48.35908" lon="2.78385">
        <ele>73.68</ele>
        <time>2014-11-23T13:27:46Z</time>
      </trkpt>
      <trkpt lat="48.35912" lon="2.78365">
        <ele>74.16</ele>
        <time>2014-11-23T13:27:58Z</time>
      </trkpt>
      <trkpt lat="48.35914" lon="2.78337">
        <ele>74.16</ele>
        <time>2014-11-23T13:28:11Z</time>
      </trkpt>
      <trkpt lat="48.35918" lon="2.78315">
        <ele>73.68</ele>
        <time>2014-11-23T13:28:25Z</time>
      </trkpt>
      <trkpt lat="48.35919" lon="2.78314">
        <ele>73.68</ele>
        <time>2014-11-23T13:28:26Z</time>
      </trkpt>
      <trkpt lat="48.35919" lon="2.78285">
        <ele>73.68</ele>
        <time>2014-11-23T13:28:39Z</time>
      </trkpt>
      <trkpt lat="48.35921" lon="2.78271">
        <ele>73.68</ele>
        <time>2014-11-23T13:28:50Z</time>
      </trkpt>
      <trkpt lat="48.35926" lon="2.78244">
        <ele>73.68</ele>
        <time>2014-11-23T13:29:05Z</time>
      </trkpt>
      <trkpt lat="48.35926" lon="2.78216">
        <ele>73.68</ele>
        <time>2014-11-23T13:29:19Z</time>
      </trkpt>
      <trkpt lat="48.35928" lon="2.78191">
        <ele>73.2</ele>
        <time>2014-11-23T13:29:31Z</time>
      </trkpt>
      <trkpt lat="48.35931" lon="2.78171">
        <ele>73.2</ele>
        <time>2014-11-23T13:29:41Z</time>
      </trkpt>
      <trkpt lat="48.35934" lon="2.7815">
        <ele>72.72</ele>
        <time>2014-11-23T13:29:54Z</time>
      </trkpt>
      <trkpt lat="48.35934" lon="2.78142">
        <ele>72.72</ele>
        <time>2014-11-23T13:29:57Z</time>
      </trkpt>
      <trkpt lat="48.35935" lon="2.78137">
        <ele>73.2</ele>
        <time>2014-11-23T13:30:01Z</time>
      </trkpt>
      <trkpt lat="48.35937" lon="2.78111">
        <ele>73.2</ele>
        <time>2014-11-23T13:30:17Z</time>
      </trkpt>
      <trkpt lat="48.35948" lon="2.78085">
        <ele>72.24</ele>
        <time>2014-11-23T13:30:35Z</time>
      </trkpt>
      <trkpt lat="48.35959" lon="2.78048">
        <ele>71.76</ele>
        <time>2014-11-23T13:30:59Z</time>
      </trkpt>
      <trkpt lat="48.35962" lon="2.78004">
        <ele>71.27</ele>
        <time>2014-11-23T13:31:19Z</time>
      </trkpt>
      <trkpt lat="48.35958" lon="2.77971">
        <ele>70.79</ele>
        <time>2014-11-23T13:31:36Z</time>
      </trkpt>
      <trkpt lat="48.35963" lon="2.77953">
        <ele>70.31</ele>
        <time>2014-11-23T13:31:49Z</time>
      </trkpt>
      <trkpt lat="48.35971" lon="2.77931">
        <ele>69.83</ele>
        <time>2014-11-23T13:32:05Z</time>
      </trkpt>
      <trkpt lat="48.35977" lon="2.77908">
        <ele>69.35</ele>
        <time>2014-11-23T13:32:19Z</time>
      </trkpt>
      <trkpt lat="48.35976" lon="2.77884">
        <ele>68.87</ele>
        <time>2014-11-23T13:32:33Z</time>
      </trkpt>
      <trkpt lat="48.35979" lon="2.77852">
        <ele>68.39</ele>
        <time>2014-11-23T13:32:48Z</time>
      </trkpt>
      <trkpt lat="48.35982" lon="2.77826">
        <ele>68.87</ele>
        <time>2014-11-23T13:33:02Z</time>
      </trkpt>
      <trkpt lat="48.35984" lon="2.77806">
        <ele>67.91</ele>
        <time>2014-11-23T13:33:14Z</time>
      </trkpt>
      <trkpt lat="48.35988" lon="2.7778">
        <ele>67.43</ele>
        <time>2014-11-23T13:33:30Z</time>
      </trkpt>
      <trkpt lat="48.35992" lon="2.77759">
        <ele>67.91</ele>
        <time>2014-11-23T13:33:43Z</time>
      </trkpt>
      <trkpt lat="48.35993" lon="2.77739">
        <ele>66.95</ele>
        <time>2014-11-23T13:33:55Z</time>
      </trkpt>
      <trkpt lat="48.35996" lon="2.77727">
        <ele>66.95</ele>
        <time>2014-11-23T13:34:02Z</time>
      </trkpt>
      <trkpt lat="48.36" lon="2.77702">
        <ele>66.95</ele>
        <time>2014-11-23T13:34:16Z</time>
      </trkpt>
      <trkpt lat="48.36003" lon="2.77675">
        <ele>66.47</ele>
        <time>2014-11-23T13:34:31Z</time>
      </trkpt>
      <trkpt lat="48.36004" lon="2.77673">
        <ele>66.47</ele>
        <time>2014-11-23T13:34:32Z</time>
      </trkpt>
      <trkpt lat="48.36007" lon="2.77644">
        <ele>66.47</ele>
        <time>2014-11-23T13:34:47Z</time>
      </trkpt>
      <trkpt lat="48.36009" lon="2.7764">
        <ele>66.47</ele>
        <time>2014-11-23T13:34:50Z</time>
      </trkpt>
      <trkpt lat="48.36013" lon="2.77614">
        <ele>66.47</ele>
        <time>2014-11-23T13:35:04Z</time>
      </trkpt>
      <trkpt lat="48.36017" lon="2.77583">
        <ele>65.99</ele>
        <time>2014-11-23T13:35:20Z</time>
      </trkpt>
      <trkpt lat="48.36018" lon="2.77573">
        <ele>65.99</ele>
        <time>2014-11-23T13:35:26Z</time>
      </trkpt>
      <trkpt lat="48.36022" lon="2.77549">
        <ele>65.51</ele>
        <time>2014-11-23T13:35:40Z</time>
      </trkpt>
      <trkpt lat="48.36026" lon="2.7753">
        <ele>65.99</ele>
        <time>2014-11-23T13:35:54Z</time>
      </trkpt>
      <trkpt lat="48.36031" lon="2.77515">
        <ele>65.99</ele>
        <time>2014-11-23T13:36:03Z</time>
      </trkpt>
      <trkpt lat="48.36038" lon="2.77493">
        <ele>65.51</ele>
        <time>2014-11-23T13:36:19Z</time>
      </trkpt>
      <trkpt lat="48.3604" lon="2.77462">
        <ele>65.51</ele>
        <time>2014-11-23T13:36:33Z</time>
      </trkpt>
      <trkpt lat="48.3604" lon="2.77448">
        <ele>65.51</ele>
        <time>2014-11-23T13:36:39Z</time>
      </trkpt>
      <trkpt lat="48.36041" lon="2.77418">
        <ele>65.51</ele>
        <time>2014-11-23T13:36:55Z</time>
      </trkpt>
      <trkpt lat="48.36043" lon="2.77388">
        <ele>65.03</ele>
        <time>2014-11-23T13:37:11Z</time>
      </trkpt>
      <trkpt lat="48.36049" lon="2.77352">
        <ele>65.03</ele>
        <time>2014-11-23T13:37:30Z</time>
      </trkpt>
      <trkpt lat="48.36054" lon="2.77318">
        <ele>65.03</ele>
        <time>2014-11-23T13:37:48Z</time>
      </trkpt>
      <trkpt lat="48.36061" lon="2.77288">
        <ele>64.55</ele>
        <time>2014-11-23T13:38:03Z</time>
      </trkpt>
      <trkpt lat="48.36062" lon="2.77258">
        <ele>64.55</ele>
        <time>2014-11-23T13:38:20Z</time>
      </trkpt>
      <trkpt lat="48.36064" lon="2.77253">
        <ele>64.07</ele>
        <time>2014-11-23T13:38:24Z</time>
      </trkpt>
      <trkpt lat="48.36069" lon="2.77216">
        <ele>64.07</ele>
        <time>2014-11-23T13:38:43Z</time>
      </trkpt>
      <trkpt lat="48.36072" lon="2.77188">
        <ele>64.55</ele>
        <time>2014-11-23T13:38:58Z</time>
      </trkpt>
      <trkpt lat="48.36074" lon="2.77165">
        <ele>64.55</ele>
        <time>2014-11-23T13:39:09Z</time>
      </trkpt>
      <trkpt lat="48.36079" lon="2.7714">
        <ele>64.55</ele>
        <time>2014-11-23T13:39:23Z</time>
      </trkpt>
      <trkpt lat="48.36079" lon="2.77136">
        <ele>64.55</ele>
        <time>2014-11-23T13:39:26Z</time>
      </trkpt>
      <trkpt lat="48.36082" lon="2.7713">
        <ele>64.55</ele>
        <time>2014-11-23T13:39:30Z</time>
      </trkpt>
      <trkpt lat="48.36084" lon="2.77125">
        <ele>64.55</ele>
        <time>2014-11-23T13:39:44Z</time>
      </trkpt>
      <trkpt lat="48.36084" lon="2.77125">
        <ele>64.07</ele>
        <time>2014-11-23T13:40:02Z</time>
      </trkpt>
      <trkpt lat="48.36085" lon="2.77123">
        <ele>64.07</ele>
        <time>2014-11-23T13:40:22Z</time>
      </trkpt>
      <trkpt lat="48.36084" lon="2.77124">
        <ele>64.07</ele>
        <time>2014-11-23T13:40:39Z</time>
      </trkpt>
      <trkpt lat="48.36083" lon="2.77125">
        <ele>64.55</ele>
        <time>2014-11-23T13:40:51Z</time>
      </trkpt>
      <trkpt lat="48.36082" lon="2.77125">
        <ele>64.07</ele>
        <time>2014-11-23T13:41:08Z</time>
      </trkpt>
      <trkpt lat="48.3608" lon="2.77127">
        <ele>64.07</ele>
        <time>2014-11-23T13:41:25Z</time>
      </trkpt>
      <trkpt lat="48.36082" lon="2.77129">
        <ele>64.55</ele>
        <time>2014-11-23T13:41:45Z</time>
      </trkpt>
      <trkpt lat="48.36082" lon="2.77128">
        <ele>64.55</ele>
        <time>2014-11-23T13:42:10Z</time>
      </trkpt>
      <trkpt lat="48.36083" lon="2.7713">
        <ele>64.55</ele>
        <time>2014-11-23T13:42:33Z</time>
      </trkpt>
      <trkpt lat="48.36082" lon="2.77129">
        <ele>64.55</ele>
        <time>2014-11-23T13:42:48Z</time>
      </trkpt>
      <trkpt lat="48.36082" lon="2.7713">
        <ele>64.55</ele>
        <time>2014-11-23T13:43:08Z</time>
      </trkpt>
      <trkpt lat="48.36081" lon="2.77131">
        <ele>64.55</ele>
        <time>2014-11-23T13:43:38Z</time>
      </trkpt>
      <trkpt lat="48.36081" lon="2.77132">
        <ele>65.03</ele>
        <time>2014-11-23T13:43:57Z</time>
      </trkpt>
      <trkpt lat="48.36081" lon="2.7713">
        <ele>64.55</ele>
        <time>2014-11-23T13:44:15Z</time>
      </trkpt>
      <trkpt lat="48.3608" lon="2.7713">
        <ele>65.03</ele>
        <time>2014-11-23T13:44:31Z</time>
      </trkpt>
      <trkpt lat="48.36078" lon="2.77131">
        <ele>65.03</ele>
        <time>2014-11-23T13:44:51Z</time>
      </trkpt>
      <trkpt lat="48.36078" lon="2.77132">
        <ele>65.03</ele>
        <time>2014-11-23T13:45:09Z</time>
      </trkpt>
      <trkpt lat="48.36078" lon="2.77131">
        <ele>65.03</ele>
        <time>2014-11-23T13:45:29Z</time>
      </trkpt>
      <trkpt lat="48.36078" lon="2.77131">
        <ele>65.03</ele>
        <time>2014-11-23T13:45:45Z</time>
      </trkpt>
      <trkpt lat="48.36077" lon="2.77131">
        <ele>65.03</ele>
        <time>2014-11-23T13:46:05Z</time>
      </trkpt>
      <trkpt lat="48.36077" lon="2.77132">
        <ele>65.51</ele>
        <time>2014-11-23T13:46:31Z</time>
      </trkpt>
      <trkpt lat="48.36077" lon="2.77132">
        <ele>65.51</ele>
        <time>2014-11-23T13:46:50Z</time>
      </trkpt>
      <trkpt lat="48.36077" lon="2.77132">
        <ele>65.51</ele>
        <time>2014-11-23T13:47:12Z</time>
      </trkpt>
      <trkpt lat="48.36078" lon="2.77131">
        <ele>65.51</ele>
        <time>2014-11-23T13:47:34Z</time>
      </trkpt>
      <trkpt lat="48.36078" lon="2.77131">
        <ele>65.99</ele>
        <time>2014-11-23T13:47:55Z</time>
      </trkpt>
      <trkpt lat="48.36084" lon="2.77132">
        <ele>65.99</ele>
        <time>2014-11-23T13:48:10Z</time>
      </trkpt>
      <trkpt lat="48.36104" lon="2.77129">
        <ele>65.99</ele>
        <time>2014-11-23T13:48:27Z</time>
      </trkpt>
      <trkpt lat="48.36115" lon="2.77134">
        <ele>66.47</ele>
        <time>2014-11-23T13:48:40Z</time>
      </trkpt>
      <trkpt lat="48.36126" lon="2.77134">
        <ele>66.47</ele>
        <time>2014-11-23T13:48:50Z</time>
      </trkpt>
      <trkpt lat="48.36142" lon="2.77133">
        <ele>66.47</ele>
        <time>2014-11-23T13:49:04Z</time>
      </trkpt>
      <trkpt lat="48.36157" lon="2.77134">
        <ele>66.95</ele>
        <time>2014-11-23T13:49:18Z</time>
      </trkpt>
      <trkpt lat="48.36173" lon="2.77136">
        <ele>66.95</ele>
        <time>2014-11-23T13:49:33Z</time>
      </trkpt>
      <trkpt lat="48.36194" lon="2.77139">
        <ele>67.43</ele>
        <time>2014-11-23T13:49:50Z</time>
      </trkpt>
      <trkpt lat="48.362" lon="2.7714">
        <ele>67.43</ele>
        <time>2014-11-23T13:49:55Z</time>
      </trkpt>
      <trkpt lat="48.36203" lon="2.7714">
        <ele>67.43</ele>
        <time>2014-11-23T13:49:58Z</time>
      </trkpt>
      <trkpt lat="48.36214" lon="2.7714">
        <ele>67.43</ele>
        <time>2014-11-23T13:50:09Z</time>
      </trkpt>
      <trkpt lat="48.36225" lon="2.7714">
        <ele>68.39</ele>
        <time>2014-11-23T13:50:21Z</time>
      </trkpt>
      <trkpt lat="48.36227" lon="2.77141">
        <ele>67.91</ele>
        <time>2014-11-23T13:50:22Z</time>
      </trkpt>
      <trkpt lat="48.36244" lon="2.77144">
        <ele>68.39</ele>
        <time>2014-11-23T13:50:37Z</time>
      </trkpt>
      <trkpt lat="48.36263" lon="2.77144">
        <ele>68.39</ele>
        <time>2014-11-23T13:50:52Z</time>
      </trkpt>
      <trkpt lat="48.36282" lon="2.77147">
        <ele>68.87</ele>
        <time>2014-11-23T13:51:08Z</time>
      </trkpt>
      <trkpt lat="48.363" lon="2.77149">
        <ele>69.35</ele>
        <time>2014-11-23T13:51:23Z</time>
      </trkpt>
      <trkpt lat="48.36315" lon="2.77147">
        <ele>69.35</ele>
        <time>2014-11-23T13:51:37Z</time>
      </trkpt>
      <trkpt lat="48.3634" lon="2.77156">
        <ele>69.83</ele>
        <time>2014-11-23T13:51:57Z</time>
      </trkpt>
      <trkpt lat="48.36345" lon="2.77156">
        <ele>69.83</ele>
        <time>2014-11-23T13:52:00Z</time>
      </trkpt>
      <trkpt lat="48.36363" lon="2.77157">
        <ele>70.31</ele>
        <time>2014-11-23T13:52:17Z</time>
      </trkpt>
      <trkpt lat="48.3638" lon="2.77158">
        <ele>70.79</ele>
        <time>2014-11-23T13:52:33Z</time>
      </trkpt>
      <trkpt lat="48.36397" lon="2.77158">
        <ele>70.79</ele>
        <time>2014-11-23T13:52:48Z</time>
      </trkpt>
      <trkpt lat="48.36398" lon="2.77158">
        <ele>70.79</ele>
        <time>2014-11-23T13:52:49Z</time>
      </trkpt>
      <trkpt lat="48.36409" lon="2.7716">
        <ele>71.27</ele>
        <time>2014-11-23T13:53:02Z</time>
      </trkpt>
      <trkpt lat="48.36431" lon="2.77161">
        <ele>71.76</ele>
        <time>2014-11-23T13:53:18Z</time>
      </trkpt>
      <trkpt lat="48.36449" lon="2.77158">
        <ele>71.76</ele>
        <time>2014-11-23T13:53:36Z</time>
      </trkpt>
      <trkpt lat="48.3647" lon="2.7716">
        <ele>72.72</ele>
        <time>2014-11-23T13:53:52Z</time>
      </trkpt>
      <trkpt lat="48.36491" lon="2.77163">
        <ele>72.72</ele>
        <time>2014-11-23T13:54:12Z</time>
      </trkpt>
      <trkpt lat="48.36522" lon="2.77168">
        <ele>73.2</ele>
        <time>2014-11-23T13:54:34Z</time>
      </trkpt>
      <trkpt lat="48.36543" lon="2.77164">
        <ele>73.2</ele>
        <time>2014-11-23T13:54:49Z</time>
      </trkpt>
      <trkpt lat="48.36562" lon="2.77169">
        <ele>73.2</ele>
        <time>2014-11-23T13:55:07Z</time>
      </trkpt>
      <trkpt lat="48.36584" lon="2.77169">
        <ele>73.68</ele>
        <time>2014-11-23T13:55:26Z</time>
      </trkpt>
      <trkpt lat="48.36605" lon="2.7717">
        <ele>74.16</ele>
        <time>2014-11-23T13:55:43Z</time>
      </trkpt>
      <trkpt lat="48.36628" lon="2.77174">
        <ele>74.64</ele>
        <time>2014-11-23T13:56:00Z</time>
      </trkpt>
      <trkpt lat="48.36646" lon="2.77175">
        <ele>75.12</ele>
        <time>2014-11-23T13:56:19Z</time>
      </trkpt>
      <trkpt lat="48.36667" lon="2.77177">
        <ele>75.12</ele>
        <time>2014-11-23T13:56:34Z</time>
      </trkpt>
      <trkpt lat="48.36687" lon="2.77178">
        <ele>76.56</ele>
        <time>2014-11-23T13:56:51Z</time>
      </trkpt>
      <trkpt lat="48.36707" lon="2.77181">
        <ele>75.6</ele>
        <time>2014-11-23T13:57:07Z</time>
      </trkpt>
      <trkpt lat="48.36713" lon="2.77181">
        <ele>76.08</ele>
        <time>2014-11-23T13:57:10Z</time>
      </trkpt>
      <trkpt lat="48.36742" lon="2.77184">
        <ele>76.56</ele>
        <time>2014-11-23T13:57:33Z</time>
      </trkpt>
      <trkpt lat="48.36774" lon="2.77185">
        <ele>76.56</ele>
        <time>2014-11-23T13:57:54Z</time>
      </trkpt>
      <trkpt lat="48.36791" lon="2.77186">
        <ele>77.04</ele>
        <time>2014-11-23T13:58:10Z</time>
      </trkpt>
      <trkpt lat="48.36795" lon="2.77187">
        <ele>77.52</ele>
        <time>2014-11-23T13:58:26Z</time>
      </trkpt>
      <trkpt lat="48.3682" lon="2.77191">
        <ele>78</ele>
        <time>2014-11-23T13:58:46Z</time>
      </trkpt>
      <trkpt lat="48.36837" lon="2.77192">
        <ele>79.93</ele>
        <time>2014-11-23T13:59:04Z</time>
      </trkpt>
      <trkpt lat="48.36862" lon="2.77192">
        <ele>81.85</ele>
        <time>2014-11-23T13:59:21Z</time>
      </trkpt>
      <trkpt lat="48.36885" lon="2.77189">
        <ele>84.25</ele>
        <time>2014-11-23T13:59:39Z</time>
      </trkpt>
      <trkpt lat="48.36891" lon="2.77189">
        <ele>84.73</ele>
        <time>2014-11-23T13:59:45Z</time>
      </trkpt>
      <trkpt lat="48.36903" lon="2.7719">
        <ele>85.69</ele>
        <time>2014-11-23T13:59:56Z</time>
      </trkpt>
      <trkpt lat="48.36918" lon="2.77202">
        <ele>86.18</ele>
        <time>2014-11-23T14:00:11Z</time>
      </trkpt>
      <trkpt lat="48.36932" lon="2.77201">
        <ele>85.21</ele>
        <time>2014-11-23T14:00:24Z</time>
      </trkpt>
      <trkpt lat="48.36952" lon="2.77202">
        <ele>83.29</ele>
        <time>2014-11-23T14:00:40Z</time>
      </trkpt>
      <trkpt lat="48.36967" lon="2.77203">
        <ele>81.37</ele>
        <time>2014-11-23T14:00:54Z</time>
      </trkpt>
      <trkpt lat="48.36978" lon="2.77206">
        <ele>81.85</ele>
        <time>2014-11-23T14:01:00Z</time>
      </trkpt>
      <trkpt lat="48.36982" lon="2.77207">
        <ele>81.85</ele>
        <time>2014-11-23T14:01:16Z</time>
      </trkpt>
      <trkpt lat="48.36984" lon="2.77208">
        <ele>81.85</ele>
        <time>2014-11-23T14:01:37Z</time>
      </trkpt>
      <trkpt lat="48.37" lon="2.77205">
        <ele>80.41</ele>
        <time>2014-11-23T14:01:52Z</time>
      </trkpt>
      <trkpt lat="48.37025" lon="2.77206">
        <ele>79.45</ele>
        <time>2014-11-23T14:02:09Z</time>
      </trkpt>
      <trkpt lat="48.37045" lon="2.77207">
        <ele>79.93</ele>
        <time>2014-11-23T14:02:26Z</time>
      </trkpt>
      <trkpt lat="48.37063" lon="2.77211">
        <ele>80.41</ele>
        <time>2014-11-23T14:02:41Z</time>
      </trkpt>
      <trkpt lat="48.37082" lon="2.77211">
        <ele>80.41</ele>
        <time>2014-11-23T14:02:56Z</time>
      </trkpt>
      <trkpt lat="48.37113" lon="2.77213">
        <ele>80.89</ele>
        <time>2014-11-23T14:03:16Z</time>
      </trkpt>
      <trkpt lat="48.37117" lon="2.77215">
        <ele>80.89</ele>
        <time>2014-11-23T14:03:19Z</time>
      </trkpt>
      <trkpt lat="48.37146" lon="2.7722">
        <ele>81.85</ele>
        <time>2014-11-23T14:03:42Z</time>
      </trkpt>
      <trkpt lat="48.37172" lon="2.77223">
        <ele>82.33</ele>
        <time>2014-11-23T14:04:02Z</time>
      </trkpt>
      <trkpt lat="48.37201" lon="2.77224">
        <ele>82.81</ele>
        <time>2014-11-23T14:04:24Z</time>
      </trkpt>
      <trkpt lat="48.37226" lon="2.77227">
        <ele>81.85</ele>
        <time>2014-11-23T14:04:48Z</time>
      </trkpt>
      <trkpt lat="48.37259" lon="2.77231">
        <ele>81.37</ele>
        <time>2014-11-23T14:05:06Z</time>
      </trkpt>
      <trkpt lat="48.37285" lon="2.7723">
        <ele>81.37</ele>
        <time>2014-11-23T14:05:24Z</time>
      </trkpt>
      <trkpt lat="48.3731" lon="2.77229">
        <ele>80.89</ele>
        <time>2014-11-23T14:05:46Z</time>
      </trkpt>
      <trkpt lat="48.37334" lon="2.77229">
        <ele>80.41</ele>
        <time>2014-11-23T14:06:01Z</time>
      </trkpt>
      <trkpt lat="48.37337" lon="2.7723">
        <ele>80.41</ele>
        <time>2014-11-23T14:06:03Z</time>
      </trkpt>
      <trkpt lat="48.37358" lon="2.77233">
        <ele>80.89</ele>
        <time>2014-11-23T14:06:20Z</time>
      </trkpt>
      <trkpt lat="48.37387" lon="2.77245">
        <ele>80.89</ele>
        <time>2014-11-23T14:06:43Z</time>
      </trkpt>
      <trkpt lat="48.37405" lon="2.77245">
        <ele>80.89</ele>
        <time>2014-11-23T14:07:03Z</time>
      </trkpt>
      <trkpt lat="48.3744" lon="2.77245">
        <ele>80.89</ele>
        <time>2014-11-23T14:07:21Z</time>
      </trkpt>
      <trkpt lat="48.37463" lon="2.77251">
        <ele>80.89</ele>
        <time>2014-11-23T14:07:39Z</time>
      </trkpt>
      <trkpt lat="48.37483" lon="2.77251">
        <ele>81.37</ele>
        <time>2014-11-23T14:07:55Z</time>
      </trkpt>
      <trkpt lat="48.37487" lon="2.7725">
        <ele>81.37</ele>
        <time>2014-11-23T14:08:13Z</time>
      </trkpt>
      <trkpt lat="48.37487" lon="2.77249">
        <ele>81.85</ele>
        <time>2014-11-23T14:08:36Z</time>
      </trkpt>
      <trkpt lat="48.37487" lon="2.77247">
        <ele>81.85</ele>
        <time>2014-11-23T14:08:55Z</time>
      </trkpt>
      <trkpt lat="48.37483" lon="2.77248">
        <ele>81.85</ele>
        <time>2014-11-23T14:09:17Z</time>
      </trkpt>
      <trkpt lat="48.37483" lon="2.77246">
        <ele>81.85</ele>
        <time>2014-11-23T14:09:40Z</time>
      </trkpt>
      <trkpt lat="48.37485" lon="2.77248">
        <ele>81.85</ele>
        <time>2014-11-23T14:10:09Z</time>
      </trkpt>
      <trkpt lat="48.37487" lon="2.77251">
        <ele>81.85</ele>
        <time>2014-11-23T14:10:31Z</time>
      </trkpt>
      <trkpt lat="48.37489" lon="2.77256">
        <ele>81.85</ele>
        <time>2014-11-23T14:10:58Z</time>
      </trkpt>
      <trkpt lat="48.37492" lon="2.77256">
        <ele>81.85</ele>
        <time>2014-11-23T14:11:17Z</time>
      </trkpt>
      <trkpt lat="48.375" lon="2.77253">
        <ele>81.85</ele>
        <time>2014-11-23T14:11:26Z</time>
      </trkpt>
      <trkpt lat="48.37519" lon="2.77255">
        <ele>82.33</ele>
        <time>2014-11-23T14:11:44Z</time>
      </trkpt>
      <trkpt lat="48.37543" lon="2.77256">
        <ele>82.33</ele>
        <time>2014-11-23T14:12:01Z</time>
      </trkpt>
      <trkpt lat="48.37559" lon="2.77258">
        <ele>82.81</ele>
        <time>2014-11-23T14:12:17Z</time>
      </trkpt>
      <trkpt lat="48.37576" lon="2.77258">
        <ele>82.81</ele>
        <time>2014-11-23T14:12:31Z</time>
      </trkpt>
      <trkpt lat="48.37593" lon="2.7726">
        <ele>83.29</ele>
        <time>2014-11-23T14:12:46Z</time>
      </trkpt>
      <trkpt lat="48.37614" lon="2.7726">
        <ele>83.77</ele>
        <time>2014-11-23T14:13:00Z</time>
      </trkpt>
      <trkpt lat="48.37632" lon="2.77261">
        <ele>85.69</ele>
        <time>2014-11-23T14:13:17Z</time>
      </trkpt>
      <trkpt lat="48.37645" lon="2.77262">
        <ele>86.18</ele>
        <time>2014-11-23T14:13:30Z</time>
      </trkpt>
      <trkpt lat="48.37654" lon="2.77262">
        <ele>87.62</ele>
        <time>2014-11-23T14:13:44Z</time>
      </trkpt>
      <trkpt lat="48.37673" lon="2.77264">
        <ele>89.06</ele>
        <time>2014-11-23T14:14:00Z</time>
      </trkpt>
      <trkpt lat="48.37692" lon="2.77267">
        <ele>90.02</ele>
        <time>2014-11-23T14:14:18Z</time>
      </trkpt>
      <trkpt lat="48.37709" lon="2.77269">
        <ele>91.46</ele>
        <time>2014-11-23T14:14:33Z</time>
      </trkpt>
      <trkpt lat="48.37727" lon="2.77269">
        <ele>92.9</ele>
        <time>2014-11-23T14:14:49Z</time>
      </trkpt>
      <trkpt lat="48.37737" lon="2.7727">
        <ele>94.35</ele>
        <time>2014-11-23T14:15:06Z</time>
      </trkpt>
      <trkpt lat="48.37752" lon="2.77271">
        <ele>94.35</ele>
        <time>2014-11-23T14:15:21Z</time>
      </trkpt>
      <trkpt lat="48.37776" lon="2.77255">
        <ele>92.9</ele>
        <time>2014-11-23T14:15:37Z</time>
      </trkpt>
      <trkpt lat="48.37781" lon="2.77247">
        <ele>92.42</ele>
        <time>2014-11-23T14:15:41Z</time>
      </trkpt>
      <trkpt lat="48.3779" lon="2.77231">
        <ele>90.02</ele>
        <time>2014-11-23T14:15:53Z</time>
      </trkpt>
      <trkpt lat="48.37803" lon="2.77226">
        <ele>86.66</ele>
        <time>2014-11-23T14:16:07Z</time>
      </trkpt>
      <trkpt lat="48.37814" lon="2.77239">
        <ele>84.73</ele>
        <time>2014-11-23T14:16:19Z</time>
      </trkpt>
      <trkpt lat="48.37827" lon="2.7725">
        <ele>83.29</ele>
        <time>2014-11-23T14:16:32Z</time>
      </trkpt>
      <trkpt lat="48.37845" lon="2.77268">
        <ele>82.81</ele>
        <time>2014-11-23T14:16:49Z</time>
      </trkpt>
      <trkpt lat="48.37868" lon="2.77279">
        <ele>83.77</ele>
        <time>2014-11-23T14:17:06Z</time>
      </trkpt>
      <trkpt lat="48.37885" lon="2.77282">
        <ele>83.77</ele>
        <time>2014-11-23T14:17:20Z</time>
      </trkpt>
      <trkpt lat="48.37906" lon="2.77284">
        <ele>84.25</ele>
        <time>2014-11-23T14:17:36Z</time>
      </trkpt>
      <trkpt lat="48.37921" lon="2.77283">
        <ele>84.73</ele>
        <time>2014-11-23T14:17:52Z</time>
      </trkpt>
      <trkpt lat="48.37923" lon="2.77283">
        <ele>84.73</ele>
        <time>2014-11-23T14:18:13Z</time>
      </trkpt>
      <trkpt lat="48.37923" lon="2.77285">
        <ele>84.73</ele>
        <time>2014-11-23T14:18:33Z</time>
      </trkpt>
      <trkpt lat="48.37926" lon="2.77275">
        <ele>84.73</ele>
        <time>2014-11-23T14:18:50Z</time>
      </trkpt>
      <trkpt lat="48.37931" lon="2.77245">
        <ele>84.73</ele>
        <time>2014-11-23T14:19:06Z</time>
      </trkpt>
      <trkpt lat="48.37935" lon="2.77221">
        <ele>85.21</ele>
        <time>2014-11-23T14:19:19Z</time>
      </trkpt>
      <trkpt lat="48.37934" lon="2.77212">
        <ele>85.69</ele>
        <time>2014-11-23T14:19:25Z</time>
      </trkpt>
      <trkpt lat="48.37936" lon="2.77189">
        <ele>86.18</ele>
        <time>2014-11-23T14:19:39Z</time>
      </trkpt>
      <trkpt lat="48.37936" lon="2.77186">
        <ele>86.18</ele>
        <time>2014-11-23T14:19:40Z</time>
      </trkpt>
      <trkpt lat="48.37943" lon="2.77162">
        <ele>85.69</ele>
        <time>2014-11-23T14:19:55Z</time>
      </trkpt>
      <trkpt lat="48.37943" lon="2.77156">
        <ele>86.18</ele>
        <time>2014-11-23T14:19:58Z</time>
      </trkpt>
      <trkpt lat="48.37944" lon="2.77141">
        <ele>85.21</ele>
        <time>2014-11-23T14:20:04Z</time>
      </trkpt>
      <trkpt lat="48.37946" lon="2.77117">
        <ele>85.21</ele>
        <time>2014-11-23T14:20:18Z</time>
      </trkpt>
      <trkpt lat="48.37946" lon="2.77111">
        <ele>85.21</ele>
        <time>2014-11-23T14:20:22Z</time>
      </trkpt>
      <trkpt lat="48.37948" lon="2.77104">
        <ele>84.73</ele>
        <time>2014-11-23T14:20:25Z</time>
      </trkpt>
      <trkpt lat="48.37952" lon="2.77077">
        <ele>84.73</ele>
        <time>2014-11-23T14:20:38Z</time>
      </trkpt>
      <trkpt lat="48.37962" lon="2.77044">
        <ele>84.73</ele>
        <time>2014-11-23T14:20:58Z</time>
      </trkpt>
      <trkpt lat="48.37971" lon="2.77002">
        <ele>84.73</ele>
        <time>2014-11-23T14:21:20Z</time>
      </trkpt>
      <trkpt lat="48.37969" lon="2.76964">
        <ele>85.21</ele>
        <time>2014-11-23T14:21:36Z</time>
      </trkpt>
      <trkpt lat="48.37972" lon="2.76936">
        <ele>85.69</ele>
        <time>2014-11-23T14:21:50Z</time>
      </trkpt>
      <trkpt lat="48.37973" lon="2.76926">
        <ele>85.21</ele>
        <time>2014-11-23T14:22:02Z</time>
      </trkpt>
      <trkpt lat="48.37975" lon="2.76921">
        <ele>85.21</ele>
        <time>2014-11-23T14:22:16Z</time>
      </trkpt>
      <trkpt lat="48.37976" lon="2.76903">
        <ele>85.21</ele>
        <time>2014-11-23T14:22:30Z</time>
      </trkpt>
      <trkpt lat="48.37979" lon="2.76893">
        <ele>84.73</ele>
        <time>2014-11-23T14:22:35Z</time>
      </trkpt>
      <trkpt lat="48.3798" lon="2.76888">
        <ele>85.21</ele>
        <time>2014-11-23T14:22:37Z</time>
      </trkpt>
      <trkpt lat="48.37983" lon="2.76862">
        <ele>84.25</ele>
        <time>2014-11-23T14:22:47Z</time>
      </trkpt>
      <trkpt lat="48.37985" lon="2.76832">
        <ele>84.25</ele>
        <time>2014-11-23T14:23:03Z</time>
      </trkpt>
      <trkpt lat="48.37988" lon="2.76809">
        <ele>84.73</ele>
        <time>2014-11-23T14:23:13Z</time>
      </trkpt>
      <trkpt lat="48.37988" lon="2.76806">
        <ele>84.73</ele>
        <time>2014-11-23T14:23:15Z</time>
      </trkpt>
      <trkpt lat="48.37994" lon="2.76773">
        <ele>83.77</ele>
        <time>2014-11-23T14:23:33Z</time>
      </trkpt>
      <trkpt lat="48.37998" lon="2.76748">
        <ele>83.77</ele>
        <time>2014-11-23T14:23:46Z</time>
      </trkpt>
      <trkpt lat="48.38004" lon="2.76719">
        <ele>83.29</ele>
        <time>2014-11-23T14:24:02Z</time>
      </trkpt>
      <trkpt lat="48.38005" lon="2.76696">
        <ele>83.29</ele>
        <time>2014-11-23T14:24:16Z</time>
      </trkpt>
      <trkpt lat="48.38011" lon="2.76666">
        <ele>83.77</ele>
        <time>2014-11-23T14:24:32Z</time>
      </trkpt>
      <trkpt lat="48.38014" lon="2.76635">
        <ele>83.77</ele>
        <time>2014-11-23T14:24:49Z</time>
      </trkpt>
      <trkpt lat="48.38015" lon="2.76601">
        <ele>83.29</ele>
        <time>2014-11-23T14:25:06Z</time>
      </trkpt>
      <trkpt lat="48.38019" lon="2.76585">
        <ele>83.29</ele>
        <time>2014-11-23T14:25:14Z</time>
      </trkpt>
      <trkpt lat="48.38026" lon="2.76551">
        <ele>82.81</ele>
        <time>2014-11-23T14:25:31Z</time>
      </trkpt>
      <trkpt lat="48.38029" lon="2.76546">
        <ele>82.81</ele>
        <time>2014-11-23T14:25:33Z</time>
      </trkpt>
      <trkpt lat="48.38038" lon="2.76517">
        <ele>82.33</ele>
        <time>2014-11-23T14:25:47Z</time>
      </trkpt>
      <trkpt lat="48.38036" lon="2.76472">
        <ele>81.85</ele>
        <time>2014-11-23T14:26:05Z</time>
      </trkpt>
      <trkpt lat="48.38043" lon="2.7644">
        <ele>81.37</ele>
        <time>2014-11-23T14:26:20Z</time>
      </trkpt>
      <trkpt lat="48.38046" lon="2.76429">
        <ele>81.37</ele>
        <time>2014-11-23T14:26:26Z</time>
      </trkpt>
      <trkpt lat="48.38048" lon="2.76419">
        <ele>80.89</ele>
        <time>2014-11-23T14:26:33Z</time>
      </trkpt>
      <trkpt lat="48.38049" lon="2.76416">
        <ele>80.89</ele>
        <time>2014-11-23T14:26:35Z</time>
      </trkpt>
      <trkpt lat="48.38064" lon="2.76402">
        <ele>81.37</ele>
        <time>2014-11-23T14:26:53Z</time>
      </trkpt>
      <trkpt lat="48.38064" lon="2.76402">
        <ele>81.37</ele>
        <time>2014-11-23T14:26:54Z</time>
      </trkpt>
      <trkpt lat="48.3808" lon="2.7641">
        <ele>81.85</ele>
        <time>2014-11-23T14:27:12Z</time>
      </trkpt>
      <trkpt lat="48.38117" lon="2.76418">
        <ele>81.37</ele>
        <time>2014-11-23T14:27:32Z</time>
      </trkpt>
      <trkpt lat="48.38133" lon="2.76427">
        <ele>81.37</ele>
        <time>2014-11-23T14:27:49Z</time>
      </trkpt>
      <trkpt lat="48.38146" lon="2.76433">
        <ele>81.37</ele>
        <time>2014-11-23T14:28:07Z</time>
      </trkpt>
      <trkpt lat="48.38176" lon="2.76442">
        <ele>81.37</ele>
        <time>2014-11-23T14:28:24Z</time>
      </trkpt>
      <trkpt lat="48.382" lon="2.76451">
        <ele>80.89</ele>
        <time>2014-11-23T14:28:45Z</time>
      </trkpt>
      <trkpt lat="48.3821" lon="2.76454">
        <ele>80.41</ele>
        <time>2014-11-23T14:29:00Z</time>
      </trkpt>
      <trkpt lat="48.38235" lon="2.76459">
        <ele>79.93</ele>
        <time>2014-11-23T14:29:15Z</time>
      </trkpt>
      <trkpt lat="48.38253" lon="2.76464">
        <ele>79.93</ele>
        <time>2014-11-23T14:29:30Z</time>
      </trkpt>
      <trkpt lat="48.38269" lon="2.76468">
        <ele>79.45</ele>
        <time>2014-11-23T14:29:48Z</time>
      </trkpt>
      <trkpt lat="48.38304" lon="2.76464">
        <ele>79.45</ele>
        <time>2014-11-23T14:30:04Z</time>
      </trkpt>
      <trkpt lat="48.38326" lon="2.76476">
        <ele>78.97</ele>
        <time>2014-11-23T14:30:21Z</time>
      </trkpt>
      <trkpt lat="48.38345" lon="2.76486">
        <ele>78.97</ele>
        <time>2014-11-23T14:30:38Z</time>
      </trkpt>
      <trkpt lat="48.38374" lon="2.76493">
        <ele>78.97</ele>
        <time>2014-11-23T14:30:56Z</time>
      </trkpt>
      <trkpt lat="48.38387" lon="2.765">
        <ele>78.97</ele>
        <time>2014-11-23T14:31:11Z</time>
      </trkpt>
      <trkpt lat="48.38408" lon="2.76506">
        <ele>78.97</ele>
        <time>2014-11-23T14:31:26Z</time>
      </trkpt>
      <trkpt lat="48.38424" lon="2.76516">
        <ele>78.48</ele>
        <time>2014-11-23T14:31:42Z</time>
      </trkpt>
      <trkpt lat="48.38441" lon="2.76522">
        <ele>78.48</ele>
        <time>2014-11-23T14:31:58Z</time>
      </trkpt>
      <trkpt lat="48.38456" lon="2.76528">
        <ele>78</ele>
        <time>2014-11-23T14:32:15Z</time>
      </trkpt>
      <trkpt lat="48.38479" lon="2.76531">
        <ele>78</ele>
        <time>2014-11-23T14:32:30Z</time>
      </trkpt>
      <trkpt lat="48.38502" lon="2.7653">
        <ele>78</ele>
        <time>2014-11-23T14:32:42Z</time>
      </trkpt>
      <trkpt lat="48.38513" lon="2.76534">
        <ele>78</ele>
        <time>2014-11-23T14:32:47Z</time>
      </trkpt>
      <trkpt lat="48.38527" lon="2.7654">
        <ele>78</ele>
        <time>2014-11-23T14:33:00Z</time>
      </trkpt>
      <trkpt lat="48.38532" lon="2.76542">
        <ele>78</ele>
        <time>2014-11-23T14:33:14Z</time>
      </trkpt>
      <trkpt lat="48.38533" lon="2.76542">
        <ele>78.48</ele>
        <time>2014-11-23T14:33:29Z</time>
      </trkpt>
      <trkpt lat="48.38535" lon="2.76542">
        <ele>78</ele>
        <time>2014-11-23T14:33:43Z</time>
      </trkpt>
      <trkpt lat="48.38536" lon="2.76544">
        <ele>78</ele>
        <time>2014-11-23T14:33:51Z</time>
      </trkpt>
      <trkpt lat="48.3855" lon="2.7655">
        <ele>78.48</ele>
        <time>2014-11-23T14:34:04Z</time>
      </trkpt>
      <trkpt lat="48.38568" lon="2.76551">
        <ele>78</ele>
        <time>2014-11-23T14:34:19Z</time>
      </trkpt>
      <trkpt lat="48.38587" lon="2.76539">
        <ele>78</ele>
        <time>2014-11-23T14:34:33Z</time>
      </trkpt>
      <trkpt lat="48.38596" lon="2.76534">
        <ele>78</ele>
        <time>2014-11-23T14:34:48Z</time>
      </trkpt>
      <trkpt lat="48.38603" lon="2.76535">
        <ele>78</ele>
        <time>2014-11-23T14:35:01Z</time>
      </trkpt>
      <trkpt lat="48.38616" lon="2.76529">
        <ele>78.97</ele>
        <time>2014-11-23T14:35:11Z</time>
      </trkpt>
      <trkpt lat="48.38638" lon="2.76524">
        <ele>78</ele>
        <time>2014-11-23T14:35:27Z</time>
      </trkpt>
      <trkpt lat="48.3865" lon="2.76521">
        <ele>77.52</ele>
        <time>2014-11-23T14:35:43Z</time>
      </trkpt>
      <trkpt lat="48.38678" lon="2.76515">
        <ele>77.52</ele>
        <time>2014-11-23T14:36:01Z</time>
      </trkpt>
      <trkpt lat="48.387" lon="2.7651">
        <ele>77.52</ele>
        <time>2014-11-23T14:36:17Z</time>
      </trkpt>
      <trkpt lat="48.38714" lon="2.76506">
        <ele>77.04</ele>
        <time>2014-11-23T14:36:32Z</time>
      </trkpt>
      <trkpt lat="48.38745" lon="2.76493">
        <ele>77.04</ele>
        <time>2014-11-23T14:36:52Z</time>
      </trkpt>
      <trkpt lat="48.38763" lon="2.76488">
        <ele>76.56</ele>
        <time>2014-11-23T14:37:06Z</time>
      </trkpt>
      <trkpt lat="48.38793" lon="2.76484">
        <ele>76.56</ele>
        <time>2014-11-23T14:37:26Z</time>
      </trkpt>
      <trkpt lat="48.38798" lon="2.76481">
        <ele>76.56</ele>
        <time>2014-11-23T14:37:30Z</time>
      </trkpt>
      <trkpt lat="48.38808" lon="2.76476">
        <ele>76.56</ele>
        <time>2014-11-23T14:37:42Z</time>
      </trkpt>
      <trkpt lat="48.3883" lon="2.76472">
        <ele>76.08</ele>
        <time>2014-11-23T14:37:57Z</time>
      </trkpt>
      <trkpt lat="48.38848" lon="2.76469">
        <ele>76.08</ele>
        <time>2014-11-23T14:38:12Z</time>
      </trkpt>
      <trkpt lat="48.38873" lon="2.76464">
        <ele>76.08</ele>
        <time>2014-11-23T14:38:31Z</time>
      </trkpt>
      <trkpt lat="48.38897" lon="2.76457">
        <ele>75.6</ele>
        <time>2014-11-23T14:38:47Z</time>
      </trkpt>
      <trkpt lat="48.38914" lon="2.76451">
        <ele>75.6</ele>
        <time>2014-11-23T14:39:03Z</time>
      </trkpt>
      <trkpt lat="48.38938" lon="2.76445">
        <ele>75.6</ele>
        <time>2014-11-23T14:39:21Z</time>
      </trkpt>
      <trkpt lat="48.38966" lon="2.76439">
        <ele>75.12</ele>
        <time>2014-11-23T14:39:41Z</time>
      </trkpt>
      <trkpt lat="48.38995" lon="2.76432">
        <ele>75.12</ele>
        <time>2014-11-23T14:39:59Z</time>
      </trkpt>
      <trkpt lat="48.39017" lon="2.76423">
        <ele>74.64</ele>
        <time>2014-11-23T14:40:17Z</time>
      </trkpt>
      <trkpt lat="48.39044" lon="2.7642">
        <ele>74.64</ele>
        <time>2014-11-23T14:40:36Z</time>
      </trkpt>
      <trkpt lat="48.39061" lon="2.76414">
        <ele>74.64</ele>
        <time>2014-11-23T14:40:51Z</time>
      </trkpt>
      <trkpt lat="48.39075" lon="2.7641">
        <ele>74.64</ele>
        <time>2014-11-23T14:41:04Z</time>
      </trkpt>
      <trkpt lat="48.39097" lon="2.76406">
        <ele>74.64</ele>
        <time>2014-11-23T14:41:18Z</time>
      </trkpt>
      <trkpt lat="48.39118" lon="2.7641">
        <ele>74.64</ele>
        <time>2014-11-23T14:41:33Z</time>
      </trkpt>
      <trkpt lat="48.39141" lon="2.76411">
        <ele>74.64</ele>
        <time>2014-11-23T14:41:52Z</time>
      </trkpt>
      <trkpt lat="48.39166" lon="2.76409">
        <ele>74.64</ele>
        <time>2014-11-23T14:42:09Z</time>
      </trkpt>
      <trkpt lat="48.39189" lon="2.76409">
        <ele>74.64</ele>
        <time>2014-11-23T14:42:27Z</time>
      </trkpt>
      <trkpt lat="48.39214" lon="2.76409">
        <ele>75.12</ele>
        <time>2014-11-23T14:42:44Z</time>
      </trkpt>
      <trkpt lat="48.39235" lon="2.76408">
        <ele>74.64</ele>
        <time>2014-11-23T14:43:02Z</time>
      </trkpt>
      <trkpt lat="48.39259" lon="2.76408">
        <ele>74.64</ele>
        <time>2014-11-23T14:43:19Z</time>
      </trkpt>
      <trkpt lat="48.39286" lon="2.76406">
        <ele>74.64</ele>
        <time>2014-11-23T14:43:37Z</time>
      </trkpt>
      <trkpt lat="48.39309" lon="2.76406">
        <ele>74.64</ele>
        <time>2014-11-23T14:43:55Z</time>
      </trkpt>
      <trkpt lat="48.3933" lon="2.76405">
        <ele>74.64</ele>
        <time>2014-11-23T14:44:10Z</time>
      </trkpt>
      <trkpt lat="48.39353" lon="2.76406">
        <ele>74.64</ele>
        <time>2014-11-23T14:44:28Z</time>
      </trkpt>
      <trkpt lat="48.39359" lon="2.7639">
        <ele>74.64</ele>
        <time>2014-11-23T14:44:42Z</time>
      </trkpt>
      <trkpt lat="48.39358" lon="2.7639">
        <ele>74.64</ele>
        <time>2014-11-23T14:45:09Z</time>
      </trkpt>
      <trkpt lat="48.39363" lon="2.76402">
        <ele>74.64</ele>
        <time>2014-11-23T14:45:20Z</time>
      </trkpt>
      <trkpt lat="48.39366" lon="2.76403">
        <ele>74.64</ele>
        <time>2014-11-23T14:45:23Z</time>
      </trkpt>
      <trkpt lat="48.39369" lon="2.76402">
        <ele>74.64</ele>
        <time>2014-11-23T14:45:25Z</time>
      </trkpt>
      <trkpt lat="48.3938" lon="2.76401">
        <ele>74.64</ele>
        <time>2014-11-23T14:45:34Z</time>
      </trkpt>
      <trkpt lat="48.39387" lon="2.764">
        <ele>74.64</ele>
        <time>2014-11-23T14:45:38Z</time>
      </trkpt>
      <trkpt lat="48.3941" lon="2.76397">
        <ele>75.12</ele>
        <time>2014-11-23T14:45:56Z</time>
      </trkpt>
      <trkpt lat="48.39422" lon="2.76388">
        <ele>75.6</ele>
        <time>2014-11-23T14:46:10Z</time>
      </trkpt>
      <trkpt lat="48.39423" lon="2.76383">
        <ele>72.72</ele>
        <time>2014-11-23T14:46:21Z</time>
      </trkpt>
      <trkpt lat="48.39455" lon="2.76383">
        <ele>75.6</ele>
        <time>2014-11-23T14:46:54Z</time>
      </trkpt>
    </trkseg>
  </trk>
</gpx>